<?xml version="1.0" encoding="UTF-8" standalone="no" ?>
<gpx xmlns="http://www.topografix.com/GPX/1/1" xmlns:xsi="http://www.w3.org/2001/XMLSchema-instance" xsi:schemaLocation="http://www.topografix.com/GPX/1/1 http://www.topografix.com/GPX/1/1/gpx.xsd" version="1.1" creator="VisuGPX - https://www.visugpx.com">
  <metadata>
    <name>2019-10-27-12-33-15 on AllTrails</name>
  </metadata>
  <trk>
    <name><![CDATA[2019-10-27-12-33-15 on AllTrails]]></name>
    <trkseg>
      <trkpt lat="44.06199" lon="4.09293">
        <ele>111</ele>
        <time>2019-10-27T12:33:17Z</time>
      </trkpt>
      <trkpt lat="44.06202" lon="4.09288">
        <ele>111</ele>
        <time>2019-10-27T12:33:21Z</time>
      </trkpt>
      <trkpt lat="44.06202" lon="4.09282">
        <ele>111</ele>
        <time>2019-10-27T12:33:23Z</time>
      </trkpt>
      <trkpt lat="44.06197" lon="4.09266">
        <ele>111</ele>
        <time>2019-10-27T12:33:27Z</time>
      </trkpt>
      <trkpt lat="44.06193" lon="4.09258">
        <ele>111</ele>
        <time>2019-10-27T12:33:30Z</time>
      </trkpt>
      <trkpt lat="44.06175" lon="4.09263">
        <ele>111</ele>
        <time>2019-10-27T12:33:35Z</time>
      </trkpt>
      <trkpt lat="44.06167" lon="4.09266">
        <ele>111</ele>
        <time>2019-10-27T12:33:37Z</time>
      </trkpt>
      <trkpt lat="44.06146" lon="4.09278">
        <ele>111</ele>
        <time>2019-10-27T12:33:42Z</time>
      </trkpt>
      <trkpt lat="44.06139" lon="4.09282">
        <ele>111</ele>
        <time>2019-10-27T12:33:44Z</time>
      </trkpt>
      <trkpt lat="44.06122" lon="4.09288">
        <ele>111</ele>
        <time>2019-10-27T12:33:48Z</time>
      </trkpt>
      <trkpt lat="44.06102" lon="4.09298">
        <ele>110</ele>
        <time>2019-10-27T12:33:53Z</time>
      </trkpt>
      <trkpt lat="44.06079" lon="4.09312">
        <ele>109</ele>
        <time>2019-10-27T12:33:59Z</time>
      </trkpt>
      <trkpt lat="44.06072" lon="4.09334">
        <ele>109</ele>
        <time>2019-10-27T12:34:04Z</time>
      </trkpt>
      <trkpt lat="44.0608" lon="4.09357">
        <ele>109</ele>
        <time>2019-10-27T12:34:09Z</time>
      </trkpt>
      <trkpt lat="44.06089" lon="4.09379">
        <ele>109</ele>
        <time>2019-10-27T12:34:15Z</time>
      </trkpt>
      <trkpt lat="44.06098" lon="4.09397">
        <ele>109</ele>
        <time>2019-10-27T12:34:21Z</time>
      </trkpt>
      <trkpt lat="44.06107" lon="4.09414">
        <ele>109</ele>
        <time>2019-10-27T12:34:28Z</time>
      </trkpt>
      <trkpt lat="44.06112" lon="4.09426">
        <ele>109</ele>
        <time>2019-10-27T12:34:33Z</time>
      </trkpt>
      <trkpt lat="44.0612" lon="4.09443">
        <ele>109</ele>
        <time>2019-10-27T12:34:40Z</time>
      </trkpt>
      <trkpt lat="44.06129" lon="4.09459">
        <ele>109</ele>
        <time>2019-10-27T12:34:47Z</time>
      </trkpt>
      <trkpt lat="44.06139" lon="4.09471">
        <ele>109</ele>
        <time>2019-10-27T12:34:54Z</time>
      </trkpt>
      <trkpt lat="44.06148" lon="4.09484">
        <ele>110</ele>
        <time>2019-10-27T12:35:00Z</time>
      </trkpt>
      <trkpt lat="44.06155" lon="4.09497">
        <ele>110</ele>
        <time>2019-10-27T12:35:06Z</time>
      </trkpt>
      <trkpt lat="44.06155" lon="4.095">
        <ele>110</ele>
        <time>2019-10-27T12:35:07Z</time>
      </trkpt>
      <trkpt lat="44.06161" lon="4.09515">
        <ele>110</ele>
        <time>2019-10-27T12:35:13Z</time>
      </trkpt>
      <trkpt lat="44.06163" lon="4.09526">
        <ele>111</ele>
        <time>2019-10-27T12:35:17Z</time>
      </trkpt>
      <trkpt lat="44.06157" lon="4.09542">
        <ele>112</ele>
        <time>2019-10-27T12:35:22Z</time>
      </trkpt>
      <trkpt lat="44.06154" lon="4.09547">
        <ele>112</ele>
        <time>2019-10-27T12:35:23Z</time>
      </trkpt>
      <trkpt lat="44.06137" lon="4.09575">
        <ele>112</ele>
        <time>2019-10-27T12:35:28Z</time>
      </trkpt>
      <trkpt lat="44.06126" lon="4.09596">
        <ele>113</ele>
        <time>2019-10-27T12:35:31Z</time>
      </trkpt>
      <trkpt lat="44.06116" lon="4.09619">
        <ele>114</ele>
        <time>2019-10-27T12:35:34Z</time>
      </trkpt>
      <trkpt lat="44.06104" lon="4.09644">
        <ele>114</ele>
        <time>2019-10-27T12:35:37Z</time>
      </trkpt>
      <trkpt lat="44.06092" lon="4.09669">
        <ele>114</ele>
        <time>2019-10-27T12:35:40Z</time>
      </trkpt>
      <trkpt lat="44.06079" lon="4.09696">
        <ele>114</ele>
        <time>2019-10-27T12:35:43Z</time>
      </trkpt>
      <trkpt lat="44.06048" lon="4.0977">
        <ele>115</ele>
        <time>2019-10-27T12:35:50Z</time>
      </trkpt>
      <trkpt lat="44.06045" lon="4.09782">
        <ele>115</ele>
        <time>2019-10-27T12:35:51Z</time>
      </trkpt>
      <trkpt lat="44.06041" lon="4.09819">
        <ele>114</ele>
        <time>2019-10-27T12:35:54Z</time>
      </trkpt>
      <trkpt lat="44.06042" lon="4.09843">
        <ele>114</ele>
        <time>2019-10-27T12:35:56Z</time>
      </trkpt>
      <trkpt lat="44.06047" lon="4.0989">
        <ele>113</ele>
        <time>2019-10-27T12:36:00Z</time>
      </trkpt>
      <trkpt lat="44.06051" lon="4.09923">
        <ele>113</ele>
        <time>2019-10-27T12:36:03Z</time>
      </trkpt>
      <trkpt lat="44.06055" lon="4.09957">
        <ele>112</ele>
        <time>2019-10-27T12:36:06Z</time>
      </trkpt>
      <trkpt lat="44.06069" lon="4.10025">
        <ele>110</ele>
        <time>2019-10-27T12:36:10Z</time>
      </trkpt>
      <trkpt lat="44.06074" lon="4.10063">
        <ele>110</ele>
        <time>2019-10-27T12:36:14Z</time>
      </trkpt>
      <trkpt lat="44.06075" lon="4.10072">
        <ele>110</ele>
        <time>2019-10-27T12:36:15Z</time>
      </trkpt>
      <trkpt lat="44.06075" lon="4.101">
        <ele>109</ele>
        <time>2019-10-27T12:36:18Z</time>
      </trkpt>
      <trkpt lat="44.06075" lon="4.10128">
        <ele>108</ele>
        <time>2019-10-27T12:36:21Z</time>
      </trkpt>
      <trkpt lat="44.06075" lon="4.10154">
        <ele>108</ele>
        <time>2019-10-27T12:36:24Z</time>
      </trkpt>
      <trkpt lat="44.06075" lon="4.10173">
        <ele>108</ele>
        <time>2019-10-27T12:36:26Z</time>
      </trkpt>
      <trkpt lat="44.06082" lon="4.10208">
        <ele>107</ele>
        <time>2019-10-27T12:36:30Z</time>
      </trkpt>
      <trkpt lat="44.06085" lon="4.10216">
        <ele>107</ele>
        <time>2019-10-27T12:36:31Z</time>
      </trkpt>
      <trkpt lat="44.06089" lon="4.10222">
        <ele>106</ele>
        <time>2019-10-27T12:36:32Z</time>
      </trkpt>
      <trkpt lat="44.06092" lon="4.10229">
        <ele>106</ele>
        <time>2019-10-27T12:36:33Z</time>
      </trkpt>
      <trkpt lat="44.061" lon="4.10254">
        <ele>106</ele>
        <time>2019-10-27T12:36:37Z</time>
      </trkpt>
      <trkpt lat="44.06116" lon="4.10281">
        <ele>105</ele>
        <time>2019-10-27T12:36:42Z</time>
      </trkpt>
      <trkpt lat="44.06119" lon="4.10286">
        <ele>105</ele>
        <time>2019-10-27T12:36:43Z</time>
      </trkpt>
      <trkpt lat="44.06129" lon="4.10301">
        <ele>105</ele>
        <time>2019-10-27T12:36:46Z</time>
      </trkpt>
      <trkpt lat="44.0614" lon="4.1033">
        <ele>105</ele>
        <time>2019-10-27T12:36:51Z</time>
      </trkpt>
      <trkpt lat="44.06149" lon="4.10353">
        <ele>105</ele>
        <time>2019-10-27T12:36:55Z</time>
      </trkpt>
      <trkpt lat="44.06159" lon="4.10377">
        <ele>105</ele>
        <time>2019-10-27T12:36:59Z</time>
      </trkpt>
      <trkpt lat="44.06161" lon="4.10382">
        <ele>105</ele>
        <time>2019-10-27T12:37:00Z</time>
      </trkpt>
      <trkpt lat="44.06161" lon="4.10407">
        <ele>105</ele>
        <time>2019-10-27T12:37:04Z</time>
      </trkpt>
      <trkpt lat="44.06159" lon="4.10413">
        <ele>105</ele>
        <time>2019-10-27T12:37:05Z</time>
      </trkpt>
      <trkpt lat="44.06158" lon="4.1042">
        <ele>105</ele>
        <time>2019-10-27T12:37:06Z</time>
      </trkpt>
      <trkpt lat="44.06155" lon="4.10441">
        <ele>104</ele>
        <time>2019-10-27T12:37:09Z</time>
      </trkpt>
      <trkpt lat="44.06155" lon="4.10474">
        <ele>104</ele>
        <time>2019-10-27T12:37:14Z</time>
      </trkpt>
      <trkpt lat="44.06154" lon="4.10479">
        <ele>104</ele>
        <time>2019-10-27T12:37:15Z</time>
      </trkpt>
      <trkpt lat="44.06152" lon="4.1049">
        <ele>103</ele>
        <time>2019-10-27T12:37:17Z</time>
      </trkpt>
      <trkpt lat="44.06153" lon="4.10524">
        <ele>103</ele>
        <time>2019-10-27T12:37:23Z</time>
      </trkpt>
      <trkpt lat="44.06153" lon="4.10527">
        <ele>103</ele>
        <time>2019-10-27T12:37:24Z</time>
      </trkpt>
      <trkpt lat="44.06142" lon="4.10532">
        <ele>103</ele>
        <time>2019-10-27T12:37:29Z</time>
      </trkpt>
      <trkpt lat="44.06125" lon="4.10536">
        <ele>103</ele>
        <time>2019-10-27T12:37:35Z</time>
      </trkpt>
      <trkpt lat="44.06098" lon="4.10529">
        <ele>103</ele>
        <time>2019-10-27T12:37:43Z</time>
      </trkpt>
      <trkpt lat="44.06091" lon="4.10526">
        <ele>102</ele>
        <time>2019-10-27T12:37:45Z</time>
      </trkpt>
      <trkpt lat="44.06061" lon="4.10502">
        <ele>101</ele>
        <time>2019-10-27T12:37:55Z</time>
      </trkpt>
      <trkpt lat="44.06058" lon="4.10501">
        <ele>101</ele>
        <time>2019-10-27T12:37:56Z</time>
      </trkpt>
      <trkpt lat="44.06041" lon="4.10498">
        <ele>101</ele>
        <time>2019-10-27T12:38:02Z</time>
      </trkpt>
      <trkpt lat="44.0602" lon="4.10494">
        <ele>101</ele>
        <time>2019-10-27T12:38:08Z</time>
      </trkpt>
      <trkpt lat="44.05999" lon="4.10489">
        <ele>101</ele>
        <time>2019-10-27T12:38:14Z</time>
      </trkpt>
      <trkpt lat="44.05983" lon="4.1048">
        <ele>101</ele>
        <time>2019-10-27T12:38:20Z</time>
      </trkpt>
      <trkpt lat="44.05965" lon="4.10482">
        <ele>101</ele>
        <time>2019-10-27T12:38:25Z</time>
      </trkpt>
      <trkpt lat="44.05948" lon="4.10486">
        <ele>101</ele>
        <time>2019-10-27T12:38:30Z</time>
      </trkpt>
      <trkpt lat="44.05928" lon="4.10497">
        <ele>101</ele>
        <time>2019-10-27T12:38:36Z</time>
      </trkpt>
      <trkpt lat="44.05908" lon="4.105">
        <ele>101</ele>
        <time>2019-10-27T12:38:41Z</time>
      </trkpt>
      <trkpt lat="44.0589" lon="4.10501">
        <ele>101</ele>
        <time>2019-10-27T12:38:46Z</time>
      </trkpt>
      <trkpt lat="44.05883" lon="4.10503">
        <ele>101</ele>
        <time>2019-10-27T12:38:48Z</time>
      </trkpt>
      <trkpt lat="44.05876" lon="4.10512">
        <ele>101</ele>
        <time>2019-10-27T12:38:52Z</time>
      </trkpt>
      <trkpt lat="44.05865" lon="4.10509">
        <ele>101</ele>
        <time>2019-10-27T12:38:56Z</time>
      </trkpt>
      <trkpt lat="44.05859" lon="4.105">
        <ele>101</ele>
        <time>2019-10-27T12:39:00Z</time>
      </trkpt>
      <trkpt lat="44.05856" lon="4.10487">
        <ele>101</ele>
        <time>2019-10-27T12:39:05Z</time>
      </trkpt>
      <trkpt lat="44.05847" lon="4.10488">
        <ele>102</ele>
        <time>2019-10-27T12:39:09Z</time>
      </trkpt>
      <trkpt lat="44.05838" lon="4.1049">
        <ele>102</ele>
        <time>2019-10-27T12:39:12Z</time>
      </trkpt>
      <trkpt lat="44.05817" lon="4.10492">
        <ele>102</ele>
        <time>2019-10-27T12:39:18Z</time>
      </trkpt>
      <trkpt lat="44.05802" lon="4.10494">
        <ele>102</ele>
        <time>2019-10-27T12:39:22Z</time>
      </trkpt>
      <trkpt lat="44.05787" lon="4.10501">
        <ele>103</ele>
        <time>2019-10-27T12:39:26Z</time>
      </trkpt>
      <trkpt lat="44.05775" lon="4.10508">
        <ele>103</ele>
        <time>2019-10-27T12:39:30Z</time>
      </trkpt>
      <trkpt lat="44.05771" lon="4.10514">
        <ele>103</ele>
        <time>2019-10-27T12:39:32Z</time>
      </trkpt>
      <trkpt lat="44.05747" lon="4.10518">
        <ele>103</ele>
        <time>2019-10-27T12:39:38Z</time>
      </trkpt>
      <trkpt lat="44.05728" lon="4.10523">
        <ele>103</ele>
        <time>2019-10-27T12:39:43Z</time>
      </trkpt>
      <trkpt lat="44.05709" lon="4.10531">
        <ele>103</ele>
        <time>2019-10-27T12:39:48Z</time>
      </trkpt>
      <trkpt lat="44.05692" lon="4.10541">
        <ele>103</ele>
        <time>2019-10-27T12:39:52Z</time>
      </trkpt>
      <trkpt lat="44.05673" lon="4.10551">
        <ele>103</ele>
        <time>2019-10-27T12:39:56Z</time>
      </trkpt>
      <trkpt lat="44.05655" lon="4.1056">
        <ele>103</ele>
        <time>2019-10-27T12:40:00Z</time>
      </trkpt>
      <trkpt lat="44.05652" lon="4.10562">
        <ele>103</ele>
        <time>2019-10-27T12:40:01Z</time>
      </trkpt>
      <trkpt lat="44.05648" lon="4.10564">
        <ele>103</ele>
        <time>2019-10-27T12:40:02Z</time>
      </trkpt>
      <trkpt lat="44.0564" lon="4.10572">
        <ele>103</ele>
        <time>2019-10-27T12:40:08Z</time>
      </trkpt>
      <trkpt lat="44.05638" lon="4.10573">
        <ele>103</ele>
        <time>2019-10-27T12:40:09Z</time>
      </trkpt>
      <trkpt lat="44.05635" lon="4.10574">
        <ele>103</ele>
        <time>2019-10-27T12:40:12Z</time>
      </trkpt>
      <trkpt lat="44.05628" lon="4.1057">
        <ele>103</ele>
        <time>2019-10-27T12:40:17Z</time>
      </trkpt>
      <trkpt lat="44.05623" lon="4.10573">
        <ele>103</ele>
        <time>2019-10-27T12:40:19Z</time>
      </trkpt>
      <trkpt lat="44.05603" lon="4.10581">
        <ele>103</ele>
        <time>2019-10-27T12:40:25Z</time>
      </trkpt>
      <trkpt lat="44.05583" lon="4.10586">
        <ele>103</ele>
        <time>2019-10-27T12:40:30Z</time>
      </trkpt>
      <trkpt lat="44.05563" lon="4.1059">
        <ele>103</ele>
        <time>2019-10-27T12:40:35Z</time>
      </trkpt>
      <trkpt lat="44.05558" lon="4.10591">
        <ele>103</ele>
        <time>2019-10-27T12:40:36Z</time>
      </trkpt>
      <trkpt lat="44.05536" lon="4.10598">
        <ele>103</ele>
        <time>2019-10-27T12:40:41Z</time>
      </trkpt>
      <trkpt lat="44.05519" lon="4.10606">
        <ele>103</ele>
        <time>2019-10-27T12:40:45Z</time>
      </trkpt>
      <trkpt lat="44.05501" lon="4.10614">
        <ele>103</ele>
        <time>2019-10-27T12:40:49Z</time>
      </trkpt>
      <trkpt lat="44.05484" lon="4.10622">
        <ele>103</ele>
        <time>2019-10-27T12:40:53Z</time>
      </trkpt>
      <trkpt lat="44.05466" lon="4.10631">
        <ele>103</ele>
        <time>2019-10-27T12:40:57Z</time>
      </trkpt>
      <trkpt lat="44.05449" lon="4.10641">
        <ele>103</ele>
        <time>2019-10-27T12:41:01Z</time>
      </trkpt>
      <trkpt lat="44.05432" lon="4.10653">
        <ele>103</ele>
        <time>2019-10-27T12:41:05Z</time>
      </trkpt>
      <trkpt lat="44.05415" lon="4.10666">
        <ele>103</ele>
        <time>2019-10-27T12:41:09Z</time>
      </trkpt>
      <trkpt lat="44.05407" lon="4.10671">
        <ele>103</ele>
        <time>2019-10-27T12:41:11Z</time>
      </trkpt>
      <trkpt lat="44.05386" lon="4.10677">
        <ele>103</ele>
        <time>2019-10-27T12:41:16Z</time>
      </trkpt>
      <trkpt lat="44.05364" lon="4.10687">
        <ele>103</ele>
        <time>2019-10-27T12:41:21Z</time>
      </trkpt>
      <trkpt lat="44.05345" lon="4.10695">
        <ele>103</ele>
        <time>2019-10-27T12:41:25Z</time>
      </trkpt>
      <trkpt lat="44.05326" lon="4.10705">
        <ele>103</ele>
        <time>2019-10-27T12:41:29Z</time>
      </trkpt>
      <trkpt lat="44.05322" lon="4.10708">
        <ele>103</ele>
        <time>2019-10-27T12:41:30Z</time>
      </trkpt>
      <trkpt lat="44.05313" lon="4.10717">
        <ele>103</ele>
        <time>2019-10-27T12:41:32Z</time>
      </trkpt>
      <trkpt lat="44.05301" lon="4.10725">
        <ele>103</ele>
        <time>2019-10-27T12:41:35Z</time>
      </trkpt>
      <trkpt lat="44.0528" lon="4.10747">
        <ele>104</ele>
        <time>2019-10-27T12:41:41Z</time>
      </trkpt>
      <trkpt lat="44.05267" lon="4.10764">
        <ele>104</ele>
        <time>2019-10-27T12:41:45Z</time>
      </trkpt>
      <trkpt lat="44.05257" lon="4.10778">
        <ele>104</ele>
        <time>2019-10-27T12:41:48Z</time>
      </trkpt>
      <trkpt lat="44.05247" lon="4.108">
        <ele>104</ele>
        <time>2019-10-27T12:41:52Z</time>
      </trkpt>
      <trkpt lat="44.05228" lon="4.10822">
        <ele>105</ele>
        <time>2019-10-27T12:41:57Z</time>
      </trkpt>
      <trkpt lat="44.0521" lon="4.10833">
        <ele>105</ele>
        <time>2019-10-27T12:42:01Z</time>
      </trkpt>
      <trkpt lat="44.05206" lon="4.10835">
        <ele>105</ele>
        <time>2019-10-27T12:42:02Z</time>
      </trkpt>
      <trkpt lat="44.05201" lon="4.10837">
        <ele>105</ele>
        <time>2019-10-27T12:42:03Z</time>
      </trkpt>
      <trkpt lat="44.05193" lon="4.10842">
        <ele>105</ele>
        <time>2019-10-27T12:42:05Z</time>
      </trkpt>
      <trkpt lat="44.0517" lon="4.10853">
        <ele>105</ele>
        <time>2019-10-27T12:42:10Z</time>
      </trkpt>
      <trkpt lat="44.05151" lon="4.10863">
        <ele>105</ele>
        <time>2019-10-27T12:42:14Z</time>
      </trkpt>
      <trkpt lat="44.05142" lon="4.10869">
        <ele>104</ele>
        <time>2019-10-27T12:42:16Z</time>
      </trkpt>
      <trkpt lat="44.05119" lon="4.10884">
        <ele>104</ele>
        <time>2019-10-27T12:42:21Z</time>
      </trkpt>
      <trkpt lat="44.05114" lon="4.10885">
        <ele>104</ele>
        <time>2019-10-27T12:42:22Z</time>
      </trkpt>
      <trkpt lat="44.051" lon="4.10889">
        <ele>103</ele>
        <time>2019-10-27T12:42:25Z</time>
      </trkpt>
      <trkpt lat="44.05078" lon="4.10888">
        <ele>103</ele>
        <time>2019-10-27T12:42:29Z</time>
      </trkpt>
      <trkpt lat="44.05074" lon="4.10887">
        <ele>103</ele>
        <time>2019-10-27T12:42:30Z</time>
      </trkpt>
      <trkpt lat="44.05054" lon="4.10886">
        <ele>102</ele>
        <time>2019-10-27T12:42:34Z</time>
      </trkpt>
      <trkpt lat="44.0505" lon="4.10885">
        <ele>102</ele>
        <time>2019-10-27T12:42:35Z</time>
      </trkpt>
      <trkpt lat="44.05007" lon="4.10872">
        <ele>101</ele>
        <time>2019-10-27T12:42:45Z</time>
      </trkpt>
      <trkpt lat="44.04967" lon="4.10874">
        <ele>100</ele>
        <time>2019-10-27T12:42:54Z</time>
      </trkpt>
      <trkpt lat="44.04963" lon="4.10873">
        <ele>100</ele>
        <time>2019-10-27T12:42:55Z</time>
      </trkpt>
      <trkpt lat="44.04949" lon="4.10873">
        <ele>100</ele>
        <time>2019-10-27T12:42:58Z</time>
      </trkpt>
      <trkpt lat="44.04935" lon="4.10876">
        <ele>99</ele>
        <time>2019-10-27T12:43:01Z</time>
      </trkpt>
      <trkpt lat="44.04911" lon="4.10889">
        <ele>99</ele>
        <time>2019-10-27T12:43:06Z</time>
      </trkpt>
      <trkpt lat="44.04893" lon="4.10899">
        <ele>99</ele>
        <time>2019-10-27T12:43:10Z</time>
      </trkpt>
      <trkpt lat="44.04888" lon="4.10901">
        <ele>99</ele>
        <time>2019-10-27T12:43:11Z</time>
      </trkpt>
      <trkpt lat="44.04873" lon="4.10904">
        <ele>99</ele>
        <time>2019-10-27T12:43:14Z</time>
      </trkpt>
      <trkpt lat="44.04848" lon="4.10907">
        <ele>99</ele>
        <time>2019-10-27T12:43:20Z</time>
      </trkpt>
      <trkpt lat="44.04843" lon="4.10908">
        <ele>99</ele>
        <time>2019-10-27T12:43:21Z</time>
      </trkpt>
      <trkpt lat="44.04829" lon="4.1091">
        <ele>99</ele>
        <time>2019-10-27T12:43:24Z</time>
      </trkpt>
      <trkpt lat="44.04812" lon="4.10909">
        <ele>99</ele>
        <time>2019-10-27T12:43:28Z</time>
      </trkpt>
      <trkpt lat="44.04801" lon="4.10914">
        <ele>99</ele>
        <time>2019-10-27T12:43:31Z</time>
      </trkpt>
      <trkpt lat="44.04795" lon="4.10914">
        <ele>100</ele>
        <time>2019-10-27T12:43:33Z</time>
      </trkpt>
      <trkpt lat="44.04779" lon="4.10909">
        <ele>100</ele>
        <time>2019-10-27T12:43:37Z</time>
      </trkpt>
      <trkpt lat="44.04756" lon="4.10911">
        <ele>100</ele>
        <time>2019-10-27T12:43:42Z</time>
      </trkpt>
      <trkpt lat="44.04746" lon="4.1091">
        <ele>100</ele>
        <time>2019-10-27T12:43:44Z</time>
      </trkpt>
      <trkpt lat="44.04733" lon="4.10904">
        <ele>100</ele>
        <time>2019-10-27T12:43:47Z</time>
      </trkpt>
      <trkpt lat="44.04721" lon="4.10896">
        <ele>101</ele>
        <time>2019-10-27T12:43:50Z</time>
      </trkpt>
      <trkpt lat="44.04712" lon="4.10891">
        <ele>101</ele>
        <time>2019-10-27T12:43:52Z</time>
      </trkpt>
      <trkpt lat="44.04694" lon="4.10884">
        <ele>102</ele>
        <time>2019-10-27T12:43:56Z</time>
      </trkpt>
      <trkpt lat="44.04676" lon="4.10884">
        <ele>102</ele>
        <time>2019-10-27T12:44:00Z</time>
      </trkpt>
      <trkpt lat="44.04659" lon="4.10893">
        <ele>102</ele>
        <time>2019-10-27T12:44:04Z</time>
      </trkpt>
      <trkpt lat="44.04651" lon="4.10893">
        <ele>102</ele>
        <time>2019-10-27T12:44:06Z</time>
      </trkpt>
      <trkpt lat="44.04644" lon="4.10894">
        <ele>102</ele>
        <time>2019-10-27T12:44:08Z</time>
      </trkpt>
      <trkpt lat="44.04625" lon="4.10885">
        <ele>103</ele>
        <time>2019-10-27T12:44:13Z</time>
      </trkpt>
      <trkpt lat="44.0461" lon="4.10884">
        <ele>103</ele>
        <time>2019-10-27T12:44:17Z</time>
      </trkpt>
      <trkpt lat="44.04601" lon="4.10877">
        <ele>103</ele>
        <time>2019-10-27T12:44:20Z</time>
      </trkpt>
      <trkpt lat="44.04578" lon="4.10866">
        <ele>103</ele>
        <time>2019-10-27T12:44:27Z</time>
      </trkpt>
      <trkpt lat="44.04562" lon="4.10862">
        <ele>103</ele>
        <time>2019-10-27T12:44:31Z</time>
      </trkpt>
      <trkpt lat="44.04543" lon="4.10862">
        <ele>103</ele>
        <time>2019-10-27T12:44:36Z</time>
      </trkpt>
      <trkpt lat="44.04525" lon="4.10874">
        <ele>103</ele>
        <time>2019-10-27T12:44:41Z</time>
      </trkpt>
      <trkpt lat="44.04507" lon="4.10886">
        <ele>103</ele>
        <time>2019-10-27T12:44:46Z</time>
      </trkpt>
      <trkpt lat="44.04503" lon="4.10886">
        <ele>103</ele>
        <time>2019-10-27T12:44:47Z</time>
      </trkpt>
      <trkpt lat="44.04486" lon="4.10893">
        <ele>103</ele>
        <time>2019-10-27T12:44:51Z</time>
      </trkpt>
      <trkpt lat="44.04482" lon="4.10896">
        <ele>103</ele>
        <time>2019-10-27T12:44:52Z</time>
      </trkpt>
      <trkpt lat="44.04463" lon="4.10909">
        <ele>103</ele>
        <time>2019-10-27T12:44:57Z</time>
      </trkpt>
      <trkpt lat="44.04442" lon="4.1092">
        <ele>103</ele>
        <time>2019-10-27T12:45:02Z</time>
      </trkpt>
      <trkpt lat="44.04438" lon="4.10922">
        <ele>103</ele>
        <time>2019-10-27T12:45:03Z</time>
      </trkpt>
      <trkpt lat="44.04421" lon="4.10933">
        <ele>103</ele>
        <time>2019-10-27T12:45:07Z</time>
      </trkpt>
      <trkpt lat="44.04403" lon="4.10954">
        <ele>103</ele>
        <time>2019-10-27T12:45:12Z</time>
      </trkpt>
      <trkpt lat="44.04399" lon="4.10959">
        <ele>103</ele>
        <time>2019-10-27T12:45:13Z</time>
      </trkpt>
      <trkpt lat="44.04389" lon="4.10973">
        <ele>103</ele>
        <time>2019-10-27T12:45:16Z</time>
      </trkpt>
      <trkpt lat="44.04367" lon="4.10986">
        <ele>103</ele>
        <time>2019-10-27T12:45:21Z</time>
      </trkpt>
      <trkpt lat="44.04362" lon="4.10987">
        <ele>103</ele>
        <time>2019-10-27T12:45:22Z</time>
      </trkpt>
      <trkpt lat="44.04339" lon="4.10987">
        <ele>103</ele>
        <time>2019-10-27T12:45:27Z</time>
      </trkpt>
      <trkpt lat="44.04335" lon="4.10988">
        <ele>103</ele>
        <time>2019-10-27T12:45:28Z</time>
      </trkpt>
      <trkpt lat="44.04326" lon="4.10997">
        <ele>103</ele>
        <time>2019-10-27T12:45:31Z</time>
      </trkpt>
      <trkpt lat="44.04323" lon="4.11002">
        <ele>103</ele>
        <time>2019-10-27T12:45:32Z</time>
      </trkpt>
      <trkpt lat="44.04291" lon="4.11057">
        <ele>103</ele>
        <time>2019-10-27T12:45:44Z</time>
      </trkpt>
      <trkpt lat="44.04273" lon="4.11075">
        <ele>103</ele>
        <time>2019-10-27T12:45:49Z</time>
      </trkpt>
      <trkpt lat="44.04257" lon="4.11091">
        <ele>103</ele>
        <time>2019-10-27T12:45:53Z</time>
      </trkpt>
      <trkpt lat="44.04241" lon="4.11107">
        <ele>103</ele>
        <time>2019-10-27T12:45:57Z</time>
      </trkpt>
      <trkpt lat="44.04225" lon="4.11124">
        <ele>102</ele>
        <time>2019-10-27T12:46:01Z</time>
      </trkpt>
      <trkpt lat="44.04218" lon="4.11135">
        <ele>102</ele>
        <time>2019-10-27T12:46:03Z</time>
      </trkpt>
      <trkpt lat="44.04196" lon="4.11156">
        <ele>101</ele>
        <time>2019-10-27T12:46:08Z</time>
      </trkpt>
      <trkpt lat="44.0418" lon="4.11174">
        <ele>101</ele>
        <time>2019-10-27T12:46:12Z</time>
      </trkpt>
      <trkpt lat="44.04165" lon="4.11196">
        <ele>101</ele>
        <time>2019-10-27T12:46:16Z</time>
      </trkpt>
      <trkpt lat="44.04158" lon="4.11207">
        <ele>101</ele>
        <time>2019-10-27T12:46:18Z</time>
      </trkpt>
      <trkpt lat="44.04138" lon="4.1123">
        <ele>101</ele>
        <time>2019-10-27T12:46:23Z</time>
      </trkpt>
      <trkpt lat="44.04135" lon="4.11234">
        <ele>101</ele>
        <time>2019-10-27T12:46:24Z</time>
      </trkpt>
      <trkpt lat="44.0412" lon="4.11251">
        <ele>101</ele>
        <time>2019-10-27T12:46:28Z</time>
      </trkpt>
      <trkpt lat="44.04117" lon="4.11255">
        <ele>101</ele>
        <time>2019-10-27T12:46:29Z</time>
      </trkpt>
      <trkpt lat="44.04096" lon="4.1126">
        <ele>101</ele>
        <time>2019-10-27T12:46:34Z</time>
      </trkpt>
      <trkpt lat="44.04082" lon="4.11254">
        <ele>100</ele>
        <time>2019-10-27T12:46:38Z</time>
      </trkpt>
      <trkpt lat="44.04077" lon="4.11254">
        <ele>100</ele>
        <time>2019-10-27T12:46:39Z</time>
      </trkpt>
      <trkpt lat="44.04073" lon="4.11254">
        <ele>100</ele>
        <time>2019-10-27T12:46:40Z</time>
      </trkpt>
      <trkpt lat="44.04054" lon="4.1125">
        <ele>99</ele>
        <time>2019-10-27T12:46:45Z</time>
      </trkpt>
      <trkpt lat="44.04041" lon="4.11248">
        <ele>99</ele>
        <time>2019-10-27T12:46:48Z</time>
      </trkpt>
      <trkpt lat="44.0402" lon="4.11247">
        <ele>99</ele>
        <time>2019-10-27T12:46:53Z</time>
      </trkpt>
      <trkpt lat="44.04016" lon="4.11247">
        <ele>99</ele>
        <time>2019-10-27T12:46:54Z</time>
      </trkpt>
      <trkpt lat="44.03997" lon="4.11254">
        <ele>99</ele>
        <time>2019-10-27T12:46:59Z</time>
      </trkpt>
      <trkpt lat="44.03985" lon="4.11261">
        <ele>99</ele>
        <time>2019-10-27T12:47:02Z</time>
      </trkpt>
      <trkpt lat="44.0397" lon="4.11269">
        <ele>99</ele>
        <time>2019-10-27T12:47:06Z</time>
      </trkpt>
      <trkpt lat="44.03953" lon="4.11278">
        <ele>99</ele>
        <time>2019-10-27T12:47:10Z</time>
      </trkpt>
      <trkpt lat="44.03934" lon="4.11287">
        <ele>99</ele>
        <time>2019-10-27T12:47:14Z</time>
      </trkpt>
      <trkpt lat="44.03918" lon="4.11284">
        <ele>99</ele>
        <time>2019-10-27T12:47:18Z</time>
      </trkpt>
      <trkpt lat="44.03914" lon="4.11275">
        <ele>99</ele>
        <time>2019-10-27T12:47:20Z</time>
      </trkpt>
      <trkpt lat="44.0391" lon="4.11267">
        <ele>99</ele>
        <time>2019-10-27T12:47:22Z</time>
      </trkpt>
      <trkpt lat="44.039" lon="4.11251">
        <ele>99</ele>
        <time>2019-10-27T12:47:27Z</time>
      </trkpt>
      <trkpt lat="44.03891" lon="4.11226">
        <ele>99</ele>
        <time>2019-10-27T12:47:32Z</time>
      </trkpt>
      <trkpt lat="44.03887" lon="4.11215">
        <ele>99</ele>
        <time>2019-10-27T12:47:34Z</time>
      </trkpt>
      <trkpt lat="44.03872" lon="4.11211">
        <ele>99</ele>
        <time>2019-10-27T12:47:38Z</time>
      </trkpt>
      <trkpt lat="44.03868" lon="4.11212">
        <ele>99</ele>
        <time>2019-10-27T12:47:39Z</time>
      </trkpt>
      <trkpt lat="44.03851" lon="4.11212">
        <ele>99</ele>
        <time>2019-10-27T12:47:43Z</time>
      </trkpt>
      <trkpt lat="44.03826" lon="4.11211">
        <ele>98</ele>
        <time>2019-10-27T12:47:49Z</time>
      </trkpt>
      <trkpt lat="44.03813" lon="4.11211">
        <ele>98</ele>
        <time>2019-10-27T12:47:52Z</time>
      </trkpt>
      <trkpt lat="44.03795" lon="4.11199">
        <ele>97</ele>
        <time>2019-10-27T12:47:57Z</time>
      </trkpt>
      <trkpt lat="44.03793" lon="4.11182">
        <ele>97</ele>
        <time>2019-10-27T12:48:00Z</time>
      </trkpt>
      <trkpt lat="44.03794" lon="4.11176">
        <ele>97</ele>
        <time>2019-10-27T12:48:01Z</time>
      </trkpt>
      <trkpt lat="44.03801" lon="4.1114">
        <ele>97</ele>
        <time>2019-10-27T12:48:07Z</time>
      </trkpt>
      <trkpt lat="44.03809" lon="4.11117">
        <ele>97</ele>
        <time>2019-10-27T12:48:11Z</time>
      </trkpt>
      <trkpt lat="44.03809" lon="4.1111">
        <ele>97</ele>
        <time>2019-10-27T12:48:12Z</time>
      </trkpt>
      <trkpt lat="44.03805" lon="4.11091">
        <ele>97</ele>
        <time>2019-10-27T12:48:15Z</time>
      </trkpt>
      <trkpt lat="44.03804" lon="4.11084">
        <ele>97</ele>
        <time>2019-10-27T12:48:16Z</time>
      </trkpt>
      <trkpt lat="44.03797" lon="4.11061">
        <ele>97</ele>
        <time>2019-10-27T12:48:20Z</time>
      </trkpt>
      <trkpt lat="44.03795" lon="4.11055">
        <ele>97</ele>
        <time>2019-10-27T12:48:21Z</time>
      </trkpt>
      <trkpt lat="44.03786" lon="4.11029">
        <ele>97</ele>
        <time>2019-10-27T12:48:26Z</time>
      </trkpt>
      <trkpt lat="44.03784" lon="4.11024">
        <ele>97</ele>
        <time>2019-10-27T12:48:27Z</time>
      </trkpt>
      <trkpt lat="44.03768" lon="4.11013">
        <ele>97</ele>
        <time>2019-10-27T12:48:32Z</time>
      </trkpt>
      <trkpt lat="44.03764" lon="4.11014">
        <ele>97</ele>
        <time>2019-10-27T12:48:33Z</time>
      </trkpt>
      <trkpt lat="44.0374" lon="4.11023">
        <ele>97</ele>
        <time>2019-10-27T12:48:39Z</time>
      </trkpt>
      <trkpt lat="44.03722" lon="4.1103">
        <ele>97</ele>
        <time>2019-10-27T12:48:44Z</time>
      </trkpt>
      <trkpt lat="44.03713" lon="4.11044">
        <ele>97</ele>
        <time>2019-10-27T12:48:48Z</time>
      </trkpt>
      <trkpt lat="44.03706" lon="4.11069">
        <ele>98</ele>
        <time>2019-10-27T12:48:54Z</time>
      </trkpt>
      <trkpt lat="44.03699" lon="4.11095">
        <ele>98</ele>
        <time>2019-10-27T12:49:00Z</time>
      </trkpt>
      <trkpt lat="44.03692" lon="4.1112">
        <ele>99</ele>
        <time>2019-10-27T12:49:06Z</time>
      </trkpt>
      <trkpt lat="44.03688" lon="4.11148">
        <ele>100</ele>
        <time>2019-10-27T12:49:11Z</time>
      </trkpt>
      <trkpt lat="44.03685" lon="4.11174">
        <ele>100</ele>
        <time>2019-10-27T12:49:15Z</time>
      </trkpt>
      <trkpt lat="44.03682" lon="4.11201">
        <ele>100</ele>
        <time>2019-10-27T12:49:19Z</time>
      </trkpt>
      <trkpt lat="44.03681" lon="4.11208">
        <ele>100</ele>
        <time>2019-10-27T12:49:20Z</time>
      </trkpt>
      <trkpt lat="44.03679" lon="4.11236">
        <ele>100</ele>
        <time>2019-10-27T12:49:24Z</time>
      </trkpt>
      <trkpt lat="44.03677" lon="4.11243">
        <ele>101</ele>
        <time>2019-10-27T12:49:25Z</time>
      </trkpt>
      <trkpt lat="44.0367" lon="4.11277">
        <ele>101</ele>
        <time>2019-10-27T12:49:30Z</time>
      </trkpt>
      <trkpt lat="44.03667" lon="4.1129">
        <ele>101</ele>
        <time>2019-10-27T12:49:32Z</time>
      </trkpt>
      <trkpt lat="44.03656" lon="4.11339">
        <ele>101</ele>
        <time>2019-10-27T12:49:39Z</time>
      </trkpt>
      <trkpt lat="44.03655" lon="4.11346">
        <ele>101</ele>
        <time>2019-10-27T12:49:40Z</time>
      </trkpt>
      <trkpt lat="44.03643" lon="4.11381">
        <ele>101</ele>
        <time>2019-10-27T12:49:45Z</time>
      </trkpt>
      <trkpt lat="44.03633" lon="4.11404">
        <ele>101</ele>
        <time>2019-10-27T12:49:49Z</time>
      </trkpt>
      <trkpt lat="44.03622" lon="4.11432">
        <ele>101</ele>
        <time>2019-10-27T12:49:53Z</time>
      </trkpt>
      <trkpt lat="44.03612" lon="4.11458">
        <ele>101</ele>
        <time>2019-10-27T12:49:57Z</time>
      </trkpt>
      <trkpt lat="44.03604" lon="4.11479">
        <ele>100</ele>
        <time>2019-10-27T12:50:00Z</time>
      </trkpt>
      <trkpt lat="44.03591" lon="4.11502">
        <ele>100</ele>
        <time>2019-10-27T12:50:04Z</time>
      </trkpt>
      <trkpt lat="44.03586" lon="4.1151">
        <ele>99</ele>
        <time>2019-10-27T12:50:06Z</time>
      </trkpt>
      <trkpt lat="44.03573" lon="4.11536">
        <ele>99</ele>
        <time>2019-10-27T12:50:11Z</time>
      </trkpt>
      <trkpt lat="44.03564" lon="4.1155">
        <ele>99</ele>
        <time>2019-10-27T12:50:14Z</time>
      </trkpt>
      <trkpt lat="44.03551" lon="4.11579">
        <ele>99</ele>
        <time>2019-10-27T12:50:20Z</time>
      </trkpt>
      <trkpt lat="44.03539" lon="4.11597">
        <ele>98</ele>
        <time>2019-10-27T12:50:24Z</time>
      </trkpt>
      <trkpt lat="44.03525" lon="4.11626">
        <ele>97</ele>
        <time>2019-10-27T12:50:30Z</time>
      </trkpt>
      <trkpt lat="44.03515" lon="4.11646">
        <ele>97</ele>
        <time>2019-10-27T12:50:34Z</time>
      </trkpt>
      <trkpt lat="44.03508" lon="4.11664">
        <ele>97</ele>
        <time>2019-10-27T12:50:37Z</time>
      </trkpt>
      <trkpt lat="44.03495" lon="4.11696">
        <ele>97</ele>
        <time>2019-10-27T12:50:43Z</time>
      </trkpt>
      <trkpt lat="44.0349" lon="4.11712">
        <ele>97</ele>
        <time>2019-10-27T12:50:46Z</time>
      </trkpt>
      <trkpt lat="44.03481" lon="4.11744">
        <ele>97</ele>
        <time>2019-10-27T12:50:52Z</time>
      </trkpt>
      <trkpt lat="44.03476" lon="4.11773">
        <ele>97</ele>
        <time>2019-10-27T12:50:57Z</time>
      </trkpt>
      <trkpt lat="44.03475" lon="4.11779">
        <ele>97</ele>
        <time>2019-10-27T12:50:58Z</time>
      </trkpt>
      <trkpt lat="44.03471" lon="4.11803">
        <ele>97</ele>
        <time>2019-10-27T12:51:02Z</time>
      </trkpt>
      <trkpt lat="44.03468" lon="4.11821">
        <ele>97</ele>
        <time>2019-10-27T12:51:05Z</time>
      </trkpt>
      <trkpt lat="44.03467" lon="4.1184">
        <ele>97</ele>
        <time>2019-10-27T12:51:08Z</time>
      </trkpt>
      <trkpt lat="44.03461" lon="4.11875">
        <ele>97</ele>
        <time>2019-10-27T12:51:14Z</time>
      </trkpt>
      <trkpt lat="44.03459" lon="4.11892">
        <ele>97</ele>
        <time>2019-10-27T12:51:17Z</time>
      </trkpt>
      <trkpt lat="44.03458" lon="4.11911">
        <ele>97</ele>
        <time>2019-10-27T12:51:20Z</time>
      </trkpt>
      <trkpt lat="44.03457" lon="4.11935">
        <ele>97</ele>
        <time>2019-10-27T12:51:24Z</time>
      </trkpt>
      <trkpt lat="44.03457" lon="4.11945">
        <ele>97</ele>
        <time>2019-10-27T12:51:26Z</time>
      </trkpt>
      <trkpt lat="44.03447" lon="4.11991">
        <ele>98</ele>
        <time>2019-10-27T12:51:38Z</time>
      </trkpt>
      <trkpt lat="44.03445" lon="4.12011">
        <ele>99</ele>
        <time>2019-10-27T12:51:44Z</time>
      </trkpt>
      <trkpt lat="44.03444" lon="4.12041">
        <ele>100</ele>
        <time>2019-10-27T12:51:51Z</time>
      </trkpt>
      <trkpt lat="44.03444" lon="4.12069">
        <ele>100</ele>
        <time>2019-10-27T12:51:56Z</time>
      </trkpt>
      <trkpt lat="44.03444" lon="4.12093">
        <ele>101</ele>
        <time>2019-10-27T12:52:00Z</time>
      </trkpt>
      <trkpt lat="44.03444" lon="4.121">
        <ele>101</ele>
        <time>2019-10-27T12:52:01Z</time>
      </trkpt>
      <trkpt lat="44.03442" lon="4.12126">
        <ele>102</ele>
        <time>2019-10-27T12:52:05Z</time>
      </trkpt>
      <trkpt lat="44.03443" lon="4.12133">
        <ele>102</ele>
        <time>2019-10-27T12:52:06Z</time>
      </trkpt>
      <trkpt lat="44.03442" lon="4.1214">
        <ele>102</ele>
        <time>2019-10-27T12:52:07Z</time>
      </trkpt>
      <trkpt lat="44.0344" lon="4.12166">
        <ele>102</ele>
        <time>2019-10-27T12:52:11Z</time>
      </trkpt>
      <trkpt lat="44.0344" lon="4.12172">
        <ele>102</ele>
        <time>2019-10-27T12:52:12Z</time>
      </trkpt>
      <trkpt lat="44.03439" lon="4.12193">
        <ele>102</ele>
        <time>2019-10-27T12:52:15Z</time>
      </trkpt>
      <trkpt lat="44.03437" lon="4.12209">
        <ele>103</ele>
        <time>2019-10-27T12:52:17Z</time>
      </trkpt>
      <trkpt lat="44.03435" lon="4.12246">
        <ele>104</ele>
        <time>2019-10-27T12:52:22Z</time>
      </trkpt>
      <trkpt lat="44.03434" lon="4.12253">
        <ele>104</ele>
        <time>2019-10-27T12:52:23Z</time>
      </trkpt>
      <trkpt lat="44.0343" lon="4.12279">
        <ele>104</ele>
        <time>2019-10-27T12:52:27Z</time>
      </trkpt>
      <trkpt lat="44.03426" lon="4.12311">
        <ele>105</ele>
        <time>2019-10-27T12:52:32Z</time>
      </trkpt>
      <trkpt lat="44.03424" lon="4.12317">
        <ele>105</ele>
        <time>2019-10-27T12:52:33Z</time>
      </trkpt>
      <trkpt lat="44.03418" lon="4.12345">
        <ele>105</ele>
        <time>2019-10-27T12:52:38Z</time>
      </trkpt>
      <trkpt lat="44.03417" lon="4.1235">
        <ele>105</ele>
        <time>2019-10-27T12:52:39Z</time>
      </trkpt>
      <trkpt lat="44.0341" lon="4.12364">
        <ele>105</ele>
        <time>2019-10-27T12:52:42Z</time>
      </trkpt>
      <trkpt lat="44.03407" lon="4.1237">
        <ele>105</ele>
        <time>2019-10-27T12:52:43Z</time>
      </trkpt>
      <trkpt lat="44.03403" lon="4.12381">
        <ele>105</ele>
        <time>2019-10-27T12:52:45Z</time>
      </trkpt>
      <trkpt lat="44.03394" lon="4.12397">
        <ele>105</ele>
        <time>2019-10-27T12:52:48Z</time>
      </trkpt>
      <trkpt lat="44.03379" lon="4.12414">
        <ele>105</ele>
        <time>2019-10-27T12:52:52Z</time>
      </trkpt>
      <trkpt lat="44.03362" lon="4.12419">
        <ele>105</ele>
        <time>2019-10-27T12:52:56Z</time>
      </trkpt>
      <trkpt lat="44.03355" lon="4.12419">
        <ele>105</ele>
        <time>2019-10-27T12:52:58Z</time>
      </trkpt>
      <trkpt lat="44.03342" lon="4.12408">
        <ele>105</ele>
        <time>2019-10-27T12:53:02Z</time>
      </trkpt>
      <trkpt lat="44.03339" lon="4.12405">
        <ele>105</ele>
        <time>2019-10-27T12:53:03Z</time>
      </trkpt>
      <trkpt lat="44.03325" lon="4.12387">
        <ele>105</ele>
        <time>2019-10-27T12:53:08Z</time>
      </trkpt>
      <trkpt lat="44.03314" lon="4.12367">
        <ele>105</ele>
        <time>2019-10-27T12:53:13Z</time>
      </trkpt>
      <trkpt lat="44.03304" lon="4.12346">
        <ele>104</ele>
        <time>2019-10-27T12:53:18Z</time>
      </trkpt>
      <trkpt lat="44.03294" lon="4.12322">
        <ele>104</ele>
        <time>2019-10-27T12:53:23Z</time>
      </trkpt>
      <trkpt lat="44.03284" lon="4.12299">
        <ele>103</ele>
        <time>2019-10-27T12:53:28Z</time>
      </trkpt>
      <trkpt lat="44.03281" lon="4.12283">
        <ele>103</ele>
        <time>2019-10-27T12:53:32Z</time>
      </trkpt>
      <trkpt lat="44.03279" lon="4.12267">
        <ele>103</ele>
        <time>2019-10-27T12:53:36Z</time>
      </trkpt>
      <trkpt lat="44.03277" lon="4.12243">
        <ele>103</ele>
        <time>2019-10-27T12:53:42Z</time>
      </trkpt>
      <trkpt lat="44.03274" lon="4.12221">
        <ele>103</ele>
        <time>2019-10-27T12:53:48Z</time>
      </trkpt>
      <trkpt lat="44.03271" lon="4.12202">
        <ele>103</ele>
        <time>2019-10-27T12:53:53Z</time>
      </trkpt>
      <trkpt lat="44.03266" lon="4.12176">
        <ele>103</ele>
        <time>2019-10-27T12:53:59Z</time>
      </trkpt>
      <trkpt lat="44.03263" lon="4.12157">
        <ele>103</ele>
        <time>2019-10-27T12:54:03Z</time>
      </trkpt>
      <trkpt lat="44.03259" lon="4.12133">
        <ele>103</ele>
        <time>2019-10-27T12:54:08Z</time>
      </trkpt>
      <trkpt lat="44.03255" lon="4.12114">
        <ele>103</ele>
        <time>2019-10-27T12:54:12Z</time>
      </trkpt>
      <trkpt lat="44.03251" lon="4.12086">
        <ele>103</ele>
        <time>2019-10-27T12:54:18Z</time>
      </trkpt>
      <trkpt lat="44.03246" lon="4.12058">
        <ele>103</ele>
        <time>2019-10-27T12:54:24Z</time>
      </trkpt>
      <trkpt lat="44.03241" lon="4.12033">
        <ele>103</ele>
        <time>2019-10-27T12:54:29Z</time>
      </trkpt>
      <trkpt lat="44.03237" lon="4.12004">
        <ele>103</ele>
        <time>2019-10-27T12:54:35Z</time>
      </trkpt>
      <trkpt lat="44.03229" lon="4.11973">
        <ele>103</ele>
        <time>2019-10-27T12:54:41Z</time>
      </trkpt>
      <trkpt lat="44.03227" lon="4.11968">
        <ele>103</ele>
        <time>2019-10-27T12:54:42Z</time>
      </trkpt>
      <trkpt lat="44.03225" lon="4.11947">
        <ele>103</ele>
        <time>2019-10-27T12:54:46Z</time>
      </trkpt>
      <trkpt lat="44.03224" lon="4.11937">
        <ele>103</ele>
        <time>2019-10-27T12:54:48Z</time>
      </trkpt>
      <trkpt lat="44.0322" lon="4.11904">
        <ele>103</ele>
        <time>2019-10-27T12:54:54Z</time>
      </trkpt>
      <trkpt lat="44.03216" lon="4.11882">
        <ele>103</ele>
        <time>2019-10-27T12:54:58Z</time>
      </trkpt>
      <trkpt lat="44.03213" lon="4.11866">
        <ele>103</ele>
        <time>2019-10-27T12:55:01Z</time>
      </trkpt>
      <trkpt lat="44.03212" lon="4.11844">
        <ele>103</ele>
        <time>2019-10-27T12:55:05Z</time>
      </trkpt>
      <trkpt lat="44.03211" lon="4.11833">
        <ele>103</ele>
        <time>2019-10-27T12:55:07Z</time>
      </trkpt>
      <trkpt lat="44.0321" lon="4.11827">
        <ele>103</ele>
        <time>2019-10-27T12:55:08Z</time>
      </trkpt>
      <trkpt lat="44.03202" lon="4.11795">
        <ele>102</ele>
        <time>2019-10-27T12:55:14Z</time>
      </trkpt>
      <trkpt lat="44.03196" lon="4.11769">
        <ele>102</ele>
        <time>2019-10-27T12:55:19Z</time>
      </trkpt>
      <trkpt lat="44.03188" lon="4.11743">
        <ele>101</ele>
        <time>2019-10-27T12:55:24Z</time>
      </trkpt>
      <trkpt lat="44.03186" lon="4.11738">
        <ele>101</ele>
        <time>2019-10-27T12:55:25Z</time>
      </trkpt>
      <trkpt lat="44.03178" lon="4.11713">
        <ele>101</ele>
        <time>2019-10-27T12:55:30Z</time>
      </trkpt>
      <trkpt lat="44.03174" lon="4.11703">
        <ele>101</ele>
        <time>2019-10-27T12:55:32Z</time>
      </trkpt>
      <trkpt lat="44.0317" lon="4.11684">
        <ele>101</ele>
        <time>2019-10-27T12:55:35Z</time>
      </trkpt>
      <trkpt lat="44.03165" lon="4.11656">
        <ele>101</ele>
        <time>2019-10-27T12:55:40Z</time>
      </trkpt>
      <trkpt lat="44.03162" lon="4.11632">
        <ele>101</ele>
        <time>2019-10-27T12:55:44Z</time>
      </trkpt>
      <trkpt lat="44.03157" lon="4.11616">
        <ele>101</ele>
        <time>2019-10-27T12:55:47Z</time>
      </trkpt>
      <trkpt lat="44.03149" lon="4.11581">
        <ele>101</ele>
        <time>2019-10-27T12:55:53Z</time>
      </trkpt>
      <trkpt lat="44.03147" lon="4.1157">
        <ele>101</ele>
        <time>2019-10-27T12:55:55Z</time>
      </trkpt>
      <trkpt lat="44.03144" lon="4.11542">
        <ele>101</ele>
        <time>2019-10-27T12:56:00Z</time>
      </trkpt>
      <trkpt lat="44.03139" lon="4.1152">
        <ele>101</ele>
        <time>2019-10-27T12:56:04Z</time>
      </trkpt>
      <trkpt lat="44.03137" lon="4.11488">
        <ele>101</ele>
        <time>2019-10-27T12:56:11Z</time>
      </trkpt>
      <trkpt lat="44.03135" lon="4.11459">
        <ele>102</ele>
        <time>2019-10-27T12:56:18Z</time>
      </trkpt>
      <trkpt lat="44.0313" lon="4.11433">
        <ele>102</ele>
        <time>2019-10-27T12:56:24Z</time>
      </trkpt>
      <trkpt lat="44.03125" lon="4.11405">
        <ele>103</ele>
        <time>2019-10-27T12:56:30Z</time>
      </trkpt>
      <trkpt lat="44.03121" lon="4.1138">
        <ele>103</ele>
        <time>2019-10-27T12:56:35Z</time>
      </trkpt>
      <trkpt lat="44.03117" lon="4.11354">
        <ele>103</ele>
        <time>2019-10-27T12:56:40Z</time>
      </trkpt>
      <trkpt lat="44.03109" lon="4.11313">
        <ele>103</ele>
        <time>2019-10-27T12:56:48Z</time>
      </trkpt>
      <trkpt lat="44.03106" lon="4.11286">
        <ele>103</ele>
        <time>2019-10-27T12:56:53Z</time>
      </trkpt>
      <trkpt lat="44.03107" lon="4.11261">
        <ele>103</ele>
        <time>2019-10-27T12:56:58Z</time>
      </trkpt>
      <trkpt lat="44.03108" lon="4.11232">
        <ele>103</ele>
        <time>2019-10-27T12:57:04Z</time>
      </trkpt>
      <trkpt lat="44.0311" lon="4.11206">
        <ele>103</ele>
        <time>2019-10-27T12:57:09Z</time>
      </trkpt>
      <trkpt lat="44.03112" lon="4.11179">
        <ele>103</ele>
        <time>2019-10-27T12:57:14Z</time>
      </trkpt>
      <trkpt lat="44.0311" lon="4.11164">
        <ele>103</ele>
        <time>2019-10-27T12:57:17Z</time>
      </trkpt>
      <trkpt lat="44.03095" lon="4.11157">
        <ele>103</ele>
        <time>2019-10-27T12:57:21Z</time>
      </trkpt>
      <trkpt lat="44.03086" lon="4.11158">
        <ele>103</ele>
        <time>2019-10-27T12:57:24Z</time>
      </trkpt>
      <trkpt lat="44.03073" lon="4.11154">
        <ele>103</ele>
        <time>2019-10-27T12:57:30Z</time>
      </trkpt>
      <trkpt lat="44.03059" lon="4.11148">
        <ele>103</ele>
        <time>2019-10-27T12:57:34Z</time>
      </trkpt>
      <trkpt lat="44.03038" lon="4.11148">
        <ele>103</ele>
        <time>2019-10-27T12:57:40Z</time>
      </trkpt>
      <trkpt lat="44.03017" lon="4.11148">
        <ele>103</ele>
        <time>2019-10-27T12:57:45Z</time>
      </trkpt>
      <trkpt lat="44.02999" lon="4.11148">
        <ele>103</ele>
        <time>2019-10-27T12:57:49Z</time>
      </trkpt>
      <trkpt lat="44.0298" lon="4.11148">
        <ele>103</ele>
        <time>2019-10-27T12:57:53Z</time>
      </trkpt>
      <trkpt lat="44.0296" lon="4.11148">
        <ele>103</ele>
        <time>2019-10-27T12:57:57Z</time>
      </trkpt>
      <trkpt lat="44.0294" lon="4.11148">
        <ele>103</ele>
        <time>2019-10-27T12:58:01Z</time>
      </trkpt>
      <trkpt lat="44.0292" lon="4.11148">
        <ele>103</ele>
        <time>2019-10-27T12:58:05Z</time>
      </trkpt>
      <trkpt lat="44.02899" lon="4.11148">
        <ele>103</ele>
        <time>2019-10-27T12:58:09Z</time>
      </trkpt>
      <trkpt lat="44.02877" lon="4.11149">
        <ele>103</ele>
        <time>2019-10-27T12:58:13Z</time>
      </trkpt>
      <trkpt lat="44.02854" lon="4.11149">
        <ele>103</ele>
        <time>2019-10-27T12:58:17Z</time>
      </trkpt>
      <trkpt lat="44.02831" lon="4.11149">
        <ele>103</ele>
        <time>2019-10-27T12:58:21Z</time>
      </trkpt>
      <trkpt lat="44.02807" lon="4.11149">
        <ele>103</ele>
        <time>2019-10-27T12:58:25Z</time>
      </trkpt>
      <trkpt lat="44.02794" lon="4.1115">
        <ele>103</ele>
        <time>2019-10-27T12:58:27Z</time>
      </trkpt>
      <trkpt lat="44.02779" lon="4.11145">
        <ele>103</ele>
        <time>2019-10-27T12:58:30Z</time>
      </trkpt>
      <trkpt lat="44.02762" lon="4.11143">
        <ele>103</ele>
        <time>2019-10-27T12:58:34Z</time>
      </trkpt>
      <trkpt lat="44.02755" lon="4.11149">
        <ele>103</ele>
        <time>2019-10-27T12:58:39Z</time>
      </trkpt>
      <trkpt lat="44.0275" lon="4.11176">
        <ele>103</ele>
        <time>2019-10-27T12:58:44Z</time>
      </trkpt>
      <trkpt lat="44.02747" lon="4.11203">
        <ele>103</ele>
        <time>2019-10-27T12:58:47Z</time>
      </trkpt>
      <trkpt lat="44.02743" lon="4.11233">
        <ele>103</ele>
        <time>2019-10-27T12:58:50Z</time>
      </trkpt>
      <trkpt lat="44.02742" lon="4.11261">
        <ele>103</ele>
        <time>2019-10-27T12:58:53Z</time>
      </trkpt>
      <trkpt lat="44.02742" lon="4.11269">
        <ele>102</ele>
        <time>2019-10-27T12:58:54Z</time>
      </trkpt>
      <trkpt lat="44.02748" lon="4.11306">
        <ele>102</ele>
        <time>2019-10-27T12:58:58Z</time>
      </trkpt>
      <trkpt lat="44.02749" lon="4.11314">
        <ele>102</ele>
        <time>2019-10-27T12:58:59Z</time>
      </trkpt>
      <trkpt lat="44.0275" lon="4.11347">
        <ele>102</ele>
        <time>2019-10-27T12:59:03Z</time>
      </trkpt>
      <trkpt lat="44.02749" lon="4.11372">
        <ele>101</ele>
        <time>2019-10-27T12:59:06Z</time>
      </trkpt>
      <trkpt lat="44.02749" lon="4.11398">
        <ele>101</ele>
        <time>2019-10-27T12:59:09Z</time>
      </trkpt>
      <trkpt lat="44.02749" lon="4.11432">
        <ele>101</ele>
        <time>2019-10-27T12:59:13Z</time>
      </trkpt>
      <trkpt lat="44.02749" lon="4.11457">
        <ele>101</ele>
        <time>2019-10-27T12:59:16Z</time>
      </trkpt>
      <trkpt lat="44.02749" lon="4.11466">
        <ele>101</ele>
        <time>2019-10-27T12:59:17Z</time>
      </trkpt>
      <trkpt lat="44.02758" lon="4.11486">
        <ele>101</ele>
        <time>2019-10-27T12:59:20Z</time>
      </trkpt>
      <trkpt lat="44.02768" lon="4.11497">
        <ele>101</ele>
        <time>2019-10-27T12:59:22Z</time>
      </trkpt>
      <trkpt lat="44.02786" lon="4.11518">
        <ele>101</ele>
        <time>2019-10-27T12:59:26Z</time>
      </trkpt>
      <trkpt lat="44.02801" lon="4.11553">
        <ele>101</ele>
        <time>2019-10-27T12:59:31Z</time>
      </trkpt>
      <trkpt lat="44.02796" lon="4.11608">
        <ele>101</ele>
        <time>2019-10-27T12:59:38Z</time>
      </trkpt>
      <trkpt lat="44.02791" lon="4.11639">
        <ele>100</ele>
        <time>2019-10-27T12:59:42Z</time>
      </trkpt>
      <trkpt lat="44.02785" lon="4.11671">
        <ele>100</ele>
        <time>2019-10-27T12:59:46Z</time>
      </trkpt>
      <trkpt lat="44.0278" lon="4.11701">
        <ele>99</ele>
        <time>2019-10-27T12:59:50Z</time>
      </trkpt>
      <trkpt lat="44.02774" lon="4.11732">
        <ele>99</ele>
        <time>2019-10-27T12:59:54Z</time>
      </trkpt>
      <trkpt lat="44.02768" lon="4.11762">
        <ele>99</ele>
        <time>2019-10-27T12:59:58Z</time>
      </trkpt>
      <trkpt lat="44.02762" lon="4.11792">
        <ele>99</ele>
        <time>2019-10-27T13:00:02Z</time>
      </trkpt>
      <trkpt lat="44.02756" lon="4.11821">
        <ele>99</ele>
        <time>2019-10-27T13:00:06Z</time>
      </trkpt>
      <trkpt lat="44.02753" lon="4.11851">
        <ele>99</ele>
        <time>2019-10-27T13:00:10Z</time>
      </trkpt>
      <trkpt lat="44.02751" lon="4.11882">
        <ele>99</ele>
        <time>2019-10-27T13:00:14Z</time>
      </trkpt>
      <trkpt lat="44.02751" lon="4.11888">
        <ele>99</ele>
        <time>2019-10-27T13:00:15Z</time>
      </trkpt>
      <trkpt lat="44.02752" lon="4.11903">
        <ele>99</ele>
        <time>2019-10-27T13:00:17Z</time>
      </trkpt>
      <trkpt lat="44.02749" lon="4.11926">
        <ele>99</ele>
        <time>2019-10-27T13:00:21Z</time>
      </trkpt>
      <trkpt lat="44.02744" lon="4.11941">
        <ele>99</ele>
        <time>2019-10-27T13:00:24Z</time>
      </trkpt>
      <trkpt lat="44.02738" lon="4.11958">
        <ele>99</ele>
        <time>2019-10-27T13:00:27Z</time>
      </trkpt>
      <trkpt lat="44.02735" lon="4.11974">
        <ele>99</ele>
        <time>2019-10-27T13:00:31Z</time>
      </trkpt>
      <trkpt lat="44.02736" lon="4.12006">
        <ele>99</ele>
        <time>2019-10-27T13:00:35Z</time>
      </trkpt>
      <trkpt lat="44.02736" lon="4.12014">
        <ele>99</ele>
        <time>2019-10-27T13:00:36Z</time>
      </trkpt>
      <trkpt lat="44.02739" lon="4.12033">
        <ele>99</ele>
        <time>2019-10-27T13:00:39Z</time>
      </trkpt>
      <trkpt lat="44.02746" lon="4.12062">
        <ele>99</ele>
        <time>2019-10-27T13:00:44Z</time>
      </trkpt>
      <trkpt lat="44.02751" lon="4.12083">
        <ele>99</ele>
        <time>2019-10-27T13:00:48Z</time>
      </trkpt>
      <trkpt lat="44.02756" lon="4.12116">
        <ele>99</ele>
        <time>2019-10-27T13:00:53Z</time>
      </trkpt>
      <trkpt lat="44.02758" lon="4.12128">
        <ele>99</ele>
        <time>2019-10-27T13:00:55Z</time>
      </trkpt>
      <trkpt lat="44.02759" lon="4.1215">
        <ele>99</ele>
        <time>2019-10-27T13:00:59Z</time>
      </trkpt>
      <trkpt lat="44.0276" lon="4.12181">
        <ele>99</ele>
        <time>2019-10-27T13:01:05Z</time>
      </trkpt>
      <trkpt lat="44.02767" lon="4.1223">
        <ele>99</ele>
        <time>2019-10-27T13:01:15Z</time>
      </trkpt>
      <trkpt lat="44.0277" lon="4.12257">
        <ele>99</ele>
        <time>2019-10-27T13:01:20Z</time>
      </trkpt>
      <trkpt lat="44.02771" lon="4.12286">
        <ele>99</ele>
        <time>2019-10-27T13:01:25Z</time>
      </trkpt>
      <trkpt lat="44.02771" lon="4.12292">
        <ele>99</ele>
        <time>2019-10-27T13:01:26Z</time>
      </trkpt>
      <trkpt lat="44.02764" lon="4.12343">
        <ele>98</ele>
        <time>2019-10-27T13:01:35Z</time>
      </trkpt>
      <trkpt lat="44.02758" lon="4.12364">
        <ele>98</ele>
        <time>2019-10-27T13:01:39Z</time>
      </trkpt>
      <trkpt lat="44.02754" lon="4.12385">
        <ele>98</ele>
        <time>2019-10-27T13:01:43Z</time>
      </trkpt>
      <trkpt lat="44.02744" lon="4.12412">
        <ele>97</ele>
        <time>2019-10-27T13:01:49Z</time>
      </trkpt>
      <trkpt lat="44.02727" lon="4.12422">
        <ele>97</ele>
        <time>2019-10-27T13:01:54Z</time>
      </trkpt>
      <trkpt lat="44.02707" lon="4.1243">
        <ele>97</ele>
        <time>2019-10-27T13:02:00Z</time>
      </trkpt>
      <trkpt lat="44.02695" lon="4.12436">
        <ele>97</ele>
        <time>2019-10-27T13:02:05Z</time>
      </trkpt>
      <trkpt lat="44.0268" lon="4.12443">
        <ele>97</ele>
        <time>2019-10-27T13:02:11Z</time>
      </trkpt>
      <trkpt lat="44.02669" lon="4.12452">
        <ele>97</ele>
        <time>2019-10-27T13:02:16Z</time>
      </trkpt>
      <trkpt lat="44.02667" lon="4.12454">
        <ele>97</ele>
        <time>2019-10-27T13:02:17Z</time>
      </trkpt>
      <trkpt lat="44.02664" lon="4.12469">
        <ele>97</ele>
        <time>2019-10-27T13:02:23Z</time>
      </trkpt>
      <trkpt lat="44.02656" lon="4.12476">
        <ele>97</ele>
        <time>2019-10-27T13:02:28Z</time>
      </trkpt>
      <trkpt lat="44.02649" lon="4.12482">
        <ele>97</ele>
        <time>2019-10-27T13:02:34Z</time>
      </trkpt>
      <trkpt lat="44.02643" lon="4.12489">
        <ele>97</ele>
        <time>2019-10-27T13:02:40Z</time>
      </trkpt>
      <trkpt lat="44.02636" lon="4.12495">
        <ele>97</ele>
        <time>2019-10-27T13:02:46Z</time>
      </trkpt>
      <trkpt lat="44.02635" lon="4.12495">
        <ele>97</ele>
        <time>2019-10-27T13:02:47Z</time>
      </trkpt>
      <trkpt lat="44.0263" lon="4.12502">
        <ele>97</ele>
        <time>2019-10-27T13:02:54Z</time>
      </trkpt>
      <trkpt lat="44.02627" lon="4.12506">
        <ele>97</ele>
        <time>2019-10-27T13:02:57Z</time>
      </trkpt>
      <trkpt lat="44.02621" lon="4.12511">
        <ele>97</ele>
        <time>2019-10-27T13:03:07Z</time>
      </trkpt>
      <trkpt lat="44.02619" lon="4.12511">
        <ele>97</ele>
        <time>2019-10-27T13:03:08Z</time>
      </trkpt>
      <trkpt lat="44.02614" lon="4.12515">
        <ele>97</ele>
        <time>2019-10-27T13:03:13Z</time>
      </trkpt>
      <trkpt lat="44.02608" lon="4.12521">
        <ele>97</ele>
        <time>2019-10-27T13:03:20Z</time>
      </trkpt>
      <trkpt lat="44.02603" lon="4.12527">
        <ele>98</ele>
        <time>2019-10-27T13:03:25Z</time>
      </trkpt>
      <trkpt lat="44.026" lon="4.1253">
        <ele>98</ele>
        <time>2019-10-27T13:03:28Z</time>
      </trkpt>
      <trkpt lat="44.0259" lon="4.1254">
        <ele>99</ele>
        <time>2019-10-27T13:03:40Z</time>
      </trkpt>
      <trkpt lat="44.02589" lon="4.12542">
        <ele>99</ele>
        <time>2019-10-27T13:03:42Z</time>
      </trkpt>
      <trkpt lat="44.02585" lon="4.12545">
        <ele>99</ele>
        <time>2019-10-27T13:03:46Z</time>
      </trkpt>
      <trkpt lat="44.02578" lon="4.12552">
        <ele>99</ele>
        <time>2019-10-27T13:03:54Z</time>
      </trkpt>
      <trkpt lat="44.02576" lon="4.12554">
        <ele>99</ele>
        <time>2019-10-27T13:03:56Z</time>
      </trkpt>
      <trkpt lat="44.02567" lon="4.12563">
        <ele>99</ele>
        <time>2019-10-27T13:04:04Z</time>
      </trkpt>
      <trkpt lat="44.02561" lon="4.12567">
        <ele>100</ele>
        <time>2019-10-27T13:04:10Z</time>
      </trkpt>
      <trkpt lat="44.02556" lon="4.12572">
        <ele>100</ele>
        <time>2019-10-27T13:04:15Z</time>
      </trkpt>
      <trkpt lat="44.02549" lon="4.12577">
        <ele>101</ele>
        <time>2019-10-27T13:04:20Z</time>
      </trkpt>
      <trkpt lat="44.02545" lon="4.12581">
        <ele>101</ele>
        <time>2019-10-27T13:04:24Z</time>
      </trkpt>
      <trkpt lat="44.02542" lon="4.12583">
        <ele>102</ele>
        <time>2019-10-27T13:04:26Z</time>
      </trkpt>
      <trkpt lat="44.02536" lon="4.1259">
        <ele>102</ele>
        <time>2019-10-27T13:04:33Z</time>
      </trkpt>
      <trkpt lat="44.02532" lon="4.12595">
        <ele>104</ele>
        <time>2019-10-27T13:04:39Z</time>
      </trkpt>
      <trkpt lat="44.02532" lon="4.12597">
        <ele>104</ele>
        <time>2019-10-27T13:04:40Z</time>
      </trkpt>
      <trkpt lat="44.02533" lon="4.12598">
        <ele>104</ele>
        <time>2019-10-27T13:04:44Z</time>
      </trkpt>
      <trkpt lat="44.02532" lon="4.12603">
        <ele>106</ele>
        <time>2019-10-27T13:04:52Z</time>
      </trkpt>
      <trkpt lat="44.02535" lon="4.1261">
        <ele>107</ele>
        <time>2019-10-27T13:04:56Z</time>
      </trkpt>
      <trkpt lat="44.02538" lon="4.12621">
        <ele>108</ele>
        <time>2019-10-27T13:05:02Z</time>
      </trkpt>
      <trkpt lat="44.02537" lon="4.12637">
        <ele>109</ele>
        <time>2019-10-27T13:05:08Z</time>
      </trkpt>
      <trkpt lat="44.02532" lon="4.12654">
        <ele>110</ele>
        <time>2019-10-27T13:05:13Z</time>
      </trkpt>
      <trkpt lat="44.02525" lon="4.12668">
        <ele>110</ele>
        <time>2019-10-27T13:05:18Z</time>
      </trkpt>
      <trkpt lat="44.02525" lon="4.12671">
        <ele>111</ele>
        <time>2019-10-27T13:05:19Z</time>
      </trkpt>
      <trkpt lat="44.02527" lon="4.12679">
        <ele>111</ele>
        <time>2019-10-27T13:05:23Z</time>
      </trkpt>
      <trkpt lat="44.02535" lon="4.12679">
        <ele>112</ele>
        <time>2019-10-27T13:05:28Z</time>
      </trkpt>
      <trkpt lat="44.02537" lon="4.1268">
        <ele>112</ele>
        <time>2019-10-27T13:05:30Z</time>
      </trkpt>
      <trkpt lat="44.02544" lon="4.12683">
        <ele>113</ele>
        <time>2019-10-27T13:05:34Z</time>
      </trkpt>
      <trkpt lat="44.02547" lon="4.12696">
        <ele>114</ele>
        <time>2019-10-27T13:05:40Z</time>
      </trkpt>
      <trkpt lat="44.02553" lon="4.12716">
        <ele>115</ele>
        <time>2019-10-27T13:05:48Z</time>
      </trkpt>
      <trkpt lat="44.02552" lon="4.12722">
        <ele>115</ele>
        <time>2019-10-27T13:05:50Z</time>
      </trkpt>
      <trkpt lat="44.02556" lon="4.12743">
        <ele>116</ele>
        <time>2019-10-27T13:05:57Z</time>
      </trkpt>
      <trkpt lat="44.02558" lon="4.12745">
        <ele>116</ele>
        <time>2019-10-27T13:06:01Z</time>
      </trkpt>
      <trkpt lat="44.02559" lon="4.12747">
        <ele>116</ele>
        <time>2019-10-27T13:06:03Z</time>
      </trkpt>
      <trkpt lat="44.0257" lon="4.1275">
        <ele>116</ele>
        <time>2019-10-27T13:06:10Z</time>
      </trkpt>
      <trkpt lat="44.02573" lon="4.12753">
        <ele>116</ele>
        <time>2019-10-27T13:06:14Z</time>
      </trkpt>
      <trkpt lat="44.02575" lon="4.12754">
        <ele>116</ele>
        <time>2019-10-27T13:06:16Z</time>
      </trkpt>
      <trkpt lat="44.02577" lon="4.12755">
        <ele>116</ele>
        <time>2019-10-27T13:06:18Z</time>
      </trkpt>
      <trkpt lat="44.0258" lon="4.12759">
        <ele>116</ele>
        <time>2019-10-27T13:06:23Z</time>
      </trkpt>
      <trkpt lat="44.02581" lon="4.12763">
        <ele>116</ele>
        <time>2019-10-27T13:06:27Z</time>
      </trkpt>
      <trkpt lat="44.02585" lon="4.12767">
        <ele>116</ele>
        <time>2019-10-27T13:06:33Z</time>
      </trkpt>
      <trkpt lat="44.02586" lon="4.12774">
        <ele>117</ele>
        <time>2019-10-27T13:06:39Z</time>
      </trkpt>
      <trkpt lat="44.02587" lon="4.12776">
        <ele>117</ele>
        <time>2019-10-27T13:06:41Z</time>
      </trkpt>
      <trkpt lat="44.02589" lon="4.12777">
        <ele>117</ele>
        <time>2019-10-27T13:06:43Z</time>
      </trkpt>
      <trkpt lat="44.02591" lon="4.12784">
        <ele>118</ele>
        <time>2019-10-27T13:06:49Z</time>
      </trkpt>
      <trkpt lat="44.02592" lon="4.12794">
        <ele>119</ele>
        <time>2019-10-27T13:06:56Z</time>
      </trkpt>
      <trkpt lat="44.02592" lon="4.12796">
        <ele>119</ele>
        <time>2019-10-27T13:06:57Z</time>
      </trkpt>
      <trkpt lat="44.02592" lon="4.12799">
        <ele>119</ele>
        <time>2019-10-27T13:06:59Z</time>
      </trkpt>
      <trkpt lat="44.02593" lon="4.12806">
        <ele>120</ele>
        <time>2019-10-27T13:07:05Z</time>
      </trkpt>
      <trkpt lat="44.02594" lon="4.12808">
        <ele>120</ele>
        <time>2019-10-27T13:07:06Z</time>
      </trkpt>
      <trkpt lat="44.02595" lon="4.1281">
        <ele>121</ele>
        <time>2019-10-27T13:07:08Z</time>
      </trkpt>
      <trkpt lat="44.02598" lon="4.12813">
        <ele>121</ele>
        <time>2019-10-27T13:07:12Z</time>
      </trkpt>
      <trkpt lat="44.02601" lon="4.12819">
        <ele>122</ele>
        <time>2019-10-27T13:07:17Z</time>
      </trkpt>
      <trkpt lat="44.02605" lon="4.12823">
        <ele>123</ele>
        <time>2019-10-27T13:07:22Z</time>
      </trkpt>
      <trkpt lat="44.02609" lon="4.1283">
        <ele>123</ele>
        <time>2019-10-27T13:07:28Z</time>
      </trkpt>
      <trkpt lat="44.02612" lon="4.12836">
        <ele>124</ele>
        <time>2019-10-27T13:07:33Z</time>
      </trkpt>
      <trkpt lat="44.02613" lon="4.12842">
        <ele>124</ele>
        <time>2019-10-27T13:07:37Z</time>
      </trkpt>
      <trkpt lat="44.02613" lon="4.12851">
        <ele>124</ele>
        <time>2019-10-27T13:07:43Z</time>
      </trkpt>
      <trkpt lat="44.02612" lon="4.12861">
        <ele>124</ele>
        <time>2019-10-27T13:07:50Z</time>
      </trkpt>
      <trkpt lat="44.02611" lon="4.12868">
        <ele>124</ele>
        <time>2019-10-27T13:07:54Z</time>
      </trkpt>
      <trkpt lat="44.0261" lon="4.12879">
        <ele>125</ele>
        <time>2019-10-27T13:08:02Z</time>
      </trkpt>
      <trkpt lat="44.02612" lon="4.12889">
        <ele>126</ele>
        <time>2019-10-27T13:08:09Z</time>
      </trkpt>
      <trkpt lat="44.02612" lon="4.12891">
        <ele>126</ele>
        <time>2019-10-27T13:08:11Z</time>
      </trkpt>
      <trkpt lat="44.02616" lon="4.12899">
        <ele>127</ele>
        <time>2019-10-27T13:08:18Z</time>
      </trkpt>
      <trkpt lat="44.02619" lon="4.12909">
        <ele>127</ele>
        <time>2019-10-27T13:08:26Z</time>
      </trkpt>
      <trkpt lat="44.02622" lon="4.12917">
        <ele>128</ele>
        <time>2019-10-27T13:08:32Z</time>
      </trkpt>
      <trkpt lat="44.02625" lon="4.12929">
        <ele>128</ele>
        <time>2019-10-27T13:08:40Z</time>
      </trkpt>
      <trkpt lat="44.02628" lon="4.1294">
        <ele>129</ele>
        <time>2019-10-27T13:08:48Z</time>
      </trkpt>
      <trkpt lat="44.02624" lon="4.12949">
        <ele>130</ele>
        <time>2019-10-27T13:08:55Z</time>
      </trkpt>
      <trkpt lat="44.02621" lon="4.12951">
        <ele>130</ele>
        <time>2019-10-27T13:09:01Z</time>
      </trkpt>
      <trkpt lat="44.02615" lon="4.12954">
        <ele>131</ele>
        <time>2019-10-27T13:09:05Z</time>
      </trkpt>
      <trkpt lat="44.026" lon="4.12962">
        <ele>132</ele>
        <time>2019-10-27T13:09:14Z</time>
      </trkpt>
      <trkpt lat="44.02591" lon="4.12968">
        <ele>132</ele>
        <time>2019-10-27T13:09:20Z</time>
      </trkpt>
      <trkpt lat="44.02578" lon="4.12975">
        <ele>133</ele>
        <time>2019-10-27T13:09:27Z</time>
      </trkpt>
      <trkpt lat="44.0257" lon="4.12981">
        <ele>133</ele>
        <time>2019-10-27T13:09:32Z</time>
      </trkpt>
      <trkpt lat="44.02558" lon="4.12993">
        <ele>134</ele>
        <time>2019-10-27T13:09:39Z</time>
      </trkpt>
      <trkpt lat="44.02556" lon="4.13015">
        <ele>134</ele>
        <time>2019-10-27T13:09:44Z</time>
      </trkpt>
      <trkpt lat="44.02555" lon="4.13039">
        <ele>134</ele>
        <time>2019-10-27T13:09:48Z</time>
      </trkpt>
      <trkpt lat="44.02553" lon="4.13054">
        <ele>134</ele>
        <time>2019-10-27T13:09:52Z</time>
      </trkpt>
      <trkpt lat="44.02548" lon="4.13077">
        <ele>134</ele>
        <time>2019-10-27T13:09:58Z</time>
      </trkpt>
      <trkpt lat="44.02534" lon="4.13093">
        <ele>134</ele>
        <time>2019-10-27T13:10:03Z</time>
      </trkpt>
      <trkpt lat="44.02528" lon="4.13097">
        <ele>134</ele>
        <time>2019-10-27T13:10:05Z</time>
      </trkpt>
      <trkpt lat="44.02525" lon="4.13117">
        <ele>134</ele>
        <time>2019-10-27T13:10:09Z</time>
      </trkpt>
      <trkpt lat="44.02527" lon="4.13146">
        <ele>134</ele>
        <time>2019-10-27T13:10:15Z</time>
      </trkpt>
      <trkpt lat="44.0253" lon="4.13177">
        <ele>135</ele>
        <time>2019-10-27T13:10:20Z</time>
      </trkpt>
      <trkpt lat="44.02532" lon="4.13184">
        <ele>135</ele>
        <time>2019-10-27T13:10:21Z</time>
      </trkpt>
      <trkpt lat="44.02543" lon="4.13211">
        <ele>136</ele>
        <time>2019-10-27T13:10:26Z</time>
      </trkpt>
      <trkpt lat="44.02554" lon="4.13231">
        <ele>136</ele>
        <time>2019-10-27T13:10:31Z</time>
      </trkpt>
      <trkpt lat="44.02565" lon="4.13252">
        <ele>136</ele>
        <time>2019-10-27T13:10:36Z</time>
      </trkpt>
      <trkpt lat="44.02575" lon="4.13275">
        <ele>136</ele>
        <time>2019-10-27T13:10:41Z</time>
      </trkpt>
      <trkpt lat="44.02583" lon="4.13297">
        <ele>136</ele>
        <time>2019-10-27T13:10:45Z</time>
      </trkpt>
      <trkpt lat="44.02586" lon="4.13311">
        <ele>136</ele>
        <time>2019-10-27T13:10:47Z</time>
      </trkpt>
      <trkpt lat="44.02596" lon="4.13342">
        <ele>136</ele>
        <time>2019-10-27T13:10:52Z</time>
      </trkpt>
      <trkpt lat="44.02603" lon="4.13367">
        <ele>136</ele>
        <time>2019-10-27T13:10:56Z</time>
      </trkpt>
      <trkpt lat="44.02606" lon="4.13381">
        <ele>135</ele>
        <time>2019-10-27T13:10:58Z</time>
      </trkpt>
      <trkpt lat="44.02621" lon="4.13411">
        <ele>135</ele>
        <time>2019-10-27T13:11:03Z</time>
      </trkpt>
      <trkpt lat="44.02624" lon="4.13417">
        <ele>135</ele>
        <time>2019-10-27T13:11:04Z</time>
      </trkpt>
      <trkpt lat="44.02631" lon="4.13437">
        <ele>135</ele>
        <time>2019-10-27T13:11:07Z</time>
      </trkpt>
      <trkpt lat="44.02645" lon="4.13473">
        <ele>134</ele>
        <time>2019-10-27T13:11:12Z</time>
      </trkpt>
      <trkpt lat="44.02648" lon="4.13481">
        <ele>134</ele>
        <time>2019-10-27T13:11:13Z</time>
      </trkpt>
      <trkpt lat="44.0266" lon="4.13508">
        <ele>134</ele>
        <time>2019-10-27T13:11:17Z</time>
      </trkpt>
      <trkpt lat="44.02667" lon="4.13526">
        <ele>134</ele>
        <time>2019-10-27T13:11:20Z</time>
      </trkpt>
      <trkpt lat="44.02669" lon="4.13535">
        <ele>134</ele>
        <time>2019-10-27T13:11:21Z</time>
      </trkpt>
      <trkpt lat="44.02671" lon="4.13542">
        <ele>134</ele>
        <time>2019-10-27T13:11:22Z</time>
      </trkpt>
      <trkpt lat="44.02683" lon="4.13565">
        <ele>133</ele>
        <time>2019-10-27T13:11:26Z</time>
      </trkpt>
      <trkpt lat="44.02685" lon="4.13569">
        <ele>133</ele>
        <time>2019-10-27T13:11:27Z</time>
      </trkpt>
      <trkpt lat="44.02689" lon="4.13576">
        <ele>133</ele>
        <time>2019-10-27T13:11:29Z</time>
      </trkpt>
      <trkpt lat="44.02699" lon="4.13608">
        <ele>132</ele>
        <time>2019-10-27T13:11:36Z</time>
      </trkpt>
      <trkpt lat="44.02706" lon="4.13638">
        <ele>132</ele>
        <time>2019-10-27T13:11:40Z</time>
      </trkpt>
      <trkpt lat="44.02708" lon="4.13642">
        <ele>132</ele>
        <time>2019-10-27T13:11:41Z</time>
      </trkpt>
      <trkpt lat="44.02721" lon="4.13654">
        <ele>132</ele>
        <time>2019-10-27T13:11:44Z</time>
      </trkpt>
      <trkpt lat="44.02743" lon="4.13662">
        <ele>131</ele>
        <time>2019-10-27T13:11:49Z</time>
      </trkpt>
      <trkpt lat="44.02748" lon="4.1366">
        <ele>131</ele>
        <time>2019-10-27T13:11:50Z</time>
      </trkpt>
      <trkpt lat="44.02757" lon="4.13657">
        <ele>131</ele>
        <time>2019-10-27T13:11:52Z</time>
      </trkpt>
      <trkpt lat="44.02775" lon="4.13655">
        <ele>130</ele>
        <time>2019-10-27T13:11:56Z</time>
      </trkpt>
      <trkpt lat="44.02779" lon="4.13655">
        <ele>129</ele>
        <time>2019-10-27T13:11:57Z</time>
      </trkpt>
      <trkpt lat="44.02804" lon="4.13655">
        <ele>127</ele>
        <time>2019-10-27T13:12:03Z</time>
      </trkpt>
      <trkpt lat="44.02808" lon="4.13654">
        <ele>127</ele>
        <time>2019-10-27T13:12:04Z</time>
      </trkpt>
      <trkpt lat="44.02821" lon="4.13654">
        <ele>125</ele>
        <time>2019-10-27T13:12:07Z</time>
      </trkpt>
      <trkpt lat="44.02842" lon="4.1365">
        <ele>123</ele>
        <time>2019-10-27T13:12:12Z</time>
      </trkpt>
      <trkpt lat="44.02854" lon="4.1365">
        <ele>122</ele>
        <time>2019-10-27T13:12:15Z</time>
      </trkpt>
      <trkpt lat="44.0286" lon="4.1365">
        <ele>121</ele>
        <time>2019-10-27T13:12:17Z</time>
      </trkpt>
      <trkpt lat="44.02865" lon="4.13658">
        <ele>119</ele>
        <time>2019-10-27T13:12:20Z</time>
      </trkpt>
      <trkpt lat="44.02869" lon="4.13667">
        <ele>118</ele>
        <time>2019-10-27T13:12:22Z</time>
      </trkpt>
      <trkpt lat="44.02874" lon="4.13695">
        <ele>116</ele>
        <time>2019-10-27T13:12:28Z</time>
      </trkpt>
      <trkpt lat="44.02882" lon="4.13712">
        <ele>114</ele>
        <time>2019-10-27T13:12:32Z</time>
      </trkpt>
      <trkpt lat="44.02895" lon="4.13719">
        <ele>113</ele>
        <time>2019-10-27T13:12:36Z</time>
      </trkpt>
      <trkpt lat="44.02904" lon="4.13729">
        <ele>112</ele>
        <time>2019-10-27T13:12:40Z</time>
      </trkpt>
      <trkpt lat="44.02909" lon="4.13736">
        <ele>112</ele>
        <time>2019-10-27T13:12:44Z</time>
      </trkpt>
      <trkpt lat="44.02927" lon="4.13744">
        <ele>111</ele>
        <time>2019-10-27T13:12:49Z</time>
      </trkpt>
      <trkpt lat="44.02938" lon="4.13742">
        <ele>111</ele>
        <time>2019-10-27T13:12:52Z</time>
      </trkpt>
      <trkpt lat="44.0296" lon="4.13738">
        <ele>110</ele>
        <time>2019-10-27T13:12:57Z</time>
      </trkpt>
      <trkpt lat="44.02969" lon="4.13738">
        <ele>109</ele>
        <time>2019-10-27T13:12:59Z</time>
      </trkpt>
      <trkpt lat="44.02985" lon="4.13736">
        <ele>109</ele>
        <time>2019-10-27T13:13:04Z</time>
      </trkpt>
      <trkpt lat="44.02993" lon="4.13739">
        <ele>109</ele>
        <time>2019-10-27T13:13:08Z</time>
      </trkpt>
      <trkpt lat="44.03" lon="4.13744">
        <ele>109</ele>
        <time>2019-10-27T13:13:12Z</time>
      </trkpt>
      <trkpt lat="44.03012" lon="4.1375">
        <ele>108</ele>
        <time>2019-10-27T13:13:17Z</time>
      </trkpt>
      <trkpt lat="44.03018" lon="4.13765">
        <ele>107</ele>
        <time>2019-10-27T13:13:20Z</time>
      </trkpt>
      <trkpt lat="44.03022" lon="4.13783">
        <ele>107</ele>
        <time>2019-10-27T13:13:23Z</time>
      </trkpt>
      <trkpt lat="44.03026" lon="4.138">
        <ele>107</ele>
        <time>2019-10-27T13:13:26Z</time>
      </trkpt>
      <trkpt lat="44.03029" lon="4.13807">
        <ele>107</ele>
        <time>2019-10-27T13:13:29Z</time>
      </trkpt>
      <trkpt lat="44.03042" lon="4.13805">
        <ele>107</ele>
        <time>2019-10-27T13:13:34Z</time>
      </trkpt>
      <trkpt lat="44.03055" lon="4.13796">
        <ele>107</ele>
        <time>2019-10-27T13:13:39Z</time>
      </trkpt>
      <trkpt lat="44.03065" lon="4.13788">
        <ele>106</ele>
        <time>2019-10-27T13:13:43Z</time>
      </trkpt>
      <trkpt lat="44.03081" lon="4.13775">
        <ele>105</ele>
        <time>2019-10-27T13:13:49Z</time>
      </trkpt>
      <trkpt lat="44.03092" lon="4.13761">
        <ele>105</ele>
        <time>2019-10-27T13:13:53Z</time>
      </trkpt>
      <trkpt lat="44.03106" lon="4.13744">
        <ele>104</ele>
        <time>2019-10-27T13:13:58Z</time>
      </trkpt>
      <trkpt lat="44.03119" lon="4.13725">
        <ele>103</ele>
        <time>2019-10-27T13:14:03Z</time>
      </trkpt>
      <trkpt lat="44.03129" lon="4.13701">
        <ele>103</ele>
        <time>2019-10-27T13:14:08Z</time>
      </trkpt>
      <trkpt lat="44.03139" lon="4.13678">
        <ele>102</ele>
        <time>2019-10-27T13:14:13Z</time>
      </trkpt>
      <trkpt lat="44.03147" lon="4.13655">
        <ele>101</ele>
        <time>2019-10-27T13:14:18Z</time>
      </trkpt>
      <trkpt lat="44.03155" lon="4.13629">
        <ele>101</ele>
        <time>2019-10-27T13:14:23Z</time>
      </trkpt>
      <trkpt lat="44.03162" lon="4.13607">
        <ele>101</ele>
        <time>2019-10-27T13:14:27Z</time>
      </trkpt>
      <trkpt lat="44.03165" lon="4.13596">
        <ele>100</ele>
        <time>2019-10-27T13:14:29Z</time>
      </trkpt>
      <trkpt lat="44.03177" lon="4.13589">
        <ele>100</ele>
        <time>2019-10-27T13:14:33Z</time>
      </trkpt>
      <trkpt lat="44.03183" lon="4.13608">
        <ele>100</ele>
        <time>2019-10-27T13:14:37Z</time>
      </trkpt>
      <trkpt lat="44.03194" lon="4.13628">
        <ele>100</ele>
        <time>2019-10-27T13:14:41Z</time>
      </trkpt>
      <trkpt lat="44.03205" lon="4.13641">
        <ele>100</ele>
        <time>2019-10-27T13:14:44Z</time>
      </trkpt>
      <trkpt lat="44.03228" lon="4.13654">
        <ele>100</ele>
        <time>2019-10-27T13:14:49Z</time>
      </trkpt>
      <trkpt lat="44.03232" lon="4.13655">
        <ele>100</ele>
        <time>2019-10-27T13:14:50Z</time>
      </trkpt>
      <trkpt lat="44.03251" lon="4.1366">
        <ele>100</ele>
        <time>2019-10-27T13:14:54Z</time>
      </trkpt>
      <trkpt lat="44.03269" lon="4.13666">
        <ele>100</ele>
        <time>2019-10-27T13:14:58Z</time>
      </trkpt>
      <trkpt lat="44.03289" lon="4.13672">
        <ele>100</ele>
        <time>2019-10-27T13:15:03Z</time>
      </trkpt>
      <trkpt lat="44.03308" lon="4.13677">
        <ele>100</ele>
        <time>2019-10-27T13:15:08Z</time>
      </trkpt>
      <trkpt lat="44.03328" lon="4.13683">
        <ele>100</ele>
        <time>2019-10-27T13:15:14Z</time>
      </trkpt>
      <trkpt lat="44.03349" lon="4.1369">
        <ele>100</ele>
        <time>2019-10-27T13:15:20Z</time>
      </trkpt>
      <trkpt lat="44.03367" lon="4.13695">
        <ele>100</ele>
        <time>2019-10-27T13:15:25Z</time>
      </trkpt>
      <trkpt lat="44.03386" lon="4.137">
        <ele>100</ele>
        <time>2019-10-27T13:15:30Z</time>
      </trkpt>
      <trkpt lat="44.03389" lon="4.13701">
        <ele>100</ele>
        <time>2019-10-27T13:15:31Z</time>
      </trkpt>
      <trkpt lat="44.03405" lon="4.138">
        <ele>100</ele>
        <time>2019-10-27T13:16:44Z</time>
      </trkpt>
      <trkpt lat="44.03401" lon="4.13799">
        <ele>99</ele>
        <time>2019-10-27T13:16:47Z</time>
      </trkpt>
      <trkpt lat="44.03399" lon="4.13799">
        <ele>99</ele>
        <time>2019-10-27T13:16:48Z</time>
      </trkpt>
      <trkpt lat="44.03398" lon="4.13808">
        <ele>99</ele>
        <time>2019-10-27T13:16:53Z</time>
      </trkpt>
      <trkpt lat="44.034" lon="4.13821">
        <ele>99</ele>
        <time>2019-10-27T13:16:57Z</time>
      </trkpt>
      <trkpt lat="44.03399" lon="4.13824">
        <ele>98</ele>
        <time>2019-10-27T13:16:58Z</time>
      </trkpt>
      <trkpt lat="44.03395" lon="4.13844">
        <ele>98</ele>
        <time>2019-10-27T13:17:04Z</time>
      </trkpt>
      <trkpt lat="44.03391" lon="4.13869">
        <ele>98</ele>
        <time>2019-10-27T13:17:10Z</time>
      </trkpt>
      <trkpt lat="44.03389" lon="4.1389">
        <ele>98</ele>
        <time>2019-10-27T13:17:15Z</time>
      </trkpt>
      <trkpt lat="44.03383" lon="4.13912">
        <ele>97</ele>
        <time>2019-10-27T13:17:20Z</time>
      </trkpt>
      <trkpt lat="44.03387" lon="4.13932">
        <ele>97</ele>
        <time>2019-10-27T13:17:25Z</time>
      </trkpt>
      <trkpt lat="44.03392" lon="4.13941">
        <ele>96</ele>
        <time>2019-10-27T13:17:28Z</time>
      </trkpt>
      <trkpt lat="44.03387" lon="4.13955">
        <ele>96</ele>
        <time>2019-10-27T13:17:32Z</time>
      </trkpt>
      <trkpt lat="44.03374" lon="4.13979">
        <ele>96</ele>
        <time>2019-10-27T13:17:38Z</time>
      </trkpt>
      <trkpt lat="44.03362" lon="4.13999">
        <ele>96</ele>
        <time>2019-10-27T13:17:43Z</time>
      </trkpt>
      <trkpt lat="44.03351" lon="4.1402">
        <ele>96</ele>
        <time>2019-10-27T13:17:48Z</time>
      </trkpt>
      <trkpt lat="44.03345" lon="4.14046">
        <ele>95</ele>
        <time>2019-10-27T13:17:53Z</time>
      </trkpt>
      <trkpt lat="44.0334" lon="4.14073">
        <ele>95</ele>
        <time>2019-10-27T13:17:58Z</time>
      </trkpt>
      <trkpt lat="44.03334" lon="4.141">
        <ele>94</ele>
        <time>2019-10-27T13:18:04Z</time>
      </trkpt>
      <trkpt lat="44.03328" lon="4.14126">
        <ele>94</ele>
        <time>2019-10-27T13:18:08Z</time>
      </trkpt>
      <trkpt lat="44.03326" lon="4.14132">
        <ele>94</ele>
        <time>2019-10-27T13:18:09Z</time>
      </trkpt>
      <trkpt lat="44.03316" lon="4.14149">
        <ele>94</ele>
        <time>2019-10-27T13:18:13Z</time>
      </trkpt>
      <trkpt lat="44.03304" lon="4.1418">
        <ele>94</ele>
        <time>2019-10-27T13:18:19Z</time>
      </trkpt>
      <trkpt lat="44.03294" lon="4.14205">
        <ele>94</ele>
        <time>2019-10-27T13:18:24Z</time>
      </trkpt>
      <trkpt lat="44.0329" lon="4.14214">
        <ele>94</ele>
        <time>2019-10-27T13:18:26Z</time>
      </trkpt>
      <trkpt lat="44.03287" lon="4.14225">
        <ele>94</ele>
        <time>2019-10-27T13:18:28Z</time>
      </trkpt>
      <trkpt lat="44.03284" lon="4.14234">
        <ele>94</ele>
        <time>2019-10-27T13:18:30Z</time>
      </trkpt>
      <trkpt lat="44.03271" lon="4.14259">
        <ele>94</ele>
        <time>2019-10-27T13:18:36Z</time>
      </trkpt>
      <trkpt lat="44.03258" lon="4.14284">
        <ele>94</ele>
        <time>2019-10-27T13:18:41Z</time>
      </trkpt>
      <trkpt lat="44.03247" lon="4.14309">
        <ele>94</ele>
        <time>2019-10-27T13:18:46Z</time>
      </trkpt>
      <trkpt lat="44.03243" lon="4.1432">
        <ele>94</ele>
        <time>2019-10-27T13:18:48Z</time>
      </trkpt>
      <trkpt lat="44.03233" lon="4.14354">
        <ele>94</ele>
        <time>2019-10-27T13:18:54Z</time>
      </trkpt>
      <trkpt lat="44.0323" lon="4.14364">
        <ele>94</ele>
        <time>2019-10-27T13:18:56Z</time>
      </trkpt>
      <trkpt lat="44.03225" lon="4.14374">
        <ele>94</ele>
        <time>2019-10-27T13:18:58Z</time>
      </trkpt>
      <trkpt lat="44.0322" lon="4.14395">
        <ele>94</ele>
        <time>2019-10-27T13:19:02Z</time>
      </trkpt>
      <trkpt lat="44.03215" lon="4.14427">
        <ele>94</ele>
        <time>2019-10-27T13:19:07Z</time>
      </trkpt>
      <trkpt lat="44.0321" lon="4.14454">
        <ele>93</ele>
        <time>2019-10-27T13:19:12Z</time>
      </trkpt>
      <trkpt lat="44.03205" lon="4.14479">
        <ele>93</ele>
        <time>2019-10-27T13:19:15Z</time>
      </trkpt>
      <trkpt lat="44.03203" lon="4.14485">
        <ele>93</ele>
        <time>2019-10-27T13:19:17Z</time>
      </trkpt>
      <trkpt lat="44.03192" lon="4.14513">
        <ele>92</ele>
        <time>2019-10-27T13:19:22Z</time>
      </trkpt>
      <trkpt lat="44.03185" lon="4.14529">
        <ele>92</ele>
        <time>2019-10-27T13:19:24Z</time>
      </trkpt>
      <trkpt lat="44.03171" lon="4.14546">
        <ele>92</ele>
        <time>2019-10-27T13:19:29Z</time>
      </trkpt>
      <trkpt lat="44.03164" lon="4.14553">
        <ele>92</ele>
        <time>2019-10-27T13:19:30Z</time>
      </trkpt>
      <trkpt lat="44.03152" lon="4.14564">
        <ele>92</ele>
        <time>2019-10-27T13:19:34Z</time>
      </trkpt>
      <trkpt lat="44.03125" lon="4.14575">
        <ele>92</ele>
        <time>2019-10-27T13:19:40Z</time>
      </trkpt>
      <trkpt lat="44.03106" lon="4.1458">
        <ele>92</ele>
        <time>2019-10-27T13:19:44Z</time>
      </trkpt>
      <trkpt lat="44.03101" lon="4.14582">
        <ele>92</ele>
        <time>2019-10-27T13:19:45Z</time>
      </trkpt>
      <trkpt lat="44.03093" lon="4.14598">
        <ele>92</ele>
        <time>2019-10-27T13:19:47Z</time>
      </trkpt>
      <trkpt lat="44.0309" lon="4.14603">
        <ele>92</ele>
        <time>2019-10-27T13:19:48Z</time>
      </trkpt>
      <trkpt lat="44.03073" lon="4.1462">
        <ele>92</ele>
        <time>2019-10-27T13:19:54Z</time>
      </trkpt>
      <trkpt lat="44.0307" lon="4.14624">
        <ele>92</ele>
        <time>2019-10-27T13:19:54Z</time>
      </trkpt>
      <trkpt lat="44.03063" lon="4.14643">
        <ele>92</ele>
        <time>2019-10-27T13:19:59Z</time>
      </trkpt>
      <trkpt lat="44.03063" lon="4.14648">
        <ele>92</ele>
        <time>2019-10-27T13:20:00Z</time>
      </trkpt>
      <trkpt lat="44.03063" lon="4.14669">
        <ele>92</ele>
        <time>2019-10-27T13:20:05Z</time>
      </trkpt>
      <trkpt lat="44.03061" lon="4.1467">
        <ele>92</ele>
        <time>2019-10-27T13:20:07Z</time>
      </trkpt>
      <trkpt lat="44.03051" lon="4.14674">
        <ele>92</ele>
        <time>2019-10-27T13:20:12Z</time>
      </trkpt>
      <trkpt lat="44.03042" lon="4.14677">
        <ele>92</ele>
        <time>2019-10-27T13:20:17Z</time>
      </trkpt>
      <trkpt lat="44.03031" lon="4.14682">
        <ele>92</ele>
        <time>2019-10-27T13:20:22Z</time>
      </trkpt>
      <trkpt lat="44.03018" lon="4.14691">
        <ele>92</ele>
        <time>2019-10-27T13:20:28Z</time>
      </trkpt>
      <trkpt lat="44.03016" lon="4.14694">
        <ele>92</ele>
        <time>2019-10-27T13:20:29Z</time>
      </trkpt>
      <trkpt lat="44.03018" lon="4.14709">
        <ele>92</ele>
        <time>2019-10-27T13:20:34Z</time>
      </trkpt>
      <trkpt lat="44.03023" lon="4.14713">
        <ele>92</ele>
        <time>2019-10-27T13:20:35Z</time>
      </trkpt>
      <trkpt lat="44.03044" lon="4.14725">
        <ele>92</ele>
        <time>2019-10-27T13:20:43Z</time>
      </trkpt>
      <trkpt lat="44.03052" lon="4.14737">
        <ele>93</ele>
        <time>2019-10-27T13:20:48Z</time>
      </trkpt>
      <trkpt lat="44.03045" lon="4.14751">
        <ele>93</ele>
        <time>2019-10-27T13:20:52Z</time>
      </trkpt>
      <trkpt lat="44.03033" lon="4.14761">
        <ele>93</ele>
        <time>2019-10-27T13:20:55Z</time>
      </trkpt>
      <trkpt lat="44.0301" lon="4.14776">
        <ele>94</ele>
        <time>2019-10-27T13:21:03Z</time>
      </trkpt>
      <trkpt lat="44.02994" lon="4.14788">
        <ele>94</ele>
        <time>2019-10-27T13:21:08Z</time>
      </trkpt>
      <trkpt lat="44.02974" lon="4.14797">
        <ele>94</ele>
        <time>2019-10-27T13:21:14Z</time>
      </trkpt>
      <trkpt lat="44.02954" lon="4.14796">
        <ele>94</ele>
        <time>2019-10-27T13:21:18Z</time>
      </trkpt>
      <trkpt lat="44.02933" lon="4.14791">
        <ele>94</ele>
        <time>2019-10-27T13:21:24Z</time>
      </trkpt>
      <trkpt lat="44.02912" lon="4.14786">
        <ele>94</ele>
        <time>2019-10-27T13:21:29Z</time>
      </trkpt>
      <trkpt lat="44.02907" lon="4.14786">
        <ele>94</ele>
        <time>2019-10-27T13:21:30Z</time>
      </trkpt>
      <trkpt lat="44.02888" lon="4.14793">
        <ele>95</ele>
        <time>2019-10-27T13:21:35Z</time>
      </trkpt>
      <trkpt lat="44.02875" lon="4.14806">
        <ele>95</ele>
        <time>2019-10-27T13:21:40Z</time>
      </trkpt>
      <trkpt lat="44.02874" lon="4.14807">
        <ele>96</ele>
        <time>2019-10-27T13:21:42Z</time>
      </trkpt>
      <trkpt lat="44.02874" lon="4.14803">
        <ele>100</ele>
        <time>2019-10-27T13:24:24Z</time>
      </trkpt>
      <trkpt lat="44.02874" lon="4.148">
        <ele>100</ele>
        <time>2019-10-27T13:24:26Z</time>
      </trkpt>
      <trkpt lat="44.02867" lon="4.14791">
        <ele>100</ele>
        <time>2019-10-27T13:24:30Z</time>
      </trkpt>
      <trkpt lat="44.02849" lon="4.14773">
        <ele>100</ele>
        <time>2019-10-27T13:24:38Z</time>
      </trkpt>
      <trkpt lat="44.02837" lon="4.1475">
        <ele>100</ele>
        <time>2019-10-27T13:24:42Z</time>
      </trkpt>
      <trkpt lat="44.02821" lon="4.1473">
        <ele>100</ele>
        <time>2019-10-27T13:24:48Z</time>
      </trkpt>
      <trkpt lat="44.02812" lon="4.1472">
        <ele>100</ele>
        <time>2019-10-27T13:24:50Z</time>
      </trkpt>
      <trkpt lat="44.028" lon="4.14692">
        <ele>100</ele>
        <time>2019-10-27T13:24:57Z</time>
      </trkpt>
      <trkpt lat="44.0279" lon="4.14678">
        <ele>100</ele>
        <time>2019-10-27T13:25:00Z</time>
      </trkpt>
      <trkpt lat="44.02776" lon="4.14662">
        <ele>99</ele>
        <time>2019-10-27T13:25:05Z</time>
      </trkpt>
      <trkpt lat="44.0276" lon="4.14649">
        <ele>99</ele>
        <time>2019-10-27T13:25:12Z</time>
      </trkpt>
      <trkpt lat="44.02742" lon="4.14632">
        <ele>97</ele>
        <time>2019-10-27T13:25:18Z</time>
      </trkpt>
      <trkpt lat="44.02724" lon="4.1462">
        <ele>97</ele>
        <time>2019-10-27T13:25:24Z</time>
      </trkpt>
      <trkpt lat="44.02713" lon="4.14617">
        <ele>96</ele>
        <time>2019-10-27T13:25:28Z</time>
      </trkpt>
      <trkpt lat="44.02696" lon="4.1461">
        <ele>95</ele>
        <time>2019-10-27T13:25:34Z</time>
      </trkpt>
      <trkpt lat="44.02679" lon="4.14605">
        <ele>94</ele>
        <time>2019-10-27T13:25:39Z</time>
      </trkpt>
      <trkpt lat="44.02661" lon="4.14601">
        <ele>94</ele>
        <time>2019-10-27T13:25:44Z</time>
      </trkpt>
      <trkpt lat="44.02642" lon="4.14595">
        <ele>94</ele>
        <time>2019-10-27T13:25:48Z</time>
      </trkpt>
      <trkpt lat="44.02627" lon="4.14598">
        <ele>94</ele>
        <time>2019-10-27T13:25:54Z</time>
      </trkpt>
      <trkpt lat="44.02612" lon="4.14597">
        <ele>94</ele>
        <time>2019-10-27T13:25:59Z</time>
      </trkpt>
      <trkpt lat="44.02591" lon="4.14594">
        <ele>94</ele>
        <time>2019-10-27T13:26:05Z</time>
      </trkpt>
      <trkpt lat="44.02571" lon="4.14593">
        <ele>94</ele>
        <time>2019-10-27T13:26:11Z</time>
      </trkpt>
      <trkpt lat="44.02554" lon="4.14591">
        <ele>94</ele>
        <time>2019-10-27T13:26:17Z</time>
      </trkpt>
      <trkpt lat="44.02533" lon="4.14589">
        <ele>94</ele>
        <time>2019-10-27T13:26:23Z</time>
      </trkpt>
      <trkpt lat="44.02515" lon="4.14587">
        <ele>94</ele>
        <time>2019-10-27T13:26:28Z</time>
      </trkpt>
      <trkpt lat="44.02496" lon="4.14586">
        <ele>94</ele>
        <time>2019-10-27T13:26:33Z</time>
      </trkpt>
      <trkpt lat="44.02473" lon="4.14582">
        <ele>94</ele>
        <time>2019-10-27T13:26:40Z</time>
      </trkpt>
      <trkpt lat="44.02471" lon="4.14578">
        <ele>94</ele>
        <time>2019-10-27T13:26:40Z</time>
      </trkpt>
      <trkpt lat="44.02458" lon="4.14561">
        <ele>94</ele>
        <time>2019-10-27T13:26:45Z</time>
      </trkpt>
      <trkpt lat="44.02452" lon="4.14553">
        <ele>94</ele>
        <time>2019-10-27T13:26:47Z</time>
      </trkpt>
      <trkpt lat="44.0244" lon="4.14547">
        <ele>94</ele>
        <time>2019-10-27T13:26:50Z</time>
      </trkpt>
      <trkpt lat="44.02423" lon="4.14541">
        <ele>94</ele>
        <time>2019-10-27T13:26:55Z</time>
      </trkpt>
      <trkpt lat="44.02407" lon="4.14538">
        <ele>94</ele>
        <time>2019-10-27T13:27:00Z</time>
      </trkpt>
      <trkpt lat="44.02398" lon="4.14528">
        <ele>94</ele>
        <time>2019-10-27T13:27:04Z</time>
      </trkpt>
      <trkpt lat="44.02387" lon="4.14523">
        <ele>94</ele>
        <time>2019-10-27T13:27:07Z</time>
      </trkpt>
      <trkpt lat="44.02382" lon="4.14505">
        <ele>94</ele>
        <time>2019-10-27T13:27:11Z</time>
      </trkpt>
      <trkpt lat="44.0238" lon="4.14493">
        <ele>94</ele>
        <time>2019-10-27T13:27:13Z</time>
      </trkpt>
      <trkpt lat="44.02374" lon="4.14475">
        <ele>95</ele>
        <time>2019-10-27T13:27:17Z</time>
      </trkpt>
      <trkpt lat="44.02374" lon="4.14468">
        <ele>95</ele>
        <time>2019-10-27T13:27:18Z</time>
      </trkpt>
      <trkpt lat="44.02373" lon="4.14458">
        <ele>95</ele>
        <time>2019-10-27T13:27:20Z</time>
      </trkpt>
      <trkpt lat="44.02359" lon="4.14446">
        <ele>95</ele>
        <time>2019-10-27T13:27:24Z</time>
      </trkpt>
      <trkpt lat="44.02344" lon="4.14441">
        <ele>96</ele>
        <time>2019-10-27T13:27:28Z</time>
      </trkpt>
      <trkpt lat="44.02333" lon="4.14435">
        <ele>97</ele>
        <time>2019-10-27T13:27:32Z</time>
      </trkpt>
      <trkpt lat="44.02326" lon="4.14434">
        <ele>97</ele>
        <time>2019-10-27T13:27:34Z</time>
      </trkpt>
      <trkpt lat="44.02313" lon="4.14419">
        <ele>97</ele>
        <time>2019-10-27T13:27:38Z</time>
      </trkpt>
      <trkpt lat="44.02308" lon="4.14419">
        <ele>97</ele>
        <time>2019-10-27T13:27:40Z</time>
      </trkpt>
      <trkpt lat="44.02295" lon="4.14412">
        <ele>98</ele>
        <time>2019-10-27T13:27:45Z</time>
      </trkpt>
      <trkpt lat="44.02276" lon="4.14408">
        <ele>98</ele>
        <time>2019-10-27T13:27:50Z</time>
      </trkpt>
      <trkpt lat="44.02272" lon="4.14407">
        <ele>98</ele>
        <time>2019-10-27T13:27:51Z</time>
      </trkpt>
      <trkpt lat="44.02264" lon="4.14401">
        <ele>98</ele>
        <time>2019-10-27T13:27:54Z</time>
      </trkpt>
      <trkpt lat="44.02262" lon="4.144">
        <ele>98</ele>
        <time>2019-10-27T13:27:55Z</time>
      </trkpt>
      <trkpt lat="44.02248" lon="4.14395">
        <ele>98</ele>
        <time>2019-10-27T13:27:59Z</time>
      </trkpt>
      <trkpt lat="44.02235" lon="4.14389">
        <ele>98</ele>
        <time>2019-10-27T13:28:03Z</time>
      </trkpt>
      <trkpt lat="44.02218" lon="4.14379">
        <ele>98</ele>
        <time>2019-10-27T13:28:09Z</time>
      </trkpt>
      <trkpt lat="44.02201" lon="4.14369">
        <ele>98</ele>
        <time>2019-10-27T13:28:14Z</time>
      </trkpt>
      <trkpt lat="44.02189" lon="4.14359">
        <ele>98</ele>
        <time>2019-10-27T13:28:18Z</time>
      </trkpt>
      <trkpt lat="44.0218" lon="4.14349">
        <ele>97</ele>
        <time>2019-10-27T13:28:22Z</time>
      </trkpt>
      <trkpt lat="44.02172" lon="4.14339">
        <ele>97</ele>
        <time>2019-10-27T13:28:26Z</time>
      </trkpt>
      <trkpt lat="44.0216" lon="4.14332">
        <ele>97</ele>
        <time>2019-10-27T13:28:30Z</time>
      </trkpt>
      <trkpt lat="44.02152" lon="4.14325">
        <ele>96</ele>
        <time>2019-10-27T13:28:34Z</time>
      </trkpt>
      <trkpt lat="44.02127" lon="4.14295">
        <ele>98</ele>
        <time>2019-10-27T13:29:38Z</time>
      </trkpt>
      <trkpt lat="44.02121" lon="4.14292">
        <ele>99</ele>
        <time>2019-10-27T13:29:39Z</time>
      </trkpt>
      <trkpt lat="44.02119" lon="4.1429">
        <ele>99</ele>
        <time>2019-10-27T13:29:40Z</time>
      </trkpt>
      <trkpt lat="44.02111" lon="4.14285">
        <ele>99</ele>
        <time>2019-10-27T13:29:43Z</time>
      </trkpt>
      <trkpt lat="44.02094" lon="4.14266">
        <ele>100</ele>
        <time>2019-10-27T13:29:50Z</time>
      </trkpt>
      <trkpt lat="44.02078" lon="4.14253">
        <ele>100</ele>
        <time>2019-10-27T13:29:55Z</time>
      </trkpt>
      <trkpt lat="44.0206" lon="4.1424">
        <ele>100</ele>
        <time>2019-10-27T13:30:00Z</time>
      </trkpt>
      <trkpt lat="44.02043" lon="4.14225">
        <ele>100</ele>
        <time>2019-10-27T13:30:05Z</time>
      </trkpt>
      <trkpt lat="44.02039" lon="4.14222">
        <ele>100</ele>
        <time>2019-10-27T13:30:05Z</time>
      </trkpt>
      <trkpt lat="44.02021" lon="4.14207">
        <ele>99</ele>
        <time>2019-10-27T13:30:10Z</time>
      </trkpt>
      <trkpt lat="44.02002" lon="4.14195">
        <ele>99</ele>
        <time>2019-10-27T13:30:15Z</time>
      </trkpt>
      <trkpt lat="44.01983" lon="4.14186">
        <ele>98</ele>
        <time>2019-10-27T13:30:20Z</time>
      </trkpt>
      <trkpt lat="44.01979" lon="4.14184">
        <ele>98</ele>
        <time>2019-10-27T13:30:22Z</time>
      </trkpt>
      <trkpt lat="44.01961" lon="4.1417">
        <ele>98</ele>
        <time>2019-10-27T13:30:27Z</time>
      </trkpt>
      <trkpt lat="44.01957" lon="4.14167">
        <ele>98</ele>
        <time>2019-10-27T13:30:28Z</time>
      </trkpt>
      <trkpt lat="44.01954" lon="4.14164">
        <ele>98</ele>
        <time>2019-10-27T13:30:29Z</time>
      </trkpt>
      <trkpt lat="44.01947" lon="4.14161">
        <ele>98</ele>
        <time>2019-10-27T13:30:30Z</time>
      </trkpt>
      <trkpt lat="44.01923" lon="4.14155">
        <ele>97</ele>
        <time>2019-10-27T13:30:37Z</time>
      </trkpt>
      <trkpt lat="44.01919" lon="4.14154">
        <ele>97</ele>
        <time>2019-10-27T13:30:38Z</time>
      </trkpt>
      <trkpt lat="44.01895" lon="4.14153">
        <ele>96</ele>
        <time>2019-10-27T13:30:43Z</time>
      </trkpt>
      <trkpt lat="44.01889" lon="4.14152">
        <ele>96</ele>
        <time>2019-10-27T13:30:45Z</time>
      </trkpt>
      <trkpt lat="44.01868" lon="4.14143">
        <ele>96</ele>
        <time>2019-10-27T13:30:51Z</time>
      </trkpt>
      <trkpt lat="44.01854" lon="4.14144">
        <ele>96</ele>
        <time>2019-10-27T13:30:55Z</time>
      </trkpt>
      <trkpt lat="44.01846" lon="4.14144">
        <ele>96</ele>
        <time>2019-10-27T13:30:59Z</time>
      </trkpt>
      <trkpt lat="44.01831" lon="4.14139">
        <ele>96</ele>
        <time>2019-10-27T13:31:04Z</time>
      </trkpt>
      <trkpt lat="44.01813" lon="4.1413">
        <ele>95</ele>
        <time>2019-10-27T13:31:10Z</time>
      </trkpt>
      <trkpt lat="44.01794" lon="4.1412">
        <ele>94</ele>
        <time>2019-10-27T13:31:16Z</time>
      </trkpt>
      <trkpt lat="44.01777" lon="4.14127">
        <ele>94</ele>
        <time>2019-10-27T13:31:21Z</time>
      </trkpt>
      <trkpt lat="44.01764" lon="4.14138">
        <ele>94</ele>
        <time>2019-10-27T13:31:26Z</time>
      </trkpt>
      <trkpt lat="44.01758" lon="4.1415">
        <ele>94</ele>
        <time>2019-10-27T13:31:30Z</time>
      </trkpt>
      <trkpt lat="44.01751" lon="4.14167">
        <ele>94</ele>
        <time>2019-10-27T13:31:36Z</time>
      </trkpt>
      <trkpt lat="44.01743" lon="4.14182">
        <ele>94</ele>
        <time>2019-10-27T13:31:41Z</time>
      </trkpt>
      <trkpt lat="44.01737" lon="4.14198">
        <ele>93</ele>
        <time>2019-10-27T13:31:47Z</time>
      </trkpt>
      <trkpt lat="44.01735" lon="4.14201">
        <ele>93</ele>
        <time>2019-10-27T13:31:48Z</time>
      </trkpt>
      <trkpt lat="44.01726" lon="4.14216">
        <ele>93</ele>
        <time>2019-10-27T13:31:54Z</time>
      </trkpt>
      <trkpt lat="44.01725" lon="4.14219">
        <ele>92</ele>
        <time>2019-10-27T13:31:55Z</time>
      </trkpt>
      <trkpt lat="44.01725" lon="4.14221">
        <ele>92</ele>
        <time>2019-10-27T13:31:55Z</time>
      </trkpt>
      <trkpt lat="44.01723" lon="4.14235">
        <ele>92</ele>
        <time>2019-10-27T13:32:03Z</time>
      </trkpt>
      <trkpt lat="44.01723" lon="4.14237">
        <ele>92</ele>
        <time>2019-10-27T13:32:04Z</time>
      </trkpt>
      <trkpt lat="44.01723" lon="4.14244">
        <ele>92</ele>
        <time>2019-10-27T13:32:10Z</time>
      </trkpt>
      <trkpt lat="44.01723" lon="4.14236">
        <ele>92</ele>
        <time>2019-10-27T13:32:14Z</time>
      </trkpt>
      <trkpt lat="44.01723" lon="4.14231">
        <ele>92</ele>
        <time>2019-10-27T13:32:16Z</time>
      </trkpt>
      <trkpt lat="44.01718" lon="4.14216">
        <ele>92</ele>
        <time>2019-10-27T13:32:23Z</time>
      </trkpt>
      <trkpt lat="44.01718" lon="4.14213">
        <ele>92</ele>
        <time>2019-10-27T13:32:24Z</time>
      </trkpt>
      <trkpt lat="44.01718" lon="4.14211">
        <ele>92</ele>
        <time>2019-10-27T13:32:27Z</time>
      </trkpt>
      <trkpt lat="44.0172" lon="4.14234">
        <ele>100</ele>
        <time>2019-10-27T13:34:28Z</time>
      </trkpt>
      <trkpt lat="44.01717" lon="4.14243">
        <ele>100</ele>
        <time>2019-10-27T13:34:30Z</time>
      </trkpt>
      <trkpt lat="44.01715" lon="4.14262">
        <ele>100</ele>
        <time>2019-10-27T13:34:35Z</time>
      </trkpt>
      <trkpt lat="44.01711" lon="4.14291">
        <ele>100</ele>
        <time>2019-10-27T13:34:42Z</time>
      </trkpt>
      <trkpt lat="44.01711" lon="4.1432">
        <ele>100</ele>
        <time>2019-10-27T13:34:47Z</time>
      </trkpt>
      <trkpt lat="44.01711" lon="4.14345">
        <ele>100</ele>
        <time>2019-10-27T13:34:50Z</time>
      </trkpt>
      <trkpt lat="44.01713" lon="4.14372">
        <ele>99</ele>
        <time>2019-10-27T13:34:55Z</time>
      </trkpt>
      <trkpt lat="44.01715" lon="4.14401">
        <ele>99</ele>
        <time>2019-10-27T13:34:59Z</time>
      </trkpt>
      <trkpt lat="44.01717" lon="4.14429">
        <ele>99</ele>
        <time>2019-10-27T13:35:03Z</time>
      </trkpt>
      <trkpt lat="44.01719" lon="4.14457">
        <ele>98</ele>
        <time>2019-10-27T13:35:07Z</time>
      </trkpt>
      <trkpt lat="44.01722" lon="4.14486">
        <ele>98</ele>
        <time>2019-10-27T13:35:11Z</time>
      </trkpt>
      <trkpt lat="44.01725" lon="4.14516">
        <ele>98</ele>
        <time>2019-10-27T13:35:15Z</time>
      </trkpt>
      <trkpt lat="44.01727" lon="4.14547">
        <ele>98</ele>
        <time>2019-10-27T13:35:19Z</time>
      </trkpt>
      <trkpt lat="44.01729" lon="4.14578">
        <ele>97</ele>
        <time>2019-10-27T13:35:23Z</time>
      </trkpt>
      <trkpt lat="44.01732" lon="4.14608">
        <ele>97</ele>
        <time>2019-10-27T13:35:27Z</time>
      </trkpt>
      <trkpt lat="44.01735" lon="4.14637">
        <ele>96</ele>
        <time>2019-10-27T13:35:30Z</time>
      </trkpt>
      <trkpt lat="44.01739" lon="4.14659">
        <ele>96</ele>
        <time>2019-10-27T13:35:34Z</time>
      </trkpt>
      <trkpt lat="44.01747" lon="4.14686">
        <ele>96</ele>
        <time>2019-10-27T13:35:38Z</time>
      </trkpt>
      <trkpt lat="44.01759" lon="4.14709">
        <ele>96</ele>
        <time>2019-10-27T13:35:42Z</time>
      </trkpt>
      <trkpt lat="44.01764" lon="4.14709">
        <ele>96</ele>
        <time>2019-10-27T13:35:46Z</time>
      </trkpt>
      <trkpt lat="44.01756" lon="4.14703">
        <ele>96</ele>
        <time>2019-10-27T13:35:50Z</time>
      </trkpt>
      <trkpt lat="44.01753" lon="4.14701">
        <ele>96</ele>
        <time>2019-10-27T13:35:51Z</time>
      </trkpt>
      <trkpt lat="44.0175" lon="4.147">
        <ele>96</ele>
        <time>2019-10-27T13:35:52Z</time>
      </trkpt>
      <trkpt lat="44.01746" lon="4.14707">
        <ele>96</ele>
        <time>2019-10-27T13:35:55Z</time>
      </trkpt>
      <trkpt lat="44.01747" lon="4.14715">
        <ele>96</ele>
        <time>2019-10-27T13:35:57Z</time>
      </trkpt>
      <trkpt lat="44.01755" lon="4.14742">
        <ele>95</ele>
        <time>2019-10-27T13:36:04Z</time>
      </trkpt>
      <trkpt lat="44.01761" lon="4.14767">
        <ele>95</ele>
        <time>2019-10-27T13:36:09Z</time>
      </trkpt>
      <trkpt lat="44.01767" lon="4.14793">
        <ele>94</ele>
        <time>2019-10-27T13:36:14Z</time>
      </trkpt>
      <trkpt lat="44.01772" lon="4.1482">
        <ele>94</ele>
        <time>2019-10-27T13:36:19Z</time>
      </trkpt>
      <trkpt lat="44.01777" lon="4.14847">
        <ele>94</ele>
        <time>2019-10-27T13:36:24Z</time>
      </trkpt>
      <trkpt lat="44.01783" lon="4.14873">
        <ele>94</ele>
        <time>2019-10-27T13:36:29Z</time>
      </trkpt>
      <trkpt lat="44.0179" lon="4.14899">
        <ele>94</ele>
        <time>2019-10-27T13:36:34Z</time>
      </trkpt>
      <trkpt lat="44.01797" lon="4.14924">
        <ele>94</ele>
        <time>2019-10-27T13:36:39Z</time>
      </trkpt>
      <trkpt lat="44.01805" lon="4.14948">
        <ele>94</ele>
        <time>2019-10-27T13:36:44Z</time>
      </trkpt>
      <trkpt lat="44.0181" lon="4.14973">
        <ele>94</ele>
        <time>2019-10-27T13:36:49Z</time>
      </trkpt>
      <trkpt lat="44.01817" lon="4.14997">
        <ele>94</ele>
        <time>2019-10-27T13:36:54Z</time>
      </trkpt>
      <trkpt lat="44.01825" lon="4.15023">
        <ele>94</ele>
        <time>2019-10-27T13:37:00Z</time>
      </trkpt>
      <trkpt lat="44.01833" lon="4.15049">
        <ele>94</ele>
        <time>2019-10-27T13:37:06Z</time>
      </trkpt>
      <trkpt lat="44.01839" lon="4.15067">
        <ele>94</ele>
        <time>2019-10-27T13:37:11Z</time>
      </trkpt>
      <trkpt lat="44.01841" lon="4.15077">
        <ele>94</ele>
        <time>2019-10-27T13:37:14Z</time>
      </trkpt>
      <trkpt lat="44.01831" lon="4.15094">
        <ele>94</ele>
        <time>2019-10-27T13:37:20Z</time>
      </trkpt>
      <trkpt lat="44.01818" lon="4.15113">
        <ele>94</ele>
        <time>2019-10-27T13:37:25Z</time>
      </trkpt>
      <trkpt lat="44.01804" lon="4.15131">
        <ele>94</ele>
        <time>2019-10-27T13:37:30Z</time>
      </trkpt>
      <trkpt lat="44.0179" lon="4.1515">
        <ele>94</ele>
        <time>2019-10-27T13:37:34Z</time>
      </trkpt>
      <trkpt lat="44.01777" lon="4.15165">
        <ele>94</ele>
        <time>2019-10-27T13:37:39Z</time>
      </trkpt>
      <trkpt lat="44.01763" lon="4.15188">
        <ele>94</ele>
        <time>2019-10-27T13:37:45Z</time>
      </trkpt>
      <trkpt lat="44.01748" lon="4.15205">
        <ele>94</ele>
        <time>2019-10-27T13:37:50Z</time>
      </trkpt>
      <trkpt lat="44.01734" lon="4.15223">
        <ele>94</ele>
        <time>2019-10-27T13:37:55Z</time>
      </trkpt>
      <trkpt lat="44.01723" lon="4.15233">
        <ele>94</ele>
        <time>2019-10-27T13:37:58Z</time>
      </trkpt>
      <trkpt lat="44.01704" lon="4.1526">
        <ele>94</ele>
        <time>2019-10-27T13:38:04Z</time>
      </trkpt>
      <trkpt lat="44.01698" lon="4.15267">
        <ele>94</ele>
        <time>2019-10-27T13:38:06Z</time>
      </trkpt>
      <trkpt lat="44.01684" lon="4.15282">
        <ele>94</ele>
        <time>2019-10-27T13:38:10Z</time>
      </trkpt>
      <trkpt lat="44.01664" lon="4.15303">
        <ele>94</ele>
        <time>2019-10-27T13:38:16Z</time>
      </trkpt>
      <trkpt lat="44.01657" lon="4.15311">
        <ele>94</ele>
        <time>2019-10-27T13:38:18Z</time>
      </trkpt>
      <trkpt lat="44.01647" lon="4.15335">
        <ele>94</ele>
        <time>2019-10-27T13:38:23Z</time>
      </trkpt>
      <trkpt lat="44.01645" lon="4.15344">
        <ele>94</ele>
        <time>2019-10-27T13:38:25Z</time>
      </trkpt>
      <trkpt lat="44.01646" lon="4.15364">
        <ele>94</ele>
        <time>2019-10-27T13:38:29Z</time>
      </trkpt>
      <trkpt lat="44.01655" lon="4.1538">
        <ele>94</ele>
        <time>2019-10-27T13:38:33Z</time>
      </trkpt>
      <trkpt lat="44.01669" lon="4.15394">
        <ele>94</ele>
        <time>2019-10-27T13:38:39Z</time>
      </trkpt>
      <trkpt lat="44.01684" lon="4.15404">
        <ele>94</ele>
        <time>2019-10-27T13:38:43Z</time>
      </trkpt>
      <trkpt lat="44.01688" lon="4.15403">
        <ele>94</ele>
        <time>2019-10-27T13:38:46Z</time>
      </trkpt>
      <trkpt lat="44.01693" lon="4.15394">
        <ele>94</ele>
        <time>2019-10-27T13:38:50Z</time>
      </trkpt>
      <trkpt lat="44.01707" lon="4.15378">
        <ele>94</ele>
        <time>2019-10-27T13:38:55Z</time>
      </trkpt>
      <trkpt lat="44.01722" lon="4.15357">
        <ele>93</ele>
        <time>2019-10-27T13:39:02Z</time>
      </trkpt>
      <trkpt lat="44.01736" lon="4.1534">
        <ele>92</ele>
        <time>2019-10-27T13:39:07Z</time>
      </trkpt>
      <trkpt lat="44.01739" lon="4.1534">
        <ele>92</ele>
        <time>2019-10-27T13:39:08Z</time>
      </trkpt>
      <trkpt lat="44.01748" lon="4.15347">
        <ele>92</ele>
        <time>2019-10-27T13:39:11Z</time>
      </trkpt>
      <trkpt lat="44.01751" lon="4.15351">
        <ele>92</ele>
        <time>2019-10-27T13:39:12Z</time>
      </trkpt>
      <trkpt lat="44.01764" lon="4.15371">
        <ele>92</ele>
        <time>2019-10-27T13:39:18Z</time>
      </trkpt>
      <trkpt lat="44.01777" lon="4.15392">
        <ele>92</ele>
        <time>2019-10-27T13:39:23Z</time>
      </trkpt>
      <trkpt lat="44.01791" lon="4.15413">
        <ele>92</ele>
        <time>2019-10-27T13:39:28Z</time>
      </trkpt>
      <trkpt lat="44.01802" lon="4.15433">
        <ele>92</ele>
        <time>2019-10-27T13:39:32Z</time>
      </trkpt>
      <trkpt lat="44.01817" lon="4.15451">
        <ele>92</ele>
        <time>2019-10-27T13:39:38Z</time>
      </trkpt>
      <trkpt lat="44.01829" lon="4.15473">
        <ele>92</ele>
        <time>2019-10-27T13:39:43Z</time>
      </trkpt>
      <trkpt lat="44.01833" lon="4.1549">
        <ele>92</ele>
        <time>2019-10-27T13:39:46Z</time>
      </trkpt>
      <trkpt lat="44.01835" lon="4.15501">
        <ele>92</ele>
        <time>2019-10-27T13:39:48Z</time>
      </trkpt>
      <trkpt lat="44.01839" lon="4.15517">
        <ele>92</ele>
        <time>2019-10-27T13:39:51Z</time>
      </trkpt>
      <trkpt lat="44.01842" lon="4.15529">
        <ele>92</ele>
        <time>2019-10-27T13:39:53Z</time>
      </trkpt>
      <trkpt lat="44.01847" lon="4.15543">
        <ele>92</ele>
        <time>2019-10-27T13:39:55Z</time>
      </trkpt>
      <trkpt lat="44.01854" lon="4.15569">
        <ele>92</ele>
        <time>2019-10-27T13:40:00Z</time>
      </trkpt>
      <trkpt lat="44.0185" lon="4.15579">
        <ele>92</ele>
        <time>2019-10-27T13:40:03Z</time>
      </trkpt>
      <trkpt lat="44.01847" lon="4.1559">
        <ele>92</ele>
        <time>2019-10-27T13:40:05Z</time>
      </trkpt>
      <trkpt lat="44.01851" lon="4.15606">
        <ele>92</ele>
        <time>2019-10-27T13:40:08Z</time>
      </trkpt>
      <trkpt lat="44.01852" lon="4.15612">
        <ele>91</ele>
        <time>2019-10-27T13:40:09Z</time>
      </trkpt>
      <trkpt lat="44.01855" lon="4.15621">
        <ele>91</ele>
        <time>2019-10-27T13:40:11Z</time>
      </trkpt>
      <trkpt lat="44.0186" lon="4.15638">
        <ele>91</ele>
        <time>2019-10-27T13:40:16Z</time>
      </trkpt>
      <trkpt lat="44.01869" lon="4.15651">
        <ele>90</ele>
        <time>2019-10-27T13:40:22Z</time>
      </trkpt>
      <trkpt lat="44.0187" lon="4.15654">
        <ele>90</ele>
        <time>2019-10-27T13:40:23Z</time>
      </trkpt>
      <trkpt lat="44.01877" lon="4.15673">
        <ele>89</ele>
        <time>2019-10-27T13:40:30Z</time>
      </trkpt>
      <trkpt lat="44.01884" lon="4.15688">
        <ele>88</ele>
        <time>2019-10-27T13:40:36Z</time>
      </trkpt>
      <trkpt lat="44.01894" lon="4.15713">
        <ele>88</ele>
        <time>2019-10-27T13:40:43Z</time>
      </trkpt>
      <trkpt lat="44.01905" lon="4.15732">
        <ele>88</ele>
        <time>2019-10-27T13:40:50Z</time>
      </trkpt>
      <trkpt lat="44.01921" lon="4.15748">
        <ele>88</ele>
        <time>2019-10-27T13:40:57Z</time>
      </trkpt>
      <trkpt lat="44.01939" lon="4.15753">
        <ele>89</ele>
        <time>2019-10-27T13:41:03Z</time>
      </trkpt>
      <trkpt lat="44.01952" lon="4.15745">
        <ele>89</ele>
        <time>2019-10-27T13:41:08Z</time>
      </trkpt>
      <trkpt lat="44.01963" lon="4.15733">
        <ele>90</ele>
        <time>2019-10-27T13:41:14Z</time>
      </trkpt>
      <trkpt lat="44.01976" lon="4.15724">
        <ele>90</ele>
        <time>2019-10-27T13:41:19Z</time>
      </trkpt>
      <trkpt lat="44.01982" lon="4.15717">
        <ele>90</ele>
        <time>2019-10-27T13:41:23Z</time>
      </trkpt>
      <trkpt lat="44.01984" lon="4.15704">
        <ele>93</ele>
        <time>2019-10-27T13:43:37Z</time>
      </trkpt>
      <trkpt lat="44.01988" lon="4.15698">
        <ele>93</ele>
        <time>2019-10-27T13:43:40Z</time>
      </trkpt>
      <trkpt lat="44.01988" lon="4.15695">
        <ele>93</ele>
        <time>2019-10-27T13:43:40Z</time>
      </trkpt>
      <trkpt lat="44.01988" lon="4.15678">
        <ele>94</ele>
        <time>2019-10-27T13:43:46Z</time>
      </trkpt>
      <trkpt lat="44.01992" lon="4.1565">
        <ele>94</ele>
        <time>2019-10-27T13:43:53Z</time>
      </trkpt>
      <trkpt lat="44.01993" lon="4.15627">
        <ele>94</ele>
        <time>2019-10-27T13:43:58Z</time>
      </trkpt>
      <trkpt lat="44.01995" lon="4.15623">
        <ele>94</ele>
        <time>2019-10-27T13:43:59Z</time>
      </trkpt>
      <trkpt lat="44.02001" lon="4.15613">
        <ele>94</ele>
        <time>2019-10-27T13:44:02Z</time>
      </trkpt>
      <trkpt lat="44.02015" lon="4.15586">
        <ele>94</ele>
        <time>2019-10-27T13:44:09Z</time>
      </trkpt>
      <trkpt lat="44.02026" lon="4.15565">
        <ele>94</ele>
        <time>2019-10-27T13:44:15Z</time>
      </trkpt>
      <trkpt lat="44.02027" lon="4.15563">
        <ele>94</ele>
        <time>2019-10-27T13:44:16Z</time>
      </trkpt>
      <trkpt lat="44.02026" lon="4.15559">
        <ele>94</ele>
        <time>2019-10-27T13:44:20Z</time>
      </trkpt>
      <trkpt lat="44.02026" lon="4.15557">
        <ele>94</ele>
        <time>2019-10-27T13:44:22Z</time>
      </trkpt>
      <trkpt lat="44.02036" lon="4.1555">
        <ele>94</ele>
        <time>2019-10-27T13:44:27Z</time>
      </trkpt>
      <trkpt lat="44.02051" lon="4.15541">
        <ele>94</ele>
        <time>2019-10-27T13:44:32Z</time>
      </trkpt>
      <trkpt lat="44.02072" lon="4.15528">
        <ele>94</ele>
        <time>2019-10-27T13:44:39Z</time>
      </trkpt>
      <trkpt lat="44.02077" lon="4.1553">
        <ele>94</ele>
        <time>2019-10-27T13:44:41Z</time>
      </trkpt>
      <trkpt lat="44.02089" lon="4.15549">
        <ele>94</ele>
        <time>2019-10-27T13:44:48Z</time>
      </trkpt>
      <trkpt lat="44.02093" lon="4.15555">
        <ele>94</ele>
        <time>2019-10-27T13:44:51Z</time>
      </trkpt>
      <trkpt lat="44.02093" lon="4.1555">
        <ele>94</ele>
        <time>2019-10-27T13:44:55Z</time>
      </trkpt>
      <trkpt lat="44.02089" lon="4.15545">
        <ele>94</ele>
        <time>2019-10-27T13:44:57Z</time>
      </trkpt>
      <trkpt lat="44.02071" lon="4.15525">
        <ele>94</ele>
        <time>2019-10-27T13:45:04Z</time>
      </trkpt>
      <trkpt lat="44.02057" lon="4.15519">
        <ele>94</ele>
        <time>2019-10-27T13:45:08Z</time>
      </trkpt>
      <trkpt lat="44.02048" lon="4.15507">
        <ele>94</ele>
        <time>2019-10-27T13:45:13Z</time>
      </trkpt>
      <trkpt lat="44.02045" lon="4.15508">
        <ele>94</ele>
        <time>2019-10-27T13:45:14Z</time>
      </trkpt>
      <trkpt lat="44.02044" lon="4.15509">
        <ele>94</ele>
        <time>2019-10-27T13:45:17Z</time>
      </trkpt>
      <trkpt lat="44.02045" lon="4.15509">
        <ele>94</ele>
        <time>2019-10-27T13:45:22Z</time>
      </trkpt>
      <trkpt lat="44.02043" lon="4.15509">
        <ele>94</ele>
        <time>2019-10-27T13:45:23Z</time>
      </trkpt>
      <trkpt lat="44.02028" lon="4.15519">
        <ele>94</ele>
        <time>2019-10-27T13:45:29Z</time>
      </trkpt>
      <trkpt lat="44.02011" lon="4.15527">
        <ele>94</ele>
        <time>2019-10-27T13:45:34Z</time>
      </trkpt>
      <trkpt lat="44.01994" lon="4.15539">
        <ele>94</ele>
        <time>2019-10-27T13:45:39Z</time>
      </trkpt>
      <trkpt lat="44.01955" lon="4.15569">
        <ele>94</ele>
        <time>2019-10-27T13:45:52Z</time>
      </trkpt>
      <trkpt lat="44.01937" lon="4.15582">
        <ele>94</ele>
        <time>2019-10-27T13:45:58Z</time>
      </trkpt>
      <trkpt lat="44.01921" lon="4.15593">
        <ele>94</ele>
        <time>2019-10-27T13:46:04Z</time>
      </trkpt>
      <trkpt lat="44.01908" lon="4.15604">
        <ele>94</ele>
        <time>2019-10-27T13:46:09Z</time>
      </trkpt>
      <trkpt lat="44.01893" lon="4.15619">
        <ele>94</ele>
        <time>2019-10-27T13:46:15Z</time>
      </trkpt>
      <trkpt lat="44.01888" lon="4.15625">
        <ele>94</ele>
        <time>2019-10-27T13:46:19Z</time>
      </trkpt>
      <trkpt lat="44.01887" lon="4.15622">
        <ele>94</ele>
        <time>2019-10-27T13:46:25Z</time>
      </trkpt>
      <trkpt lat="44.01883" lon="4.15619">
        <ele>94</ele>
        <time>2019-10-27T13:46:32Z</time>
      </trkpt>
      <trkpt lat="44.01881" lon="4.15615">
        <ele>94</ele>
        <time>2019-10-27T13:46:40Z</time>
      </trkpt>
      <trkpt lat="44.01879" lon="4.15612">
        <ele>95</ele>
        <time>2019-10-27T13:46:46Z</time>
      </trkpt>
      <trkpt lat="44.01879" lon="4.15609">
        <ele>95</ele>
        <time>2019-10-27T13:46:51Z</time>
      </trkpt>
      <trkpt lat="44.01878" lon="4.15607">
        <ele>97</ele>
        <time>2019-10-27T13:47:09Z</time>
      </trkpt>
      <trkpt lat="44.01877" lon="4.156">
        <ele>98</ele>
        <time>2019-10-27T13:47:17Z</time>
      </trkpt>
      <trkpt lat="44.01876" lon="4.15597">
        <ele>98</ele>
        <time>2019-10-27T13:47:22Z</time>
      </trkpt>
      <trkpt lat="44.01872" lon="4.15595">
        <ele>98</ele>
        <time>2019-10-27T13:47:32Z</time>
      </trkpt>
      <trkpt lat="44.01861" lon="4.15599">
        <ele>98</ele>
        <time>2019-10-27T13:47:35Z</time>
      </trkpt>
      <trkpt lat="44.01843" lon="4.15612">
        <ele>98</ele>
        <time>2019-10-27T13:47:41Z</time>
      </trkpt>
      <trkpt lat="44.01826" lon="4.15623">
        <ele>98</ele>
        <time>2019-10-27T13:47:46Z</time>
      </trkpt>
      <trkpt lat="44.01808" lon="4.15637">
        <ele>98</ele>
        <time>2019-10-27T13:47:52Z</time>
      </trkpt>
      <trkpt lat="44.01791" lon="4.15649">
        <ele>98</ele>
        <time>2019-10-27T13:47:57Z</time>
      </trkpt>
      <trkpt lat="44.01774" lon="4.1566">
        <ele>98</ele>
        <time>2019-10-27T13:48:02Z</time>
      </trkpt>
      <trkpt lat="44.01753" lon="4.15675">
        <ele>98</ele>
        <time>2019-10-27T13:48:08Z</time>
      </trkpt>
      <trkpt lat="44.01736" lon="4.15687">
        <ele>98</ele>
        <time>2019-10-27T13:48:13Z</time>
      </trkpt>
      <trkpt lat="44.01718" lon="4.157">
        <ele>98</ele>
        <time>2019-10-27T13:48:18Z</time>
      </trkpt>
      <trkpt lat="44.01699" lon="4.15714">
        <ele>98</ele>
        <time>2019-10-27T13:48:23Z</time>
      </trkpt>
      <trkpt lat="44.0168" lon="4.15724">
        <ele>98</ele>
        <time>2019-10-27T13:48:28Z</time>
      </trkpt>
      <trkpt lat="44.01661" lon="4.15733">
        <ele>98</ele>
        <time>2019-10-27T13:48:33Z</time>
      </trkpt>
      <trkpt lat="44.01642" lon="4.15746">
        <ele>98</ele>
        <time>2019-10-27T13:48:38Z</time>
      </trkpt>
      <trkpt lat="44.01623" lon="4.1576">
        <ele>98</ele>
        <time>2019-10-27T13:48:43Z</time>
      </trkpt>
      <trkpt lat="44.01607" lon="4.15773">
        <ele>98</ele>
        <time>2019-10-27T13:48:47Z</time>
      </trkpt>
      <trkpt lat="44.01588" lon="4.15792">
        <ele>98</ele>
        <time>2019-10-27T13:48:52Z</time>
      </trkpt>
      <trkpt lat="44.01573" lon="4.15807">
        <ele>98</ele>
        <time>2019-10-27T13:48:56Z</time>
      </trkpt>
      <trkpt lat="44.01558" lon="4.15823">
        <ele>98</ele>
        <time>2019-10-27T13:49:00Z</time>
      </trkpt>
      <trkpt lat="44.01554" lon="4.15826">
        <ele>98</ele>
        <time>2019-10-27T13:49:01Z</time>
      </trkpt>
      <trkpt lat="44.01534" lon="4.15843">
        <ele>98</ele>
        <time>2019-10-27T13:49:06Z</time>
      </trkpt>
      <trkpt lat="44.01517" lon="4.15858">
        <ele>98</ele>
        <time>2019-10-27T13:49:10Z</time>
      </trkpt>
      <trkpt lat="44.01501" lon="4.15871">
        <ele>98</ele>
        <time>2019-10-27T13:49:14Z</time>
      </trkpt>
      <trkpt lat="44.01484" lon="4.15884">
        <ele>98</ele>
        <time>2019-10-27T13:49:18Z</time>
      </trkpt>
      <trkpt lat="44.0148" lon="4.15887">
        <ele>98</ele>
        <time>2019-10-27T13:49:19Z</time>
      </trkpt>
      <trkpt lat="44.0146" lon="4.15906">
        <ele>98</ele>
        <time>2019-10-27T13:49:24Z</time>
      </trkpt>
      <trkpt lat="44.01445" lon="4.15923">
        <ele>98</ele>
        <time>2019-10-27T13:49:28Z</time>
      </trkpt>
      <trkpt lat="44.01429" lon="4.1594">
        <ele>99</ele>
        <time>2019-10-27T13:49:32Z</time>
      </trkpt>
      <trkpt lat="44.01415" lon="4.15958">
        <ele>99</ele>
        <time>2019-10-27T13:49:36Z</time>
      </trkpt>
      <trkpt lat="44.014" lon="4.15974">
        <ele>100</ele>
        <time>2019-10-27T13:49:40Z</time>
      </trkpt>
      <trkpt lat="44.01389" lon="4.15984">
        <ele>100</ele>
        <time>2019-10-27T13:49:43Z</time>
      </trkpt>
      <trkpt lat="44.01385" lon="4.15988">
        <ele>100</ele>
        <time>2019-10-27T13:49:45Z</time>
      </trkpt>
      <trkpt lat="44.01174" lon="4.17127">
        <ele>88</ele>
        <time>2019-10-27T13:57:26Z</time>
      </trkpt>
      <trkpt lat="44.01176" lon="4.17136">
        <ele>88</ele>
        <time>2019-10-27T13:57:28Z</time>
      </trkpt>
      <trkpt lat="44.01186" lon="4.17161">
        <ele>88</ele>
        <time>2019-10-27T13:57:34Z</time>
      </trkpt>
      <trkpt lat="44.01195" lon="4.17187">
        <ele>88</ele>
        <time>2019-10-27T13:57:39Z</time>
      </trkpt>
      <trkpt lat="44.01204" lon="4.17213">
        <ele>88</ele>
        <time>2019-10-27T13:57:44Z</time>
      </trkpt>
      <trkpt lat="44.01213" lon="4.17235">
        <ele>88</ele>
        <time>2019-10-27T13:57:48Z</time>
      </trkpt>
      <trkpt lat="44.01222" lon="4.17257">
        <ele>88</ele>
        <time>2019-10-27T13:57:52Z</time>
      </trkpt>
      <trkpt lat="44.01232" lon="4.17278">
        <ele>88</ele>
        <time>2019-10-27T13:57:56Z</time>
      </trkpt>
      <trkpt lat="44.01243" lon="4.17304">
        <ele>88</ele>
        <time>2019-10-27T13:58:01Z</time>
      </trkpt>
      <trkpt lat="44.01252" lon="4.17326">
        <ele>88</ele>
        <time>2019-10-27T13:58:05Z</time>
      </trkpt>
      <trkpt lat="44.01261" lon="4.17349">
        <ele>88</ele>
        <time>2019-10-27T13:58:09Z</time>
      </trkpt>
      <trkpt lat="44.01266" lon="4.17359">
        <ele>88</ele>
        <time>2019-10-27T13:58:11Z</time>
      </trkpt>
      <trkpt lat="44.01275" lon="4.17389">
        <ele>88</ele>
        <time>2019-10-27T13:58:16Z</time>
      </trkpt>
      <trkpt lat="44.0128" lon="4.17406">
        <ele>88</ele>
        <time>2019-10-27T13:58:19Z</time>
      </trkpt>
      <trkpt lat="44.01287" lon="4.1743">
        <ele>88</ele>
        <time>2019-10-27T13:58:23Z</time>
      </trkpt>
      <trkpt lat="44.01293" lon="4.17461">
        <ele>88</ele>
        <time>2019-10-27T13:58:28Z</time>
      </trkpt>
      <trkpt lat="44.013" lon="4.17485">
        <ele>88</ele>
        <time>2019-10-27T13:58:32Z</time>
      </trkpt>
      <trkpt lat="44.01308" lon="4.1751">
        <ele>88</ele>
        <time>2019-10-27T13:58:36Z</time>
      </trkpt>
      <trkpt lat="44.01317" lon="4.17535">
        <ele>88</ele>
        <time>2019-10-27T13:58:40Z</time>
      </trkpt>
      <trkpt lat="44.01321" lon="4.17546">
        <ele>88</ele>
        <time>2019-10-27T13:58:42Z</time>
      </trkpt>
      <trkpt lat="44.01321" lon="4.17571">
        <ele>88</ele>
        <time>2019-10-27T13:58:46Z</time>
      </trkpt>
      <trkpt lat="44.01309" lon="4.17593">
        <ele>88</ele>
        <time>2019-10-27T13:58:51Z</time>
      </trkpt>
      <trkpt lat="44.01306" lon="4.17596">
        <ele>88</ele>
        <time>2019-10-27T13:58:52Z</time>
      </trkpt>
      <trkpt lat="44.01304" lon="4.176">
        <ele>88</ele>
        <time>2019-10-27T13:58:53Z</time>
      </trkpt>
      <trkpt lat="44.01303" lon="4.17601">
        <ele>88</ele>
        <time>2019-10-27T13:58:54Z</time>
      </trkpt>
      <trkpt lat="44.01302" lon="4.17602">
        <ele>88</ele>
        <time>2019-10-27T14:00:16Z</time>
      </trkpt>
      <trkpt lat="44.01302" lon="4.17604">
        <ele>88</ele>
        <time>2019-10-27T14:00:17Z</time>
      </trkpt>
      <trkpt lat="44.01305" lon="4.1762">
        <ele>88</ele>
        <time>2019-10-27T14:00:23Z</time>
      </trkpt>
      <trkpt lat="44.01315" lon="4.17644">
        <ele>88</ele>
        <time>2019-10-27T14:00:29Z</time>
      </trkpt>
      <trkpt lat="44.01325" lon="4.17667">
        <ele>88</ele>
        <time>2019-10-27T14:00:34Z</time>
      </trkpt>
      <trkpt lat="44.01337" lon="4.1769">
        <ele>88</ele>
        <time>2019-10-27T14:00:39Z</time>
      </trkpt>
      <trkpt lat="44.01348" lon="4.17713">
        <ele>88</ele>
        <time>2019-10-27T14:00:44Z</time>
      </trkpt>
      <trkpt lat="44.01359" lon="4.17736">
        <ele>88</ele>
        <time>2019-10-27T14:00:49Z</time>
      </trkpt>
      <trkpt lat="44.01375" lon="4.17758">
        <ele>88</ele>
        <time>2019-10-27T14:00:55Z</time>
      </trkpt>
      <trkpt lat="44.01391" lon="4.17773">
        <ele>88</ele>
        <time>2019-10-27T14:01:00Z</time>
      </trkpt>
      <trkpt lat="44.01409" lon="4.17778">
        <ele>88</ele>
        <time>2019-10-27T14:01:05Z</time>
      </trkpt>
      <trkpt lat="44.01411" lon="4.17778">
        <ele>88</ele>
        <time>2019-10-27T14:01:06Z</time>
      </trkpt>
      <trkpt lat="44.01433" lon="4.17788">
        <ele>88</ele>
        <time>2019-10-27T14:01:13Z</time>
      </trkpt>
      <trkpt lat="44.01451" lon="4.17792">
        <ele>88</ele>
        <time>2019-10-27T14:01:19Z</time>
      </trkpt>
      <trkpt lat="44.01469" lon="4.17797">
        <ele>88</ele>
        <time>2019-10-27T14:01:25Z</time>
      </trkpt>
      <trkpt lat="44.01484" lon="4.17807">
        <ele>88</ele>
        <time>2019-10-27T14:01:30Z</time>
      </trkpt>
      <trkpt lat="44.01492" lon="4.17833">
        <ele>88</ele>
        <time>2019-10-27T14:01:37Z</time>
      </trkpt>
      <trkpt lat="44.01501" lon="4.17858">
        <ele>88</ele>
        <time>2019-10-27T14:01:43Z</time>
      </trkpt>
      <trkpt lat="44.0151" lon="4.17884">
        <ele>88</ele>
        <time>2019-10-27T14:01:49Z</time>
      </trkpt>
      <trkpt lat="44.01518" lon="4.1791">
        <ele>88</ele>
        <time>2019-10-27T14:01:55Z</time>
      </trkpt>
      <trkpt lat="44.01522" lon="4.17937">
        <ele>88</ele>
        <time>2019-10-27T14:02:00Z</time>
      </trkpt>
      <trkpt lat="44.01517" lon="4.17961">
        <ele>88</ele>
        <time>2019-10-27T14:02:05Z</time>
      </trkpt>
      <trkpt lat="44.01507" lon="4.17983">
        <ele>87</ele>
        <time>2019-10-27T14:02:11Z</time>
      </trkpt>
      <trkpt lat="44.01493" lon="4.18001">
        <ele>87</ele>
        <time>2019-10-27T14:02:17Z</time>
      </trkpt>
      <trkpt lat="44.01479" lon="4.18019">
        <ele>86</ele>
        <time>2019-10-27T14:02:23Z</time>
      </trkpt>
      <trkpt lat="44.01464" lon="4.18038">
        <ele>86</ele>
        <time>2019-10-27T14:02:29Z</time>
      </trkpt>
      <trkpt lat="44.01449" lon="4.18053">
        <ele>86</ele>
        <time>2019-10-27T14:02:34Z</time>
      </trkpt>
      <trkpt lat="44.01435" lon="4.1807">
        <ele>86</ele>
        <time>2019-10-27T14:02:39Z</time>
      </trkpt>
      <trkpt lat="44.01423" lon="4.18089">
        <ele>86</ele>
        <time>2019-10-27T14:02:44Z</time>
      </trkpt>
      <trkpt lat="44.01408" lon="4.18107">
        <ele>86</ele>
        <time>2019-10-27T14:02:50Z</time>
      </trkpt>
      <trkpt lat="44.0139" lon="4.18118">
        <ele>86</ele>
        <time>2019-10-27T14:02:55Z</time>
      </trkpt>
      <trkpt lat="44.0137" lon="4.1813">
        <ele>86</ele>
        <time>2019-10-27T14:03:01Z</time>
      </trkpt>
      <trkpt lat="44.01358" lon="4.18155">
        <ele>86</ele>
        <time>2019-10-27T14:03:07Z</time>
      </trkpt>
      <trkpt lat="44.01345" lon="4.18181">
        <ele>87</ele>
        <time>2019-10-27T14:03:13Z</time>
      </trkpt>
      <trkpt lat="44.01334" lon="4.18201">
        <ele>87</ele>
        <time>2019-10-27T14:03:18Z</time>
      </trkpt>
      <trkpt lat="44.0132" lon="4.18215">
        <ele>87</ele>
        <time>2019-10-27T14:03:22Z</time>
      </trkpt>
      <trkpt lat="44.01307" lon="4.18232">
        <ele>88</ele>
        <time>2019-10-27T14:03:27Z</time>
      </trkpt>
      <trkpt lat="44.01292" lon="4.18253">
        <ele>88</ele>
        <time>2019-10-27T14:03:33Z</time>
      </trkpt>
      <trkpt lat="44.01278" lon="4.18272">
        <ele>88</ele>
        <time>2019-10-27T14:03:37Z</time>
      </trkpt>
      <trkpt lat="44.01262" lon="4.18288">
        <ele>88</ele>
        <time>2019-10-27T14:03:42Z</time>
      </trkpt>
      <trkpt lat="44.01258" lon="4.18293">
        <ele>88</ele>
        <time>2019-10-27T14:03:43Z</time>
      </trkpt>
      <trkpt lat="44.01241" lon="4.18309">
        <ele>88</ele>
        <time>2019-10-27T14:03:48Z</time>
      </trkpt>
      <trkpt lat="44.01226" lon="4.18323">
        <ele>88</ele>
        <time>2019-10-27T14:03:53Z</time>
      </trkpt>
      <trkpt lat="44.01208" lon="4.18337">
        <ele>88</ele>
        <time>2019-10-27T14:03:59Z</time>
      </trkpt>
      <trkpt lat="44.01191" lon="4.18345">
        <ele>88</ele>
        <time>2019-10-27T14:04:04Z</time>
      </trkpt>
      <trkpt lat="44.01171" lon="4.18354">
        <ele>88</ele>
        <time>2019-10-27T14:04:10Z</time>
      </trkpt>
      <trkpt lat="44.01151" lon="4.18362">
        <ele>88</ele>
        <time>2019-10-27T14:04:15Z</time>
      </trkpt>
      <trkpt lat="44.01131" lon="4.18369">
        <ele>88</ele>
        <time>2019-10-27T14:04:20Z</time>
      </trkpt>
      <trkpt lat="44.01111" lon="4.18376">
        <ele>88</ele>
        <time>2019-10-27T14:04:25Z</time>
      </trkpt>
      <trkpt lat="44.01092" lon="4.18383">
        <ele>88</ele>
        <time>2019-10-27T14:04:30Z</time>
      </trkpt>
      <trkpt lat="44.01087" lon="4.18383">
        <ele>88</ele>
        <time>2019-10-27T14:04:31Z</time>
      </trkpt>
      <trkpt lat="44.01067" lon="4.18384">
        <ele>88</ele>
        <time>2019-10-27T14:04:36Z</time>
      </trkpt>
      <trkpt lat="44.01048" lon="4.18385">
        <ele>88</ele>
        <time>2019-10-27T14:04:40Z</time>
      </trkpt>
      <trkpt lat="44.01041" lon="4.18385">
        <ele>88</ele>
        <time>2019-10-27T14:04:42Z</time>
      </trkpt>
      <trkpt lat="44.01032" lon="4.18387">
        <ele>88</ele>
        <time>2019-10-27T14:04:44Z</time>
      </trkpt>
      <trkpt lat="44.01007" lon="4.18393">
        <ele>88</ele>
        <time>2019-10-27T14:04:50Z</time>
      </trkpt>
      <trkpt lat="44.00988" lon="4.18402">
        <ele>88</ele>
        <time>2019-10-27T14:04:55Z</time>
      </trkpt>
      <trkpt lat="44.00969" lon="4.18411">
        <ele>88</ele>
        <time>2019-10-27T14:05:00Z</time>
      </trkpt>
      <trkpt lat="44.0096" lon="4.18415">
        <ele>88</ele>
        <time>2019-10-27T14:05:02Z</time>
      </trkpt>
      <trkpt lat="44.00951" lon="4.18417">
        <ele>88</ele>
        <time>2019-10-27T14:05:04Z</time>
      </trkpt>
      <trkpt lat="44.00929" lon="4.18424">
        <ele>88</ele>
        <time>2019-10-27T14:05:10Z</time>
      </trkpt>
      <trkpt lat="44.00916" lon="4.18427">
        <ele>88</ele>
        <time>2019-10-27T14:05:13Z</time>
      </trkpt>
      <trkpt lat="44.00893" lon="4.18439">
        <ele>88</ele>
        <time>2019-10-27T14:05:19Z</time>
      </trkpt>
      <trkpt lat="44.00876" lon="4.18449">
        <ele>88</ele>
        <time>2019-10-27T14:05:24Z</time>
      </trkpt>
      <trkpt lat="44.0087" lon="4.18451">
        <ele>88</ele>
        <time>2019-10-27T14:05:25Z</time>
      </trkpt>
      <trkpt lat="44.00851" lon="4.18455">
        <ele>88</ele>
        <time>2019-10-27T14:05:30Z</time>
      </trkpt>
      <trkpt lat="44.00846" lon="4.18456">
        <ele>88</ele>
        <time>2019-10-27T14:05:31Z</time>
      </trkpt>
      <trkpt lat="44.00824" lon="4.18462">
        <ele>88</ele>
        <time>2019-10-27T14:05:37Z</time>
      </trkpt>
      <trkpt lat="44.00806" lon="4.18466">
        <ele>88</ele>
        <time>2019-10-27T14:05:42Z</time>
      </trkpt>
      <trkpt lat="44.00787" lon="4.18469">
        <ele>88</ele>
        <time>2019-10-27T14:05:47Z</time>
      </trkpt>
      <trkpt lat="44.00766" lon="4.18462">
        <ele>88</ele>
        <time>2019-10-27T14:05:53Z</time>
      </trkpt>
      <trkpt lat="44.00748" lon="4.18453">
        <ele>88</ele>
        <time>2019-10-27T14:05:58Z</time>
      </trkpt>
      <trkpt lat="44.00729" lon="4.18453">
        <ele>88</ele>
        <time>2019-10-27T14:06:03Z</time>
      </trkpt>
      <trkpt lat="44.00709" lon="4.18455">
        <ele>88</ele>
        <time>2019-10-27T14:06:08Z</time>
      </trkpt>
      <trkpt lat="44.00688" lon="4.18458">
        <ele>88</ele>
        <time>2019-10-27T14:06:13Z</time>
      </trkpt>
      <trkpt lat="44.00668" lon="4.18464">
        <ele>88</ele>
        <time>2019-10-27T14:06:18Z</time>
      </trkpt>
      <trkpt lat="44.00654" lon="4.18469">
        <ele>88</ele>
        <time>2019-10-27T14:06:21Z</time>
      </trkpt>
      <trkpt lat="44.00637" lon="4.18471">
        <ele>88</ele>
        <time>2019-10-27T14:06:25Z</time>
      </trkpt>
      <trkpt lat="44.00613" lon="4.18468">
        <ele>88</ele>
        <time>2019-10-27T14:06:31Z</time>
      </trkpt>
      <trkpt lat="44.00609" lon="4.18467">
        <ele>88</ele>
        <time>2019-10-27T14:06:32Z</time>
      </trkpt>
      <trkpt lat="44.00595" lon="4.18465">
        <ele>88</ele>
        <time>2019-10-27T14:06:36Z</time>
      </trkpt>
      <trkpt lat="44.00586" lon="4.18463">
        <ele>88</ele>
        <time>2019-10-27T14:06:38Z</time>
      </trkpt>
      <trkpt lat="44.00571" lon="4.18465">
        <ele>88</ele>
        <time>2019-10-27T14:06:41Z</time>
      </trkpt>
      <trkpt lat="44.00548" lon="4.18462">
        <ele>88</ele>
        <time>2019-10-27T14:06:46Z</time>
      </trkpt>
      <trkpt lat="44.00524" lon="4.18459">
        <ele>88</ele>
        <time>2019-10-27T14:06:53Z</time>
      </trkpt>
      <trkpt lat="44.00505" lon="4.18454">
        <ele>88</ele>
        <time>2019-10-27T14:06:59Z</time>
      </trkpt>
      <trkpt lat="44.00486" lon="4.18451">
        <ele>88</ele>
        <time>2019-10-27T14:07:05Z</time>
      </trkpt>
      <trkpt lat="44.00465" lon="4.1845">
        <ele>88</ele>
        <time>2019-10-27T14:07:11Z</time>
      </trkpt>
      <trkpt lat="44.00447" lon="4.18452">
        <ele>88</ele>
        <time>2019-10-27T14:07:16Z</time>
      </trkpt>
      <trkpt lat="44.00428" lon="4.18454">
        <ele>88</ele>
        <time>2019-10-27T14:07:21Z</time>
      </trkpt>
      <trkpt lat="44.0041" lon="4.18456">
        <ele>88</ele>
        <time>2019-10-27T14:07:26Z</time>
      </trkpt>
      <trkpt lat="44.00391" lon="4.18459">
        <ele>88</ele>
        <time>2019-10-27T14:07:32Z</time>
      </trkpt>
      <trkpt lat="44.00388" lon="4.18459">
        <ele>88</ele>
        <time>2019-10-27T14:07:33Z</time>
      </trkpt>
      <trkpt lat="44.00365" lon="4.18446">
        <ele>88</ele>
        <time>2019-10-27T14:07:40Z</time>
      </trkpt>
      <trkpt lat="44.0035" lon="4.18429">
        <ele>88</ele>
        <time>2019-10-27T14:07:45Z</time>
      </trkpt>
      <trkpt lat="44.00334" lon="4.18413">
        <ele>88</ele>
        <time>2019-10-27T14:07:51Z</time>
      </trkpt>
      <trkpt lat="44.00318" lon="4.18398">
        <ele>88</ele>
        <time>2019-10-27T14:07:57Z</time>
      </trkpt>
      <trkpt lat="44.00301" lon="4.18383">
        <ele>88</ele>
        <time>2019-10-27T14:08:03Z</time>
      </trkpt>
      <trkpt lat="44.00282" lon="4.18371">
        <ele>88</ele>
        <time>2019-10-27T14:08:09Z</time>
      </trkpt>
      <trkpt lat="44.00264" lon="4.18356">
        <ele>87</ele>
        <time>2019-10-27T14:08:15Z</time>
      </trkpt>
      <trkpt lat="44.00246" lon="4.18342">
        <ele>87</ele>
        <time>2019-10-27T14:08:21Z</time>
      </trkpt>
      <trkpt lat="44.00225" lon="4.18335">
        <ele>86</ele>
        <time>2019-10-27T14:08:27Z</time>
      </trkpt>
      <trkpt lat="44.00207" lon="4.18333">
        <ele>86</ele>
        <time>2019-10-27T14:08:32Z</time>
      </trkpt>
      <trkpt lat="44.00186" lon="4.18334">
        <ele>86</ele>
        <time>2019-10-27T14:08:38Z</time>
      </trkpt>
      <trkpt lat="44.00161" lon="4.18338">
        <ele>86</ele>
        <time>2019-10-27T14:08:45Z</time>
      </trkpt>
      <trkpt lat="44.00142" lon="4.18332">
        <ele>86</ele>
        <time>2019-10-27T14:08:51Z</time>
      </trkpt>
      <trkpt lat="44.00125" lon="4.18317">
        <ele>85</ele>
        <time>2019-10-27T14:08:57Z</time>
      </trkpt>
      <trkpt lat="44.00109" lon="4.18304">
        <ele>85</ele>
        <time>2019-10-27T14:09:02Z</time>
      </trkpt>
      <trkpt lat="44.0009" lon="4.18293">
        <ele>84</ele>
        <time>2019-10-27T14:09:08Z</time>
      </trkpt>
      <trkpt lat="44.00069" lon="4.1829">
        <ele>84</ele>
        <time>2019-10-27T14:09:14Z</time>
      </trkpt>
      <trkpt lat="44.00049" lon="4.18294">
        <ele>84</ele>
        <time>2019-10-27T14:09:20Z</time>
      </trkpt>
      <trkpt lat="44.00033" lon="4.18298">
        <ele>84</ele>
        <time>2019-10-27T14:09:25Z</time>
      </trkpt>
      <trkpt lat="44.00013" lon="4.18301">
        <ele>84</ele>
        <time>2019-10-27T14:09:31Z</time>
      </trkpt>
      <trkpt lat="44.00003" lon="4.18305">
        <ele>84</ele>
        <time>2019-10-27T14:09:35Z</time>
      </trkpt>
      <trkpt lat="43.99991" lon="4.18298">
        <ele>84</ele>
        <time>2019-10-27T14:09:40Z</time>
      </trkpt>
      <trkpt lat="43.99991" lon="4.18272">
        <ele>84</ele>
        <time>2019-10-27T14:09:49Z</time>
      </trkpt>
      <trkpt lat="44.00002" lon="4.18251">
        <ele>84</ele>
        <time>2019-10-27T14:09:55Z</time>
      </trkpt>
      <trkpt lat="44.00014" lon="4.18229">
        <ele>84</ele>
        <time>2019-10-27T14:10:01Z</time>
      </trkpt>
      <trkpt lat="44.00025" lon="4.18206">
        <ele>84</ele>
        <time>2019-10-27T14:10:06Z</time>
      </trkpt>
      <trkpt lat="44.00037" lon="4.18182">
        <ele>84</ele>
        <time>2019-10-27T14:10:11Z</time>
      </trkpt>
      <trkpt lat="44.00048" lon="4.18162">
        <ele>84</ele>
        <time>2019-10-27T14:10:15Z</time>
      </trkpt>
      <trkpt lat="44.00061" lon="4.18136">
        <ele>84</ele>
        <time>2019-10-27T14:10:20Z</time>
      </trkpt>
      <trkpt lat="44.00072" lon="4.18116">
        <ele>84</ele>
        <time>2019-10-27T14:10:24Z</time>
      </trkpt>
      <trkpt lat="44.00084" lon="4.18096">
        <ele>84</ele>
        <time>2019-10-27T14:10:28Z</time>
      </trkpt>
      <trkpt lat="44.00099" lon="4.1807">
        <ele>84</ele>
        <time>2019-10-27T14:10:33Z</time>
      </trkpt>
      <trkpt lat="44.00111" lon="4.1805">
        <ele>84</ele>
        <time>2019-10-27T14:10:37Z</time>
      </trkpt>
      <trkpt lat="44.00127" lon="4.18024">
        <ele>84</ele>
        <time>2019-10-27T14:10:42Z</time>
      </trkpt>
      <trkpt lat="44.00141" lon="4.18004">
        <ele>84</ele>
        <time>2019-10-27T14:10:46Z</time>
      </trkpt>
      <trkpt lat="44.00155" lon="4.17984">
        <ele>84</ele>
        <time>2019-10-27T14:10:50Z</time>
      </trkpt>
      <trkpt lat="44.0017" lon="4.17965">
        <ele>84</ele>
        <time>2019-10-27T14:10:54Z</time>
      </trkpt>
      <trkpt lat="44.00186" lon="4.17946">
        <ele>84</ele>
        <time>2019-10-27T14:10:58Z</time>
      </trkpt>
      <trkpt lat="44.00202" lon="4.17927">
        <ele>84</ele>
        <time>2019-10-27T14:11:02Z</time>
      </trkpt>
      <trkpt lat="44.00218" lon="4.17909">
        <ele>84</ele>
        <time>2019-10-27T14:11:06Z</time>
      </trkpt>
      <trkpt lat="44.00235" lon="4.1789">
        <ele>84</ele>
        <time>2019-10-27T14:11:10Z</time>
      </trkpt>
      <trkpt lat="44.00252" lon="4.17873">
        <ele>84</ele>
        <time>2019-10-27T14:11:14Z</time>
      </trkpt>
      <trkpt lat="44.0027" lon="4.17857">
        <ele>84</ele>
        <time>2019-10-27T14:11:18Z</time>
      </trkpt>
      <trkpt lat="44.00289" lon="4.17844">
        <ele>84</ele>
        <time>2019-10-27T14:11:22Z</time>
      </trkpt>
      <trkpt lat="44.00308" lon="4.17832">
        <ele>84</ele>
        <time>2019-10-27T14:11:26Z</time>
      </trkpt>
      <trkpt lat="44.00322" lon="4.17822">
        <ele>84</ele>
        <time>2019-10-27T14:11:29Z</time>
      </trkpt>
      <trkpt lat="44.00337" lon="4.178">
        <ele>84</ele>
        <time>2019-10-27T14:11:34Z</time>
      </trkpt>
      <trkpt lat="44.00336" lon="4.17779">
        <ele>84</ele>
        <time>2019-10-27T14:11:38Z</time>
      </trkpt>
      <trkpt lat="44.00334" lon="4.17775">
        <ele>84</ele>
        <time>2019-10-27T14:11:39Z</time>
      </trkpt>
      <trkpt lat="44.00326" lon="4.17751">
        <ele>84</ele>
        <time>2019-10-27T14:11:45Z</time>
      </trkpt>
      <trkpt lat="44.00321" lon="4.17735">
        <ele>84</ele>
        <time>2019-10-27T14:11:50Z</time>
      </trkpt>
      <trkpt lat="44.0032" lon="4.17733">
        <ele>84</ele>
        <time>2019-10-27T14:11:52Z</time>
      </trkpt>
      <trkpt lat="44.00317" lon="4.17728">
        <ele>92</ele>
        <time>2019-10-27T14:13:58Z</time>
      </trkpt>
      <trkpt lat="44.00316" lon="4.17726">
        <ele>92</ele>
        <time>2019-10-27T14:14:02Z</time>
      </trkpt>
      <trkpt lat="44.00305" lon="4.17728">
        <ele>92</ele>
        <time>2019-10-27T14:14:07Z</time>
      </trkpt>
      <trkpt lat="44.003" lon="4.17733">
        <ele>92</ele>
        <time>2019-10-27T14:14:09Z</time>
      </trkpt>
      <trkpt lat="44.00281" lon="4.17752">
        <ele>92</ele>
        <time>2019-10-27T14:14:15Z</time>
      </trkpt>
      <trkpt lat="44.00264" lon="4.17769">
        <ele>92</ele>
        <time>2019-10-27T14:14:20Z</time>
      </trkpt>
      <trkpt lat="44.00247" lon="4.17786">
        <ele>92</ele>
        <time>2019-10-27T14:14:25Z</time>
      </trkpt>
      <trkpt lat="44.00229" lon="4.17804">
        <ele>92</ele>
        <time>2019-10-27T14:14:30Z</time>
      </trkpt>
      <trkpt lat="44.00215" lon="4.17819">
        <ele>92</ele>
        <time>2019-10-27T14:14:34Z</time>
      </trkpt>
      <trkpt lat="44.002" lon="4.17836">
        <ele>92</ele>
        <time>2019-10-27T14:14:38Z</time>
      </trkpt>
      <trkpt lat="44.00185" lon="4.17851">
        <ele>91</ele>
        <time>2019-10-27T14:14:42Z</time>
      </trkpt>
      <trkpt lat="44.00169" lon="4.17866">
        <ele>91</ele>
        <time>2019-10-27T14:14:46Z</time>
      </trkpt>
      <trkpt lat="44.00153" lon="4.1788">
        <ele>90</ele>
        <time>2019-10-27T14:14:50Z</time>
      </trkpt>
      <trkpt lat="44.00136" lon="4.17894">
        <ele>90</ele>
        <time>2019-10-27T14:14:54Z</time>
      </trkpt>
      <trkpt lat="44.00119" lon="4.17909">
        <ele>90</ele>
        <time>2019-10-27T14:14:58Z</time>
      </trkpt>
      <trkpt lat="44.00102" lon="4.17923">
        <ele>90</ele>
        <time>2019-10-27T14:15:02Z</time>
      </trkpt>
      <trkpt lat="44.00085" lon="4.17938">
        <ele>89</ele>
        <time>2019-10-27T14:15:06Z</time>
      </trkpt>
      <trkpt lat="44.00066" lon="4.17953">
        <ele>89</ele>
        <time>2019-10-27T14:15:10Z</time>
      </trkpt>
      <trkpt lat="44.00048" lon="4.17969">
        <ele>88</ele>
        <time>2019-10-27T14:15:14Z</time>
      </trkpt>
      <trkpt lat="44.00029" lon="4.17984">
        <ele>88</ele>
        <time>2019-10-27T14:15:18Z</time>
      </trkpt>
      <trkpt lat="44.00012" lon="4.17998">
        <ele>88</ele>
        <time>2019-10-27T14:15:23Z</time>
      </trkpt>
      <trkpt lat="43.99992" lon="4.18013">
        <ele>88</ele>
        <time>2019-10-27T14:15:27Z</time>
      </trkpt>
      <trkpt lat="43.99974" lon="4.18028">
        <ele>88</ele>
        <time>2019-10-27T14:15:31Z</time>
      </trkpt>
      <trkpt lat="43.99957" lon="4.18043">
        <ele>88</ele>
        <time>2019-10-27T14:15:35Z</time>
      </trkpt>
      <trkpt lat="43.99941" lon="4.18058">
        <ele>88</ele>
        <time>2019-10-27T14:15:39Z</time>
      </trkpt>
      <trkpt lat="43.99926" lon="4.18077">
        <ele>88</ele>
        <time>2019-10-27T14:15:43Z</time>
      </trkpt>
      <trkpt lat="43.99913" lon="4.18098">
        <ele>88</ele>
        <time>2019-10-27T14:15:47Z</time>
      </trkpt>
      <trkpt lat="43.999" lon="4.18122">
        <ele>88</ele>
        <time>2019-10-27T14:15:51Z</time>
      </trkpt>
      <trkpt lat="43.99888" lon="4.18148">
        <ele>88</ele>
        <time>2019-10-27T14:15:55Z</time>
      </trkpt>
      <trkpt lat="43.99877" lon="4.18171">
        <ele>88</ele>
        <time>2019-10-27T14:15:59Z</time>
      </trkpt>
      <trkpt lat="43.99866" lon="4.18194">
        <ele>88</ele>
        <time>2019-10-27T14:16:03Z</time>
      </trkpt>
      <trkpt lat="43.99856" lon="4.18215">
        <ele>88</ele>
        <time>2019-10-27T14:16:07Z</time>
      </trkpt>
      <trkpt lat="43.99845" lon="4.18238">
        <ele>88</ele>
        <time>2019-10-27T14:16:11Z</time>
      </trkpt>
      <trkpt lat="43.99835" lon="4.1826">
        <ele>88</ele>
        <time>2019-10-27T14:16:15Z</time>
      </trkpt>
      <trkpt lat="43.99833" lon="4.18265">
        <ele>88</ele>
        <time>2019-10-27T14:16:16Z</time>
      </trkpt>
      <trkpt lat="43.99822" lon="4.18268">
        <ele>88</ele>
        <time>2019-10-27T14:16:20Z</time>
      </trkpt>
      <trkpt lat="43.99819" lon="4.18254">
        <ele>88</ele>
        <time>2019-10-27T14:16:23Z</time>
      </trkpt>
      <trkpt lat="43.99808" lon="4.18226">
        <ele>88</ele>
        <time>2019-10-27T14:16:30Z</time>
      </trkpt>
      <trkpt lat="43.99796" lon="4.18212">
        <ele>88</ele>
        <time>2019-10-27T14:16:35Z</time>
      </trkpt>
      <trkpt lat="43.9978" lon="4.18202">
        <ele>88</ele>
        <time>2019-10-27T14:16:40Z</time>
      </trkpt>
      <trkpt lat="43.99775" lon="4.18199">
        <ele>88</ele>
        <time>2019-10-27T14:16:42Z</time>
      </trkpt>
      <trkpt lat="43.99765" lon="4.18206">
        <ele>88</ele>
        <time>2019-10-27T14:16:47Z</time>
      </trkpt>
      <trkpt lat="43.9976" lon="4.18222">
        <ele>88</ele>
        <time>2019-10-27T14:16:52Z</time>
      </trkpt>
      <trkpt lat="43.99758" lon="4.18225">
        <ele>88</ele>
        <time>2019-10-27T14:16:53Z</time>
      </trkpt>
      <trkpt lat="43.99755" lon="4.1823">
        <ele>88</ele>
        <time>2019-10-27T14:16:54Z</time>
      </trkpt>
      <trkpt lat="43.99747" lon="4.18259">
        <ele>88</ele>
        <time>2019-10-27T14:17:01Z</time>
      </trkpt>
      <trkpt lat="43.99737" lon="4.18281">
        <ele>88</ele>
        <time>2019-10-27T14:17:07Z</time>
      </trkpt>
      <trkpt lat="43.99735" lon="4.18285">
        <ele>88</ele>
        <time>2019-10-27T14:17:08Z</time>
      </trkpt>
      <trkpt lat="43.99718" lon="4.18307">
        <ele>88</ele>
        <time>2019-10-27T14:17:15Z</time>
      </trkpt>
      <trkpt lat="43.99703" lon="4.18325">
        <ele>88</ele>
        <time>2019-10-27T14:17:21Z</time>
      </trkpt>
      <trkpt lat="43.99688" lon="4.18345">
        <ele>88</ele>
        <time>2019-10-27T14:17:27Z</time>
      </trkpt>
      <trkpt lat="43.99675" lon="4.18367">
        <ele>88</ele>
        <time>2019-10-27T14:17:33Z</time>
      </trkpt>
      <trkpt lat="43.99662" lon="4.18388">
        <ele>88</ele>
        <time>2019-10-27T14:17:39Z</time>
      </trkpt>
      <trkpt lat="43.99648" lon="4.18409">
        <ele>88</ele>
        <time>2019-10-27T14:17:45Z</time>
      </trkpt>
      <trkpt lat="43.99634" lon="4.18428">
        <ele>88</ele>
        <time>2019-10-27T14:17:51Z</time>
      </trkpt>
      <trkpt lat="43.99619" lon="4.18447">
        <ele>88</ele>
        <time>2019-10-27T14:17:57Z</time>
      </trkpt>
      <trkpt lat="43.99606" lon="4.18465">
        <ele>88</ele>
        <time>2019-10-27T14:18:03Z</time>
      </trkpt>
      <trkpt lat="43.99601" lon="4.18486">
        <ele>88</ele>
        <time>2019-10-27T14:18:08Z</time>
      </trkpt>
      <trkpt lat="43.99603" lon="4.18508">
        <ele>88</ele>
        <time>2019-10-27T14:18:14Z</time>
      </trkpt>
      <trkpt lat="43.99603" lon="4.18522">
        <ele>88</ele>
        <time>2019-10-27T14:18:20Z</time>
      </trkpt>
      <trkpt lat="43.99598" lon="4.18536">
        <ele>88</ele>
        <time>2019-10-27T14:18:25Z</time>
      </trkpt>
      <trkpt lat="43.99593" lon="4.18546">
        <ele>88</ele>
        <time>2019-10-27T14:18:28Z</time>
      </trkpt>
      <trkpt lat="43.99587" lon="4.1856">
        <ele>88</ele>
        <time>2019-10-27T14:18:32Z</time>
      </trkpt>
      <trkpt lat="43.99586" lon="4.1857">
        <ele>88</ele>
        <time>2019-10-27T14:18:34Z</time>
      </trkpt>
      <trkpt lat="43.99583" lon="4.18594">
        <ele>88</ele>
        <time>2019-10-27T14:18:39Z</time>
      </trkpt>
      <trkpt lat="43.99582" lon="4.18597">
        <ele>88</ele>
        <time>2019-10-27T14:18:40Z</time>
      </trkpt>
      <trkpt lat="43.99583" lon="4.18609">
        <ele>88</ele>
        <time>2019-10-27T14:18:44Z</time>
      </trkpt>
      <trkpt lat="43.99572" lon="4.18625">
        <ele>88</ele>
        <time>2019-10-27T14:18:51Z</time>
      </trkpt>
      <trkpt lat="43.99557" lon="4.1864">
        <ele>88</ele>
        <time>2019-10-27T14:18:57Z</time>
      </trkpt>
      <trkpt lat="43.99552" lon="4.18643">
        <ele>88</ele>
        <time>2019-10-27T14:19:00Z</time>
      </trkpt>
      <trkpt lat="43.99551" lon="4.18647">
        <ele>88</ele>
        <time>2019-10-27T14:19:03Z</time>
      </trkpt>
      <trkpt lat="43.99541" lon="4.18653">
        <ele>88</ele>
        <time>2019-10-27T14:19:08Z</time>
      </trkpt>
      <trkpt lat="43.99528" lon="4.18661">
        <ele>88</ele>
        <time>2019-10-27T14:19:13Z</time>
      </trkpt>
      <trkpt lat="43.99519" lon="4.18665">
        <ele>88</ele>
        <time>2019-10-27T14:19:18Z</time>
      </trkpt>
      <trkpt lat="43.99516" lon="4.18665">
        <ele>88</ele>
        <time>2019-10-27T14:19:19Z</time>
      </trkpt>
      <trkpt lat="43.99512" lon="4.18657">
        <ele>88</ele>
        <time>2019-10-27T14:19:23Z</time>
      </trkpt>
      <trkpt lat="43.99507" lon="4.18649">
        <ele>88</ele>
        <time>2019-10-27T14:19:26Z</time>
      </trkpt>
      <trkpt lat="43.99494" lon="4.18641">
        <ele>88</ele>
        <time>2019-10-27T14:19:31Z</time>
      </trkpt>
      <trkpt lat="43.99486" lon="4.18629">
        <ele>88</ele>
        <time>2019-10-27T14:19:36Z</time>
      </trkpt>
      <trkpt lat="43.9948" lon="4.18622">
        <ele>88</ele>
        <time>2019-10-27T14:19:40Z</time>
      </trkpt>
      <trkpt lat="43.99469" lon="4.18619">
        <ele>88</ele>
        <time>2019-10-27T14:19:45Z</time>
      </trkpt>
      <trkpt lat="43.99468" lon="4.18618">
        <ele>88</ele>
        <time>2019-10-27T14:19:46Z</time>
      </trkpt>
      <trkpt lat="43.99469" lon="4.18614">
        <ele>88</ele>
        <time>2019-10-27T14:19:51Z</time>
      </trkpt>
      <trkpt lat="43.99468" lon="4.18614">
        <ele>88</ele>
        <time>2019-10-27T14:19:52Z</time>
      </trkpt>
      <trkpt lat="43.99468" lon="4.18618">
        <ele>90</ele>
        <time>2019-10-27T14:21:36Z</time>
      </trkpt>
      <trkpt lat="43.99472" lon="4.18614">
        <ele>90</ele>
        <time>2019-10-27T14:21:43Z</time>
      </trkpt>
      <trkpt lat="43.99473" lon="4.18612">
        <ele>90</ele>
        <time>2019-10-27T14:21:44Z</time>
      </trkpt>
      <trkpt lat="43.99482" lon="4.18602">
        <ele>90</ele>
        <time>2019-10-27T14:21:50Z</time>
      </trkpt>
      <trkpt lat="43.99484" lon="4.18601">
        <ele>90</ele>
        <time>2019-10-27T14:21:51Z</time>
      </trkpt>
      <trkpt lat="43.99502" lon="4.18582">
        <ele>90</ele>
        <time>2019-10-27T14:22:01Z</time>
      </trkpt>
      <trkpt lat="43.99503" lon="4.18581">
        <ele>90</ele>
        <time>2019-10-27T14:22:02Z</time>
      </trkpt>
      <trkpt lat="43.99511" lon="4.1857">
        <ele>90</ele>
        <time>2019-10-27T14:22:07Z</time>
      </trkpt>
      <trkpt lat="43.99508" lon="4.18556">
        <ele>90</ele>
        <time>2019-10-27T14:22:12Z</time>
      </trkpt>
      <trkpt lat="43.99506" lon="4.18556">
        <ele>90</ele>
        <time>2019-10-27T14:22:16Z</time>
      </trkpt>
      <trkpt lat="43.99505" lon="4.18557">
        <ele>90</ele>
        <time>2019-10-27T14:22:17Z</time>
      </trkpt>
      <trkpt lat="43.99497" lon="4.18559">
        <ele>90</ele>
        <time>2019-10-27T14:22:20Z</time>
      </trkpt>
      <trkpt lat="43.99487" lon="4.18548">
        <ele>90</ele>
        <time>2019-10-27T14:22:24Z</time>
      </trkpt>
      <trkpt lat="43.99482" lon="4.18523">
        <ele>90</ele>
        <time>2019-10-27T14:22:29Z</time>
      </trkpt>
      <trkpt lat="43.9948" lon="4.18516">
        <ele>90</ele>
        <time>2019-10-27T14:22:31Z</time>
      </trkpt>
      <trkpt lat="43.99474" lon="4.18501">
        <ele>90</ele>
        <time>2019-10-27T14:22:36Z</time>
      </trkpt>
      <trkpt lat="43.99474" lon="4.18494">
        <ele>91</ele>
        <time>2019-10-27T14:22:38Z</time>
      </trkpt>
      <trkpt lat="43.9948" lon="4.18466">
        <ele>91</ele>
        <time>2019-10-27T14:22:45Z</time>
      </trkpt>
      <trkpt lat="43.99483" lon="4.1845">
        <ele>92</ele>
        <time>2019-10-27T14:22:50Z</time>
      </trkpt>
      <trkpt lat="43.99483" lon="4.18448">
        <ele>92</ele>
        <time>2019-10-27T14:22:51Z</time>
      </trkpt>
      <trkpt lat="43.99475" lon="4.18442">
        <ele>93</ele>
        <time>2019-10-27T14:22:57Z</time>
      </trkpt>
      <trkpt lat="43.99472" lon="4.18443">
        <ele>93</ele>
        <time>2019-10-27T14:22:58Z</time>
      </trkpt>
      <trkpt lat="43.99452" lon="4.18454">
        <ele>94</ele>
        <time>2019-10-27T14:23:03Z</time>
      </trkpt>
      <trkpt lat="43.99431" lon="4.18459">
        <ele>94</ele>
        <time>2019-10-27T14:23:08Z</time>
      </trkpt>
      <trkpt lat="43.99428" lon="4.18459">
        <ele>94</ele>
        <time>2019-10-27T14:23:09Z</time>
      </trkpt>
      <trkpt lat="43.9942" lon="4.18459">
        <ele>94</ele>
        <time>2019-10-27T14:23:12Z</time>
      </trkpt>
      <trkpt lat="43.99407" lon="4.18462">
        <ele>94</ele>
        <time>2019-10-27T14:23:18Z</time>
      </trkpt>
      <trkpt lat="43.994" lon="4.18464">
        <ele>94</ele>
        <time>2019-10-27T14:23:22Z</time>
      </trkpt>
      <trkpt lat="43.99391" lon="4.18469">
        <ele>94</ele>
        <time>2019-10-27T14:23:28Z</time>
      </trkpt>
      <trkpt lat="43.99386" lon="4.18476">
        <ele>94</ele>
        <time>2019-10-27T14:23:39Z</time>
      </trkpt>
      <trkpt lat="43.99379" lon="4.18491">
        <ele>95</ele>
        <time>2019-10-27T14:23:46Z</time>
      </trkpt>
      <trkpt lat="43.99372" lon="4.18502">
        <ele>96</ele>
        <time>2019-10-27T14:23:51Z</time>
      </trkpt>
      <trkpt lat="43.99363" lon="4.18504">
        <ele>96</ele>
        <time>2019-10-27T14:23:56Z</time>
      </trkpt>
      <trkpt lat="43.99357" lon="4.18506">
        <ele>96</ele>
        <time>2019-10-27T14:24:00Z</time>
      </trkpt>
      <trkpt lat="43.99349" lon="4.18511">
        <ele>96</ele>
        <time>2019-10-27T14:24:06Z</time>
      </trkpt>
      <trkpt lat="43.99343" lon="4.18513">
        <ele>96</ele>
        <time>2019-10-27T14:24:10Z</time>
      </trkpt>
      <trkpt lat="43.9934" lon="4.18513">
        <ele>98</ele>
        <time>2019-10-27T14:24:23Z</time>
      </trkpt>
      <trkpt lat="43.99339" lon="4.18514">
        <ele>98</ele>
        <time>2019-10-27T14:24:27Z</time>
      </trkpt>
      <trkpt lat="43.99338" lon="4.18516">
        <ele>102</ele>
        <time>2019-10-27T14:25:27Z</time>
      </trkpt>
      <trkpt lat="43.99333" lon="4.18514">
        <ele>102</ele>
        <time>2019-10-27T14:25:34Z</time>
      </trkpt>
      <trkpt lat="43.99325" lon="4.18506">
        <ele>102</ele>
        <time>2019-10-27T14:25:40Z</time>
      </trkpt>
      <trkpt lat="43.99317" lon="4.18496">
        <ele>102</ele>
        <time>2019-10-27T14:25:46Z</time>
      </trkpt>
      <trkpt lat="43.99306" lon="4.18492">
        <ele>102</ele>
        <time>2019-10-27T14:25:52Z</time>
      </trkpt>
      <trkpt lat="43.99288" lon="4.18487">
        <ele>102</ele>
        <time>2019-10-27T14:25:58Z</time>
      </trkpt>
      <trkpt lat="43.99275" lon="4.18486">
        <ele>103</ele>
        <time>2019-10-27T14:26:04Z</time>
      </trkpt>
      <trkpt lat="43.9927" lon="4.18486">
        <ele>103</ele>
        <time>2019-10-27T14:26:07Z</time>
      </trkpt>
      <trkpt lat="43.99264" lon="4.1848">
        <ele>104</ele>
        <time>2019-10-27T14:26:12Z</time>
      </trkpt>
      <trkpt lat="43.99264" lon="4.18486">
        <ele>104</ele>
        <time>2019-10-27T14:26:15Z</time>
      </trkpt>
      <trkpt lat="43.99272" lon="4.18489">
        <ele>104</ele>
        <time>2019-10-27T14:26:18Z</time>
      </trkpt>
      <trkpt lat="43.99276" lon="4.18489">
        <ele>104</ele>
        <time>2019-10-27T14:26:19Z</time>
      </trkpt>
      <trkpt lat="43.99304" lon="4.18493">
        <ele>104</ele>
        <time>2019-10-27T14:26:24Z</time>
      </trkpt>
      <trkpt lat="43.9931" lon="4.18494">
        <ele>104</ele>
        <time>2019-10-27T14:26:25Z</time>
      </trkpt>
      <trkpt lat="43.99321" lon="4.18498">
        <ele>104</ele>
        <time>2019-10-27T14:26:29Z</time>
      </trkpt>
      <trkpt lat="43.99323" lon="4.18501">
        <ele>104</ele>
        <time>2019-10-27T14:26:30Z</time>
      </trkpt>
      <trkpt lat="43.9934" lon="4.1852">
        <ele>104</ele>
        <time>2019-10-27T14:26:36Z</time>
      </trkpt>
      <trkpt lat="43.99344" lon="4.18537">
        <ele>104</ele>
        <time>2019-10-27T14:26:40Z</time>
      </trkpt>
      <trkpt lat="43.99344" lon="4.18542">
        <ele>104</ele>
        <time>2019-10-27T14:26:41Z</time>
      </trkpt>
      <trkpt lat="43.99353" lon="4.18552">
        <ele>104</ele>
        <time>2019-10-27T14:26:45Z</time>
      </trkpt>
      <trkpt lat="43.99366" lon="4.18552">
        <ele>104</ele>
        <time>2019-10-27T14:26:48Z</time>
      </trkpt>
      <trkpt lat="43.99385" lon="4.18557">
        <ele>103</ele>
        <time>2019-10-27T14:26:52Z</time>
      </trkpt>
      <trkpt lat="43.99401" lon="4.18557">
        <ele>103</ele>
        <time>2019-10-27T14:26:56Z</time>
      </trkpt>
      <trkpt lat="43.99405" lon="4.18556">
        <ele>103</ele>
        <time>2019-10-27T14:27:01Z</time>
      </trkpt>
      <trkpt lat="43.99411" lon="4.18554">
        <ele>102</ele>
        <time>2019-10-27T14:27:33Z</time>
      </trkpt>
      <trkpt lat="43.99429" lon="4.18546">
        <ele>102</ele>
        <time>2019-10-27T14:27:38Z</time>
      </trkpt>
      <trkpt lat="43.99448" lon="4.18531">
        <ele>101</ele>
        <time>2019-10-27T14:27:42Z</time>
      </trkpt>
      <trkpt lat="43.99451" lon="4.18529">
        <ele>101</ele>
        <time>2019-10-27T14:27:43Z</time>
      </trkpt>
      <trkpt lat="43.99459" lon="4.18533">
        <ele>100</ele>
        <time>2019-10-27T14:27:48Z</time>
      </trkpt>
      <trkpt lat="43.99466" lon="4.18553">
        <ele>98</ele>
        <time>2019-10-27T14:27:54Z</time>
      </trkpt>
      <trkpt lat="43.99469" lon="4.18571">
        <ele>97</ele>
        <time>2019-10-27T14:27:59Z</time>
      </trkpt>
      <trkpt lat="43.99468" lon="4.18575">
        <ele>96</ele>
        <time>2019-10-27T14:28:01Z</time>
      </trkpt>
      <trkpt lat="43.99467" lon="4.18575">
        <ele>96</ele>
        <time>2019-10-27T14:28:04Z</time>
      </trkpt>
      <trkpt lat="43.99456" lon="4.18579">
        <ele>93</ele>
        <time>2019-10-27T14:32:06Z</time>
      </trkpt>
      <trkpt lat="43.99458" lon="4.18587">
        <ele>93</ele>
        <time>2019-10-27T14:32:10Z</time>
      </trkpt>
      <trkpt lat="43.99459" lon="4.18588">
        <ele>93</ele>
        <time>2019-10-27T14:32:11Z</time>
      </trkpt>
      <trkpt lat="43.9947" lon="4.18586">
        <ele>94</ele>
        <time>2019-10-27T14:32:17Z</time>
      </trkpt>
      <trkpt lat="43.99477" lon="4.18579">
        <ele>94</ele>
        <time>2019-10-27T14:32:22Z</time>
      </trkpt>
      <trkpt lat="43.99482" lon="4.18561">
        <ele>94</ele>
        <time>2019-10-27T14:32:29Z</time>
      </trkpt>
      <trkpt lat="43.99478" lon="4.18542">
        <ele>94</ele>
        <time>2019-10-27T14:32:34Z</time>
      </trkpt>
      <trkpt lat="43.99479" lon="4.18521">
        <ele>94</ele>
        <time>2019-10-27T14:32:39Z</time>
      </trkpt>
      <trkpt lat="43.99478" lon="4.18518">
        <ele>94</ele>
        <time>2019-10-27T14:32:40Z</time>
      </trkpt>
      <trkpt lat="43.99474" lon="4.18516">
        <ele>94</ele>
        <time>2019-10-27T14:32:43Z</time>
      </trkpt>
      <trkpt lat="43.99466" lon="4.18518">
        <ele>94</ele>
        <time>2019-10-27T14:32:48Z</time>
      </trkpt>
      <trkpt lat="43.99466" lon="4.18512">
        <ele>94</ele>
        <time>2019-10-27T14:32:51Z</time>
      </trkpt>
      <trkpt lat="43.99456" lon="4.18518">
        <ele>94</ele>
        <time>2019-10-27T14:32:54Z</time>
      </trkpt>
      <trkpt lat="43.99442" lon="4.18527">
        <ele>94</ele>
        <time>2019-10-27T14:32:59Z</time>
      </trkpt>
      <trkpt lat="43.99429" lon="4.18536">
        <ele>94</ele>
        <time>2019-10-27T14:33:05Z</time>
      </trkpt>
      <trkpt lat="43.99417" lon="4.18545">
        <ele>94</ele>
        <time>2019-10-27T14:33:11Z</time>
      </trkpt>
      <trkpt lat="43.99402" lon="4.1855">
        <ele>94</ele>
        <time>2019-10-27T14:33:18Z</time>
      </trkpt>
      <trkpt lat="43.99387" lon="4.1855">
        <ele>94</ele>
        <time>2019-10-27T14:33:25Z</time>
      </trkpt>
      <trkpt lat="43.99378" lon="4.18549">
        <ele>94</ele>
        <time>2019-10-27T14:33:30Z</time>
      </trkpt>
      <trkpt lat="43.99366" lon="4.18547">
        <ele>94</ele>
        <time>2019-10-27T14:33:36Z</time>
      </trkpt>
      <trkpt lat="43.99347" lon="4.1855">
        <ele>94</ele>
        <time>2019-10-27T14:33:45Z</time>
      </trkpt>
      <trkpt lat="43.99344" lon="4.1855">
        <ele>94</ele>
        <time>2019-10-27T14:33:47Z</time>
      </trkpt>
      <trkpt lat="43.9934" lon="4.18549">
        <ele>94</ele>
        <time>2019-10-27T14:33:52Z</time>
      </trkpt>
      <trkpt lat="43.99328" lon="4.18545">
        <ele>94</ele>
        <time>2019-10-27T14:33:56Z</time>
      </trkpt>
      <trkpt lat="43.99307" lon="4.18542">
        <ele>94</ele>
        <time>2019-10-27T14:34:00Z</time>
      </trkpt>
      <trkpt lat="43.99296" lon="4.18542">
        <ele>94</ele>
        <time>2019-10-27T14:34:02Z</time>
      </trkpt>
      <trkpt lat="43.99281" lon="4.18535">
        <ele>94</ele>
        <time>2019-10-27T14:34:06Z</time>
      </trkpt>
      <trkpt lat="43.99265" lon="4.18522">
        <ele>94</ele>
        <time>2019-10-27T14:34:15Z</time>
      </trkpt>
      <trkpt lat="43.99256" lon="4.18515">
        <ele>94</ele>
        <time>2019-10-27T14:34:21Z</time>
      </trkpt>
      <trkpt lat="43.99244" lon="4.18506">
        <ele>94</ele>
        <time>2019-10-27T14:34:29Z</time>
      </trkpt>
      <trkpt lat="43.99231" lon="4.18496">
        <ele>94</ele>
        <time>2019-10-27T14:34:37Z</time>
      </trkpt>
      <trkpt lat="43.9922" lon="4.18491">
        <ele>94</ele>
        <time>2019-10-27T14:34:43Z</time>
      </trkpt>
      <trkpt lat="43.99215" lon="4.18487">
        <ele>94</ele>
        <time>2019-10-27T14:34:46Z</time>
      </trkpt>
      <trkpt lat="43.99208" lon="4.18481">
        <ele>94</ele>
        <time>2019-10-27T14:34:51Z</time>
      </trkpt>
      <trkpt lat="43.99206" lon="4.1848">
        <ele>94</ele>
        <time>2019-10-27T14:34:52Z</time>
      </trkpt>
      <trkpt lat="43.99188" lon="4.18466">
        <ele>94</ele>
        <time>2019-10-27T14:34:58Z</time>
      </trkpt>
      <trkpt lat="43.99177" lon="4.18459">
        <ele>94</ele>
        <time>2019-10-27T14:35:02Z</time>
      </trkpt>
      <trkpt lat="43.99172" lon="4.18451">
        <ele>94</ele>
        <time>2019-10-27T14:35:06Z</time>
      </trkpt>
      <trkpt lat="43.99173" lon="4.18434">
        <ele>94</ele>
        <time>2019-10-27T14:35:12Z</time>
      </trkpt>
      <trkpt lat="43.99177" lon="4.18408">
        <ele>94</ele>
        <time>2019-10-27T14:35:21Z</time>
      </trkpt>
      <trkpt lat="43.99179" lon="4.18391">
        <ele>94</ele>
        <time>2019-10-27T14:35:27Z</time>
      </trkpt>
      <trkpt lat="43.99182" lon="4.18382">
        <ele>94</ele>
        <time>2019-10-27T14:35:31Z</time>
      </trkpt>
      <trkpt lat="43.99184" lon="4.18386">
        <ele>94</ele>
        <time>2019-10-27T14:35:35Z</time>
      </trkpt>
      <trkpt lat="43.99177" lon="4.18399">
        <ele>94</ele>
        <time>2019-10-27T14:35:39Z</time>
      </trkpt>
      <trkpt lat="43.99176" lon="4.18404">
        <ele>94</ele>
        <time>2019-10-27T14:35:40Z</time>
      </trkpt>
      <trkpt lat="43.9917" lon="4.18434">
        <ele>95</ele>
        <time>2019-10-27T14:35:47Z</time>
      </trkpt>
      <trkpt lat="43.99169" lon="4.18435">
        <ele>95</ele>
        <time>2019-10-27T14:35:48Z</time>
      </trkpt>
      <trkpt lat="43.99163" lon="4.18431">
        <ele>95</ele>
        <time>2019-10-27T14:35:52Z</time>
      </trkpt>
      <trkpt lat="43.99162" lon="4.18428">
        <ele>95</ele>
        <time>2019-10-27T14:35:53Z</time>
      </trkpt>
      <trkpt lat="43.99152" lon="4.18406">
        <ele>96</ele>
        <time>2019-10-27T14:36:01Z</time>
      </trkpt>
      <trkpt lat="43.99142" lon="4.18386">
        <ele>96</ele>
        <time>2019-10-27T14:36:08Z</time>
      </trkpt>
      <trkpt lat="43.99129" lon="4.18372">
        <ele>96</ele>
        <time>2019-10-27T14:36:15Z</time>
      </trkpt>
      <trkpt lat="43.99119" lon="4.18365">
        <ele>96</ele>
        <time>2019-10-27T14:36:20Z</time>
      </trkpt>
      <trkpt lat="43.99107" lon="4.1836">
        <ele>97</ele>
        <time>2019-10-27T14:36:27Z</time>
      </trkpt>
      <trkpt lat="43.99103" lon="4.18362">
        <ele>97</ele>
        <time>2019-10-27T14:36:31Z</time>
      </trkpt>
      <trkpt lat="43.99099" lon="4.18359">
        <ele>98</ele>
        <time>2019-10-27T14:36:37Z</time>
      </trkpt>
      <trkpt lat="43.99097" lon="4.18351">
        <ele>98</ele>
        <time>2019-10-27T14:36:43Z</time>
      </trkpt>
      <trkpt lat="43.99089" lon="4.18342">
        <ele>98</ele>
        <time>2019-10-27T14:36:51Z</time>
      </trkpt>
      <trkpt lat="43.99078" lon="4.18333">
        <ele>98</ele>
        <time>2019-10-27T14:37:00Z</time>
      </trkpt>
      <trkpt lat="43.99069" lon="4.18327">
        <ele>99</ele>
        <time>2019-10-27T14:37:08Z</time>
      </trkpt>
      <trkpt lat="43.99063" lon="4.18324">
        <ele>99</ele>
        <time>2019-10-27T14:37:15Z</time>
      </trkpt>
      <trkpt lat="43.99054" lon="4.18316">
        <ele>100</ele>
        <time>2019-10-27T14:37:24Z</time>
      </trkpt>
      <trkpt lat="43.99046" lon="4.18308">
        <ele>101</ele>
        <time>2019-10-27T14:37:32Z</time>
      </trkpt>
      <trkpt lat="43.99037" lon="4.18302">
        <ele>102</ele>
        <time>2019-10-27T14:37:41Z</time>
      </trkpt>
      <trkpt lat="43.99031" lon="4.18295">
        <ele>103</ele>
        <time>2019-10-27T14:37:48Z</time>
      </trkpt>
      <trkpt lat="43.99025" lon="4.1829">
        <ele>103</ele>
        <time>2019-10-27T14:37:54Z</time>
      </trkpt>
      <trkpt lat="43.99018" lon="4.18281">
        <ele>105</ele>
        <time>2019-10-27T14:38:02Z</time>
      </trkpt>
      <trkpt lat="43.99012" lon="4.18274">
        <ele>106</ele>
        <time>2019-10-27T14:38:09Z</time>
      </trkpt>
      <trkpt lat="43.99011" lon="4.18273">
        <ele>107</ele>
        <time>2019-10-27T14:38:12Z</time>
      </trkpt>
      <trkpt lat="43.99" lon="4.18257">
        <ele>121</ele>
        <time>2019-10-27T14:43:44Z</time>
      </trkpt>
      <trkpt lat="43.98998" lon="4.18256">
        <ele>121</ele>
        <time>2019-10-27T14:43:49Z</time>
      </trkpt>
      <trkpt lat="43.98991" lon="4.1825">
        <ele>121</ele>
        <time>2019-10-27T14:43:53Z</time>
      </trkpt>
      <trkpt lat="43.9898" lon="4.18234">
        <ele>121</ele>
        <time>2019-10-27T14:43:59Z</time>
      </trkpt>
      <trkpt lat="43.98972" lon="4.1822">
        <ele>120</ele>
        <time>2019-10-27T14:44:04Z</time>
      </trkpt>
      <trkpt lat="43.98965" lon="4.18207">
        <ele>119</ele>
        <time>2019-10-27T14:44:10Z</time>
      </trkpt>
      <trkpt lat="43.98955" lon="4.18194">
        <ele>119</ele>
        <time>2019-10-27T14:44:15Z</time>
      </trkpt>
      <trkpt lat="43.98938" lon="4.18176">
        <ele>119</ele>
        <time>2019-10-27T14:44:22Z</time>
      </trkpt>
      <trkpt lat="43.98928" lon="4.18169">
        <ele>118</ele>
        <time>2019-10-27T14:44:27Z</time>
      </trkpt>
      <trkpt lat="43.98919" lon="4.18159">
        <ele>118</ele>
        <time>2019-10-27T14:44:33Z</time>
      </trkpt>
      <trkpt lat="43.98918" lon="4.18158">
        <ele>118</ele>
        <time>2019-10-27T14:44:34Z</time>
      </trkpt>
      <trkpt lat="43.98906" lon="4.18151">
        <ele>117</ele>
        <time>2019-10-27T14:44:41Z</time>
      </trkpt>
      <trkpt lat="43.98896" lon="4.18146">
        <ele>117</ele>
        <time>2019-10-27T14:44:47Z</time>
      </trkpt>
      <trkpt lat="43.98885" lon="4.18139">
        <ele>116</ele>
        <time>2019-10-27T14:44:54Z</time>
      </trkpt>
      <trkpt lat="43.98883" lon="4.18138">
        <ele>116</ele>
        <time>2019-10-27T14:44:55Z</time>
      </trkpt>
      <trkpt lat="43.98879" lon="4.18136">
        <ele>115</ele>
        <time>2019-10-27T14:44:57Z</time>
      </trkpt>
      <trkpt lat="43.98869" lon="4.18132">
        <ele>115</ele>
        <time>2019-10-27T14:45:04Z</time>
      </trkpt>
      <trkpt lat="43.98862" lon="4.1813">
        <ele>115</ele>
        <time>2019-10-27T14:45:09Z</time>
      </trkpt>
      <trkpt lat="43.98851" lon="4.18127">
        <ele>116</ele>
        <time>2019-10-27T14:45:16Z</time>
      </trkpt>
      <trkpt lat="43.9885" lon="4.18126">
        <ele>116</ele>
        <time>2019-10-27T14:45:17Z</time>
      </trkpt>
      <trkpt lat="43.98842" lon="4.18122">
        <ele>116</ele>
        <time>2019-10-27T14:45:23Z</time>
      </trkpt>
      <trkpt lat="43.98831" lon="4.18118">
        <ele>117</ele>
        <time>2019-10-27T14:45:31Z</time>
      </trkpt>
      <trkpt lat="43.98822" lon="4.18113">
        <ele>117</ele>
        <time>2019-10-27T14:45:38Z</time>
      </trkpt>
      <trkpt lat="43.98812" lon="4.18108">
        <ele>118</ele>
        <time>2019-10-27T14:45:45Z</time>
      </trkpt>
      <trkpt lat="43.98803" lon="4.181">
        <ele>119</ele>
        <time>2019-10-27T14:45:52Z</time>
      </trkpt>
      <trkpt lat="43.98794" lon="4.18089">
        <ele>121</ele>
        <time>2019-10-27T14:45:59Z</time>
      </trkpt>
      <trkpt lat="43.98783" lon="4.18074">
        <ele>122</ele>
        <time>2019-10-27T14:46:07Z</time>
      </trkpt>
      <trkpt lat="43.98773" lon="4.18063">
        <ele>122</ele>
        <time>2019-10-27T14:46:13Z</time>
      </trkpt>
      <trkpt lat="43.98759" lon="4.18043">
        <ele>124</ele>
        <time>2019-10-27T14:46:22Z</time>
      </trkpt>
      <trkpt lat="43.98743" lon="4.18026">
        <ele>124</ele>
        <time>2019-10-27T14:46:30Z</time>
      </trkpt>
      <trkpt lat="43.98728" lon="4.1801">
        <ele>125</ele>
        <time>2019-10-27T14:46:38Z</time>
      </trkpt>
      <trkpt lat="43.98712" lon="4.17996">
        <ele>125</ele>
        <time>2019-10-27T14:46:46Z</time>
      </trkpt>
      <trkpt lat="43.98697" lon="4.1798">
        <ele>126</ele>
        <time>2019-10-27T14:46:54Z</time>
      </trkpt>
      <trkpt lat="43.98687" lon="4.17962">
        <ele>126</ele>
        <time>2019-10-27T14:46:59Z</time>
      </trkpt>
      <trkpt lat="43.98677" lon="4.1794">
        <ele>127</ele>
        <time>2019-10-27T14:47:03Z</time>
      </trkpt>
      <trkpt lat="43.98666" lon="4.17919">
        <ele>127</ele>
        <time>2019-10-27T14:47:06Z</time>
      </trkpt>
      <trkpt lat="43.98661" lon="4.17913">
        <ele>127</ele>
        <time>2019-10-27T14:47:07Z</time>
      </trkpt>
      <trkpt lat="43.98645" lon="4.17902">
        <ele>127</ele>
        <time>2019-10-27T14:47:10Z</time>
      </trkpt>
      <trkpt lat="43.98629" lon="4.17891">
        <ele>127</ele>
        <time>2019-10-27T14:47:13Z</time>
      </trkpt>
      <trkpt lat="43.98623" lon="4.17887">
        <ele>127</ele>
        <time>2019-10-27T14:47:14Z</time>
      </trkpt>
      <trkpt lat="43.98602" lon="4.1788">
        <ele>127</ele>
        <time>2019-10-27T14:47:17Z</time>
      </trkpt>
      <trkpt lat="43.9858" lon="4.17874">
        <ele>127</ele>
        <time>2019-10-27T14:47:20Z</time>
      </trkpt>
      <trkpt lat="43.98565" lon="4.17872">
        <ele>126</ele>
        <time>2019-10-27T14:47:22Z</time>
      </trkpt>
      <trkpt lat="43.98551" lon="4.17866">
        <ele>125</ele>
        <time>2019-10-27T14:47:26Z</time>
      </trkpt>
      <trkpt lat="43.98546" lon="4.1786">
        <ele>124</ele>
        <time>2019-10-27T14:47:31Z</time>
      </trkpt>
      <trkpt lat="43.98545" lon="4.17856">
        <ele>124</ele>
        <time>2019-10-27T14:47:33Z</time>
      </trkpt>
      <trkpt lat="43.98539" lon="4.17838">
        <ele>123</ele>
        <time>2019-10-27T14:47:37Z</time>
      </trkpt>
      <trkpt lat="43.98521" lon="4.17817">
        <ele>122</ele>
        <time>2019-10-27T14:47:41Z</time>
      </trkpt>
      <trkpt lat="43.98507" lon="4.17801">
        <ele>121</ele>
        <time>2019-10-27T14:47:45Z</time>
      </trkpt>
      <trkpt lat="43.98504" lon="4.17796">
        <ele>121</ele>
        <time>2019-10-27T14:47:46Z</time>
      </trkpt>
      <trkpt lat="43.98499" lon="4.17787">
        <ele>121</ele>
        <time>2019-10-27T14:47:48Z</time>
      </trkpt>
      <trkpt lat="43.98487" lon="4.17775">
        <ele>120</ele>
        <time>2019-10-27T14:47:52Z</time>
      </trkpt>
      <trkpt lat="43.98473" lon="4.17763">
        <ele>119</ele>
        <time>2019-10-27T14:48:00Z</time>
      </trkpt>
      <trkpt lat="43.98462" lon="4.17752">
        <ele>119</ele>
        <time>2019-10-27T14:48:08Z</time>
      </trkpt>
      <trkpt lat="43.9845" lon="4.17743">
        <ele>118</ele>
        <time>2019-10-27T14:48:16Z</time>
      </trkpt>
      <trkpt lat="43.98439" lon="4.17732">
        <ele>118</ele>
        <time>2019-10-27T14:48:25Z</time>
      </trkpt>
      <trkpt lat="43.98429" lon="4.17723">
        <ele>118</ele>
        <time>2019-10-27T14:48:33Z</time>
      </trkpt>
      <trkpt lat="43.98418" lon="4.17717">
        <ele>117</ele>
        <time>2019-10-27T14:48:41Z</time>
      </trkpt>
      <trkpt lat="43.98414" lon="4.17714">
        <ele>117</ele>
        <time>2019-10-27T14:48:45Z</time>
      </trkpt>
      <trkpt lat="43.98408" lon="4.17707">
        <ele>116</ele>
        <time>2019-10-27T14:48:53Z</time>
      </trkpt>
      <trkpt lat="43.98401" lon="4.17696">
        <ele>115</ele>
        <time>2019-10-27T14:49:03Z</time>
      </trkpt>
      <trkpt lat="43.98395" lon="4.17682">
        <ele>115</ele>
        <time>2019-10-27T14:49:14Z</time>
      </trkpt>
      <trkpt lat="43.98388" lon="4.17671">
        <ele>116</ele>
        <time>2019-10-27T14:49:22Z</time>
      </trkpt>
      <trkpt lat="43.98382" lon="4.17661">
        <ele>118</ele>
        <time>2019-10-27T14:49:31Z</time>
      </trkpt>
      <trkpt lat="43.98373" lon="4.17654">
        <ele>120</ele>
        <time>2019-10-27T14:49:41Z</time>
      </trkpt>
      <trkpt lat="43.98365" lon="4.17646">
        <ele>122</ele>
        <time>2019-10-27T14:49:50Z</time>
      </trkpt>
      <trkpt lat="43.98356" lon="4.17633">
        <ele>124</ele>
        <time>2019-10-27T14:50:00Z</time>
      </trkpt>
      <trkpt lat="43.98348" lon="4.17618">
        <ele>126</ele>
        <time>2019-10-27T14:50:11Z</time>
      </trkpt>
      <trkpt lat="43.98342" lon="4.17606">
        <ele>128</ele>
        <time>2019-10-27T14:50:19Z</time>
      </trkpt>
      <trkpt lat="43.98336" lon="4.17595">
        <ele>130</ele>
        <time>2019-10-27T14:50:27Z</time>
      </trkpt>
      <trkpt lat="43.98327" lon="4.17585">
        <ele>131</ele>
        <time>2019-10-27T14:50:35Z</time>
      </trkpt>
      <trkpt lat="43.98318" lon="4.17572">
        <ele>133</ele>
        <time>2019-10-27T14:50:44Z</time>
      </trkpt>
      <trkpt lat="43.98309" lon="4.1756">
        <ele>134</ele>
        <time>2019-10-27T14:50:53Z</time>
      </trkpt>
      <trkpt lat="43.983" lon="4.17549">
        <ele>135</ele>
        <time>2019-10-27T14:51:02Z</time>
      </trkpt>
      <trkpt lat="43.98287" lon="4.17537">
        <ele>137</ele>
        <time>2019-10-27T14:51:13Z</time>
      </trkpt>
      <trkpt lat="43.98275" lon="4.17524">
        <ele>138</ele>
        <time>2019-10-27T14:51:23Z</time>
      </trkpt>
      <trkpt lat="43.98265" lon="4.17513">
        <ele>139</ele>
        <time>2019-10-27T14:51:32Z</time>
      </trkpt>
      <trkpt lat="43.98255" lon="4.17502">
        <ele>140</ele>
        <time>2019-10-27T14:51:42Z</time>
      </trkpt>
      <trkpt lat="43.98247" lon="4.17495">
        <ele>140</ele>
        <time>2019-10-27T14:51:49Z</time>
      </trkpt>
      <trkpt lat="43.98239" lon="4.17488">
        <ele>140</ele>
        <time>2019-10-27T14:51:57Z</time>
      </trkpt>
      <trkpt lat="43.9823" lon="4.1748">
        <ele>140</ele>
        <time>2019-10-27T14:52:06Z</time>
      </trkpt>
      <trkpt lat="43.98217" lon="4.1747">
        <ele>142</ele>
        <time>2019-10-27T14:52:18Z</time>
      </trkpt>
      <trkpt lat="43.98207" lon="4.17461">
        <ele>144</ele>
        <time>2019-10-27T14:52:29Z</time>
      </trkpt>
      <trkpt lat="43.98203" lon="4.17457">
        <ele>145</ele>
        <time>2019-10-27T14:52:34Z</time>
      </trkpt>
      <trkpt lat="43.98195" lon="4.17449">
        <ele>146</ele>
        <time>2019-10-27T14:52:42Z</time>
      </trkpt>
      <trkpt lat="43.98185" lon="4.17437">
        <ele>149</ele>
        <time>2019-10-27T14:52:53Z</time>
      </trkpt>
      <trkpt lat="43.98176" lon="4.17427">
        <ele>151</ele>
        <time>2019-10-27T14:53:02Z</time>
      </trkpt>
      <trkpt lat="43.98175" lon="4.17426">
        <ele>151</ele>
        <time>2019-10-27T14:53:03Z</time>
      </trkpt>
      <trkpt lat="43.98175" lon="4.17422">
        <ele>153</ele>
        <time>2019-10-27T14:53:09Z</time>
      </trkpt>
      <trkpt lat="43.98177" lon="4.17421">
        <ele>154</ele>
        <time>2019-10-27T14:53:17Z</time>
      </trkpt>
      <trkpt lat="43.98183" lon="4.17408">
        <ele>155</ele>
        <time>2019-10-27T14:53:25Z</time>
      </trkpt>
      <trkpt lat="43.9819" lon="4.1739">
        <ele>156</ele>
        <time>2019-10-27T14:53:32Z</time>
      </trkpt>
      <trkpt lat="43.98195" lon="4.17376">
        <ele>157</ele>
        <time>2019-10-27T14:53:38Z</time>
      </trkpt>
      <trkpt lat="43.98204" lon="4.17355">
        <ele>157</ele>
        <time>2019-10-27T14:53:45Z</time>
      </trkpt>
      <trkpt lat="43.98214" lon="4.17333">
        <ele>157</ele>
        <time>2019-10-27T14:53:52Z</time>
      </trkpt>
      <trkpt lat="43.98224" lon="4.17313">
        <ele>157</ele>
        <time>2019-10-27T14:53:59Z</time>
      </trkpt>
      <trkpt lat="43.98238" lon="4.17295">
        <ele>158</ele>
        <time>2019-10-27T14:54:05Z</time>
      </trkpt>
      <trkpt lat="43.98252" lon="4.17275">
        <ele>158</ele>
        <time>2019-10-27T14:54:11Z</time>
      </trkpt>
      <trkpt lat="43.98266" lon="4.17254">
        <ele>159</ele>
        <time>2019-10-27T14:54:18Z</time>
      </trkpt>
      <trkpt lat="43.98278" lon="4.17233">
        <ele>159</ele>
        <time>2019-10-27T14:54:26Z</time>
      </trkpt>
      <trkpt lat="43.98288" lon="4.1721">
        <ele>159</ele>
        <time>2019-10-27T14:54:34Z</time>
      </trkpt>
      <trkpt lat="43.98299" lon="4.17187">
        <ele>160</ele>
        <time>2019-10-27T14:54:42Z</time>
      </trkpt>
      <trkpt lat="43.98307" lon="4.17167">
        <ele>161</ele>
        <time>2019-10-27T14:54:49Z</time>
      </trkpt>
      <trkpt lat="43.98318" lon="4.17147">
        <ele>161</ele>
        <time>2019-10-27T14:54:57Z</time>
      </trkpt>
      <trkpt lat="43.98328" lon="4.17129">
        <ele>162</ele>
        <time>2019-10-27T14:55:05Z</time>
      </trkpt>
      <trkpt lat="43.98338" lon="4.17107">
        <ele>162</ele>
        <time>2019-10-27T14:55:14Z</time>
      </trkpt>
      <trkpt lat="43.98343" lon="4.17084">
        <ele>163</ele>
        <time>2019-10-27T14:55:23Z</time>
      </trkpt>
      <trkpt lat="43.98348" lon="4.17063">
        <ele>164</ele>
        <time>2019-10-27T14:55:31Z</time>
      </trkpt>
      <trkpt lat="43.98355" lon="4.1704">
        <ele>165</ele>
        <time>2019-10-27T14:55:40Z</time>
      </trkpt>
      <trkpt lat="43.98359" lon="4.17025">
        <ele>166</ele>
        <time>2019-10-27T14:55:47Z</time>
      </trkpt>
      <trkpt lat="43.98364" lon="4.1701">
        <ele>167</ele>
        <time>2019-10-27T14:55:55Z</time>
      </trkpt>
      <trkpt lat="43.98369" lon="4.16992">
        <ele>168</ele>
        <time>2019-10-27T14:56:04Z</time>
      </trkpt>
      <trkpt lat="43.98373" lon="4.16976">
        <ele>169</ele>
        <time>2019-10-27T14:56:12Z</time>
      </trkpt>
      <trkpt lat="43.98377" lon="4.16959">
        <ele>170</ele>
        <time>2019-10-27T14:56:21Z</time>
      </trkpt>
      <trkpt lat="43.9838" lon="4.16946">
        <ele>172</ele>
        <time>2019-10-27T14:56:28Z</time>
      </trkpt>
      <trkpt lat="43.98385" lon="4.16927">
        <ele>173</ele>
        <time>2019-10-27T14:56:38Z</time>
      </trkpt>
      <trkpt lat="43.98392" lon="4.16914">
        <ele>175</ele>
        <time>2019-10-27T14:56:46Z</time>
      </trkpt>
      <trkpt lat="43.98404" lon="4.16906">
        <ele>177</ele>
        <time>2019-10-27T14:56:55Z</time>
      </trkpt>
      <trkpt lat="43.98418" lon="4.16903">
        <ele>179</ele>
        <time>2019-10-27T14:57:04Z</time>
      </trkpt>
      <trkpt lat="43.98428" lon="4.16898">
        <ele>180</ele>
        <time>2019-10-27T14:57:11Z</time>
      </trkpt>
      <trkpt lat="43.9844" lon="4.16887">
        <ele>182</ele>
        <time>2019-10-27T14:57:20Z</time>
      </trkpt>
      <trkpt lat="43.98446" lon="4.16879">
        <ele>183</ele>
        <time>2019-10-27T14:57:26Z</time>
      </trkpt>
      <trkpt lat="43.98457" lon="4.16868">
        <ele>185</ele>
        <time>2019-10-27T14:57:35Z</time>
      </trkpt>
      <trkpt lat="43.98469" lon="4.16854">
        <ele>187</ele>
        <time>2019-10-27T14:57:45Z</time>
      </trkpt>
      <trkpt lat="43.98478" lon="4.16844">
        <ele>187</ele>
        <time>2019-10-27T14:57:52Z</time>
      </trkpt>
      <trkpt lat="43.98491" lon="4.16827">
        <ele>189</ele>
        <time>2019-10-27T14:58:03Z</time>
      </trkpt>
      <trkpt lat="43.985" lon="4.16816">
        <ele>190</ele>
        <time>2019-10-27T14:58:10Z</time>
      </trkpt>
      <trkpt lat="43.9851" lon="4.16795">
        <ele>191</ele>
        <time>2019-10-27T14:58:21Z</time>
      </trkpt>
      <trkpt lat="43.98516" lon="4.16771">
        <ele>192</ele>
        <time>2019-10-27T14:58:32Z</time>
      </trkpt>
      <trkpt lat="43.98517" lon="4.16752">
        <ele>192</ele>
        <time>2019-10-27T14:58:40Z</time>
      </trkpt>
      <trkpt lat="43.98518" lon="4.16735">
        <ele>193</ele>
        <time>2019-10-27T14:58:47Z</time>
      </trkpt>
      <trkpt lat="43.98518" lon="4.16712">
        <ele>194</ele>
        <time>2019-10-27T14:58:56Z</time>
      </trkpt>
      <trkpt lat="43.98519" lon="4.16695">
        <ele>194</ele>
        <time>2019-10-27T14:59:02Z</time>
      </trkpt>
      <trkpt lat="43.98521" lon="4.16675">
        <ele>194</ele>
        <time>2019-10-27T14:59:07Z</time>
      </trkpt>
      <trkpt lat="43.98531" lon="4.16651">
        <ele>194</ele>
        <time>2019-10-27T14:59:11Z</time>
      </trkpt>
      <trkpt lat="43.98544" lon="4.16627">
        <ele>194</ele>
        <time>2019-10-27T14:59:15Z</time>
      </trkpt>
      <trkpt lat="43.98556" lon="4.16608">
        <ele>194</ele>
        <time>2019-10-27T14:59:18Z</time>
      </trkpt>
      <trkpt lat="43.9857" lon="4.16584">
        <ele>194</ele>
        <time>2019-10-27T14:59:22Z</time>
      </trkpt>
      <trkpt lat="43.98583" lon="4.16558">
        <ele>194</ele>
        <time>2019-10-27T14:59:26Z</time>
      </trkpt>
      <trkpt lat="43.98586" lon="4.16551">
        <ele>194</ele>
        <time>2019-10-27T14:59:27Z</time>
      </trkpt>
      <trkpt lat="43.98605" lon="4.1653">
        <ele>194</ele>
        <time>2019-10-27T14:59:31Z</time>
      </trkpt>
      <trkpt lat="43.98609" lon="4.16525">
        <ele>194</ele>
        <time>2019-10-27T14:59:32Z</time>
      </trkpt>
      <trkpt lat="43.9861" lon="4.16514">
        <ele>194</ele>
        <time>2019-10-27T14:59:33Z</time>
      </trkpt>
      <trkpt lat="43.98603" lon="4.16487">
        <ele>194</ele>
        <time>2019-10-27T14:59:36Z</time>
      </trkpt>
      <trkpt lat="43.986" lon="4.16479">
        <ele>194</ele>
        <time>2019-10-27T14:59:37Z</time>
      </trkpt>
      <trkpt lat="43.98595" lon="4.16466">
        <ele>193</ele>
        <time>2019-10-27T14:59:40Z</time>
      </trkpt>
      <trkpt lat="43.9859" lon="4.16452">
        <ele>193</ele>
        <time>2019-10-27T14:59:43Z</time>
      </trkpt>
      <trkpt lat="43.98576" lon="4.16432">
        <ele>192</ele>
        <time>2019-10-27T14:59:50Z</time>
      </trkpt>
      <trkpt lat="43.9856" lon="4.16422">
        <ele>192</ele>
        <time>2019-10-27T14:59:54Z</time>
      </trkpt>
      <trkpt lat="43.98541" lon="4.16414">
        <ele>192</ele>
        <time>2019-10-27T14:59:58Z</time>
      </trkpt>
      <trkpt lat="43.98536" lon="4.16413">
        <ele>192</ele>
        <time>2019-10-27T14:59:59Z</time>
      </trkpt>
      <trkpt lat="43.98529" lon="4.16401">
        <ele>192</ele>
        <time>2019-10-27T15:00:03Z</time>
      </trkpt>
      <trkpt lat="43.98533" lon="4.1639">
        <ele>192</ele>
        <time>2019-10-27T15:00:06Z</time>
      </trkpt>
      <trkpt lat="43.98543" lon="4.16384">
        <ele>192</ele>
        <time>2019-10-27T15:00:10Z</time>
      </trkpt>
      <trkpt lat="43.98563" lon="4.16374">
        <ele>192</ele>
        <time>2019-10-27T15:00:18Z</time>
      </trkpt>
      <trkpt lat="43.98583" lon="4.16368">
        <ele>191</ele>
        <time>2019-10-27T15:00:24Z</time>
      </trkpt>
      <trkpt lat="43.98603" lon="4.16364">
        <ele>191</ele>
        <time>2019-10-27T15:00:28Z</time>
      </trkpt>
      <trkpt lat="43.98613" lon="4.16362">
        <ele>191</ele>
        <time>2019-10-27T15:00:30Z</time>
      </trkpt>
      <trkpt lat="43.98626" lon="4.16357">
        <ele>191</ele>
        <time>2019-10-27T15:00:33Z</time>
      </trkpt>
      <trkpt lat="43.98635" lon="4.16351">
        <ele>190</ele>
        <time>2019-10-27T15:00:36Z</time>
      </trkpt>
      <trkpt lat="43.98648" lon="4.16338">
        <ele>190</ele>
        <time>2019-10-27T15:00:44Z</time>
      </trkpt>
      <trkpt lat="43.98664" lon="4.16323">
        <ele>190</ele>
        <time>2019-10-27T15:00:53Z</time>
      </trkpt>
      <trkpt lat="43.98677" lon="4.16315">
        <ele>190</ele>
        <time>2019-10-27T15:01:00Z</time>
      </trkpt>
      <trkpt lat="43.98687" lon="4.1631">
        <ele>191</ele>
        <time>2019-10-27T15:01:06Z</time>
      </trkpt>
      <trkpt lat="43.98689" lon="4.16307">
        <ele>191</ele>
        <time>2019-10-27T15:01:08Z</time>
      </trkpt>
      <trkpt lat="43.987" lon="4.16307">
        <ele>191</ele>
        <time>2019-10-27T15:01:14Z</time>
      </trkpt>
      <trkpt lat="43.98716" lon="4.16312">
        <ele>192</ele>
        <time>2019-10-27T15:01:20Z</time>
      </trkpt>
      <trkpt lat="43.98736" lon="4.16317">
        <ele>192</ele>
        <time>2019-10-27T15:01:24Z</time>
      </trkpt>
      <trkpt lat="43.98752" lon="4.16315">
        <ele>192</ele>
        <time>2019-10-27T15:01:27Z</time>
      </trkpt>
      <trkpt lat="43.98772" lon="4.163">
        <ele>193</ele>
        <time>2019-10-27T15:01:33Z</time>
      </trkpt>
      <trkpt lat="43.98786" lon="4.16286">
        <ele>194</ele>
        <time>2019-10-27T15:01:40Z</time>
      </trkpt>
      <trkpt lat="43.98797" lon="4.16265">
        <ele>194</ele>
        <time>2019-10-27T15:01:49Z</time>
      </trkpt>
      <trkpt lat="43.98803" lon="4.16244">
        <ele>194</ele>
        <time>2019-10-27T15:01:57Z</time>
      </trkpt>
      <trkpt lat="43.98809" lon="4.1622">
        <ele>195</ele>
        <time>2019-10-27T15:02:06Z</time>
      </trkpt>
      <trkpt lat="43.98809" lon="4.16218">
        <ele>195</ele>
        <time>2019-10-27T15:02:07Z</time>
      </trkpt>
      <trkpt lat="43.98812" lon="4.16212">
        <ele>196</ele>
        <time>2019-10-27T15:02:10Z</time>
      </trkpt>
      <trkpt lat="43.9882" lon="4.16201">
        <ele>196</ele>
        <time>2019-10-27T15:02:16Z</time>
      </trkpt>
      <trkpt lat="43.9883" lon="4.16183">
        <ele>197</ele>
        <time>2019-10-27T15:02:25Z</time>
      </trkpt>
      <trkpt lat="43.98835" lon="4.16166">
        <ele>198</ele>
        <time>2019-10-27T15:02:32Z</time>
      </trkpt>
      <trkpt lat="43.9884" lon="4.16149">
        <ele>199</ele>
        <time>2019-10-27T15:02:39Z</time>
      </trkpt>
      <trkpt lat="43.98847" lon="4.16135">
        <ele>200</ele>
        <time>2019-10-27T15:02:46Z</time>
      </trkpt>
      <trkpt lat="43.98854" lon="4.16122">
        <ele>201</ele>
        <time>2019-10-27T15:02:53Z</time>
      </trkpt>
      <trkpt lat="43.98863" lon="4.16109">
        <ele>202</ele>
        <time>2019-10-27T15:03:01Z</time>
      </trkpt>
      <trkpt lat="43.98871" lon="4.16098">
        <ele>202</ele>
        <time>2019-10-27T15:03:07Z</time>
      </trkpt>
      <trkpt lat="43.98884" lon="4.16082">
        <ele>202</ele>
        <time>2019-10-27T15:03:15Z</time>
      </trkpt>
      <trkpt lat="43.98897" lon="4.16067">
        <ele>202</ele>
        <time>2019-10-27T15:03:23Z</time>
      </trkpt>
      <trkpt lat="43.98912" lon="4.16049">
        <ele>203</ele>
        <time>2019-10-27T15:03:32Z</time>
      </trkpt>
      <trkpt lat="43.98927" lon="4.16035">
        <ele>204</ele>
        <time>2019-10-27T15:03:40Z</time>
      </trkpt>
      <trkpt lat="43.98936" lon="4.16026">
        <ele>204</ele>
        <time>2019-10-27T15:03:46Z</time>
      </trkpt>
      <trkpt lat="43.98945" lon="4.16015">
        <ele>204</ele>
        <time>2019-10-27T15:03:52Z</time>
      </trkpt>
      <trkpt lat="43.98952" lon="4.15999">
        <ele>204</ele>
        <time>2019-10-27T15:03:57Z</time>
      </trkpt>
      <trkpt lat="43.98962" lon="4.15982">
        <ele>204</ele>
        <time>2019-10-27T15:04:02Z</time>
      </trkpt>
      <trkpt lat="43.98977" lon="4.15969">
        <ele>204</ele>
        <time>2019-10-27T15:04:06Z</time>
      </trkpt>
      <trkpt lat="43.9898" lon="4.15962">
        <ele>204</ele>
        <time>2019-10-27T15:04:07Z</time>
      </trkpt>
      <trkpt lat="43.9899" lon="4.15924">
        <ele>204</ele>
        <time>2019-10-27T15:04:11Z</time>
      </trkpt>
      <trkpt lat="43.98998" lon="4.15897">
        <ele>204</ele>
        <time>2019-10-27T15:04:14Z</time>
      </trkpt>
      <trkpt lat="43.99001" lon="4.15889">
        <ele>204</ele>
        <time>2019-10-27T15:04:15Z</time>
      </trkpt>
      <trkpt lat="43.99017" lon="4.15865">
        <ele>203</ele>
        <time>2019-10-27T15:04:20Z</time>
      </trkpt>
      <trkpt lat="43.99023" lon="4.1586">
        <ele>203</ele>
        <time>2019-10-27T15:04:23Z</time>
      </trkpt>
      <trkpt lat="43.99036" lon="4.1584">
        <ele>202</ele>
        <time>2019-10-27T15:04:32Z</time>
      </trkpt>
      <trkpt lat="43.99046" lon="4.1582">
        <ele>202</ele>
        <time>2019-10-27T15:04:41Z</time>
      </trkpt>
      <trkpt lat="43.99058" lon="4.15802">
        <ele>202</ele>
        <time>2019-10-27T15:04:50Z</time>
      </trkpt>
      <trkpt lat="43.99067" lon="4.15788">
        <ele>202</ele>
        <time>2019-10-27T15:04:57Z</time>
      </trkpt>
      <trkpt lat="43.99074" lon="4.15773">
        <ele>202</ele>
        <time>2019-10-27T15:05:04Z</time>
      </trkpt>
      <trkpt lat="43.99078" lon="4.15755">
        <ele>202</ele>
        <time>2019-10-27T15:05:11Z</time>
      </trkpt>
      <trkpt lat="43.9908" lon="4.15734">
        <ele>202</ele>
        <time>2019-10-27T15:05:18Z</time>
      </trkpt>
      <trkpt lat="43.99082" lon="4.15711">
        <ele>202</ele>
        <time>2019-10-27T15:05:27Z</time>
      </trkpt>
      <trkpt lat="43.99086" lon="4.15696">
        <ele>202</ele>
        <time>2019-10-27T15:05:34Z</time>
      </trkpt>
      <trkpt lat="43.99086" lon="4.15673">
        <ele>203</ele>
        <time>2019-10-27T15:05:44Z</time>
      </trkpt>
      <trkpt lat="43.99084" lon="4.15658">
        <ele>204</ele>
        <time>2019-10-27T15:05:51Z</time>
      </trkpt>
      <trkpt lat="43.99082" lon="4.15645">
        <ele>205</ele>
        <time>2019-10-27T15:05:57Z</time>
      </trkpt>
      <trkpt lat="43.99083" lon="4.1563">
        <ele>206</ele>
        <time>2019-10-27T15:06:05Z</time>
      </trkpt>
      <trkpt lat="43.9908" lon="4.15614">
        <ele>207</ele>
        <time>2019-10-27T15:06:13Z</time>
      </trkpt>
      <trkpt lat="43.99071" lon="4.15598">
        <ele>208</ele>
        <time>2019-10-27T15:06:23Z</time>
      </trkpt>
      <trkpt lat="43.99063" lon="4.15586">
        <ele>210</ele>
        <time>2019-10-27T15:06:31Z</time>
      </trkpt>
      <trkpt lat="43.99053" lon="4.15571">
        <ele>211</ele>
        <time>2019-10-27T15:06:41Z</time>
      </trkpt>
      <trkpt lat="43.99045" lon="4.15555">
        <ele>213</ele>
        <time>2019-10-27T15:06:50Z</time>
      </trkpt>
      <trkpt lat="43.99036" lon="4.15536">
        <ele>214</ele>
        <time>2019-10-27T15:06:59Z</time>
      </trkpt>
      <trkpt lat="43.99027" lon="4.15517">
        <ele>214</ele>
        <time>2019-10-27T15:07:08Z</time>
      </trkpt>
      <trkpt lat="43.99021" lon="4.15504">
        <ele>215</ele>
        <time>2019-10-27T15:07:14Z</time>
      </trkpt>
      <trkpt lat="43.99013" lon="4.15493">
        <ele>216</ele>
        <time>2019-10-27T15:07:21Z</time>
      </trkpt>
      <trkpt lat="43.98999" lon="4.15483">
        <ele>217</ele>
        <time>2019-10-27T15:07:29Z</time>
      </trkpt>
      <trkpt lat="43.98989" lon="4.1548">
        <ele>217</ele>
        <time>2019-10-27T15:07:35Z</time>
      </trkpt>
      <trkpt lat="43.98979" lon="4.15474">
        <ele>217</ele>
        <time>2019-10-27T15:07:41Z</time>
      </trkpt>
      <trkpt lat="43.98964" lon="4.15471">
        <ele>217</ele>
        <time>2019-10-27T15:07:47Z</time>
      </trkpt>
      <trkpt lat="43.98955" lon="4.1547">
        <ele>217</ele>
        <time>2019-10-27T15:07:50Z</time>
      </trkpt>
      <trkpt lat="43.9895" lon="4.15453">
        <ele>217</ele>
        <time>2019-10-27T15:07:55Z</time>
      </trkpt>
      <trkpt lat="43.98951" lon="4.1545">
        <ele>217</ele>
        <time>2019-10-27T15:07:56Z</time>
      </trkpt>
      <trkpt lat="43.98963" lon="4.1542">
        <ele>217</ele>
        <time>2019-10-27T15:08:02Z</time>
      </trkpt>
      <trkpt lat="43.98973" lon="4.1539">
        <ele>217</ele>
        <time>2019-10-27T15:08:06Z</time>
      </trkpt>
      <trkpt lat="43.98983" lon="4.15361">
        <ele>217</ele>
        <time>2019-10-27T15:08:10Z</time>
      </trkpt>
      <trkpt lat="43.98985" lon="4.15353">
        <ele>217</ele>
        <time>2019-10-27T15:08:11Z</time>
      </trkpt>
      <trkpt lat="43.98986" lon="4.15335">
        <ele>216</ele>
        <time>2019-10-27T15:08:13Z</time>
      </trkpt>
      <trkpt lat="43.98985" lon="4.15297">
        <ele>216</ele>
        <time>2019-10-27T15:08:17Z</time>
      </trkpt>
      <trkpt lat="43.98984" lon="4.15289">
        <ele>216</ele>
        <time>2019-10-27T15:08:18Z</time>
      </trkpt>
      <trkpt lat="43.98978" lon="4.15261">
        <ele>214</ele>
        <time>2019-10-27T15:08:22Z</time>
      </trkpt>
      <trkpt lat="43.98974" lon="4.15244">
        <ele>214</ele>
        <time>2019-10-27T15:08:27Z</time>
      </trkpt>
      <trkpt lat="43.98974" lon="4.1524">
        <ele>213</ele>
        <time>2019-10-27T15:08:28Z</time>
      </trkpt>
      <trkpt lat="43.98979" lon="4.15223">
        <ele>212</ele>
        <time>2019-10-27T15:08:32Z</time>
      </trkpt>
      <trkpt lat="43.98993" lon="4.15196">
        <ele>212</ele>
        <time>2019-10-27T15:08:36Z</time>
      </trkpt>
      <trkpt lat="43.9901" lon="4.15166">
        <ele>211</ele>
        <time>2019-10-27T15:08:39Z</time>
      </trkpt>
      <trkpt lat="43.99022" lon="4.15145">
        <ele>210</ele>
        <time>2019-10-27T15:08:41Z</time>
      </trkpt>
      <trkpt lat="43.99032" lon="4.15123">
        <ele>210</ele>
        <time>2019-10-27T15:08:43Z</time>
      </trkpt>
      <trkpt lat="43.99037" lon="4.15112">
        <ele>209</ele>
        <time>2019-10-27T15:08:44Z</time>
      </trkpt>
      <trkpt lat="43.99055" lon="4.15082">
        <ele>208</ele>
        <time>2019-10-27T15:08:47Z</time>
      </trkpt>
      <trkpt lat="43.9907" lon="4.15054">
        <ele>208</ele>
        <time>2019-10-27T15:08:50Z</time>
      </trkpt>
      <trkpt lat="43.9908" lon="4.15039">
        <ele>206</ele>
        <time>2019-10-27T15:08:53Z</time>
      </trkpt>
      <trkpt lat="43.99081" lon="4.15038">
        <ele>206</ele>
        <time>2019-10-27T15:08:55Z</time>
      </trkpt>
      <trkpt lat="43.99082" lon="4.15038">
        <ele>200</ele>
        <time>2019-10-27T15:09:36Z</time>
      </trkpt>
      <trkpt lat="43.99082" lon="4.15038">
        <ele>200</ele>
        <time>2019-10-27T15:09:37Z</time>
      </trkpt>
      <trkpt lat="43.99087" lon="4.15034">
        <ele>199</ele>
        <time>2019-10-27T15:09:42Z</time>
      </trkpt>
      <trkpt lat="43.99098" lon="4.15023">
        <ele>199</ele>
        <time>2019-10-27T15:09:48Z</time>
      </trkpt>
      <trkpt lat="43.99112" lon="4.15011">
        <ele>199</ele>
        <time>2019-10-27T15:09:53Z</time>
      </trkpt>
      <trkpt lat="43.99129" lon="4.14993">
        <ele>198</ele>
        <time>2019-10-27T15:09:58Z</time>
      </trkpt>
      <trkpt lat="43.9914" lon="4.1498">
        <ele>198</ele>
        <time>2019-10-27T15:10:01Z</time>
      </trkpt>
      <trkpt lat="43.99142" lon="4.14978">
        <ele>198</ele>
        <time>2019-10-27T15:10:05Z</time>
      </trkpt>
      <trkpt lat="43.99136" lon="4.14987">
        <ele>194</ele>
        <time>2019-10-27T15:10:47Z</time>
      </trkpt>
      <trkpt lat="43.99136" lon="4.14988">
        <ele>194</ele>
        <time>2019-10-27T15:10:49Z</time>
      </trkpt>
      <trkpt lat="43.99146" lon="4.1498">
        <ele>193</ele>
        <time>2019-10-27T15:10:55Z</time>
      </trkpt>
      <trkpt lat="43.99159" lon="4.14961">
        <ele>193</ele>
        <time>2019-10-27T15:11:01Z</time>
      </trkpt>
      <trkpt lat="43.99175" lon="4.14948">
        <ele>193</ele>
        <time>2019-10-27T15:11:06Z</time>
      </trkpt>
      <trkpt lat="43.99192" lon="4.14937">
        <ele>193</ele>
        <time>2019-10-27T15:11:11Z</time>
      </trkpt>
      <trkpt lat="43.99211" lon="4.14925">
        <ele>193</ele>
        <time>2019-10-27T15:11:17Z</time>
      </trkpt>
      <trkpt lat="43.99227" lon="4.14914">
        <ele>192</ele>
        <time>2019-10-27T15:11:23Z</time>
      </trkpt>
      <trkpt lat="43.99245" lon="4.14901">
        <ele>192</ele>
        <time>2019-10-27T15:11:31Z</time>
      </trkpt>
      <trkpt lat="43.99255" lon="4.14891">
        <ele>192</ele>
        <time>2019-10-27T15:11:36Z</time>
      </trkpt>
      <trkpt lat="43.99266" lon="4.14879">
        <ele>191</ele>
        <time>2019-10-27T15:11:43Z</time>
      </trkpt>
      <trkpt lat="43.99277" lon="4.1487">
        <ele>190</ele>
        <time>2019-10-27T15:11:50Z</time>
      </trkpt>
      <trkpt lat="43.99286" lon="4.14853">
        <ele>190</ele>
        <time>2019-10-27T15:11:57Z</time>
      </trkpt>
      <trkpt lat="43.99292" lon="4.14836">
        <ele>189</ele>
        <time>2019-10-27T15:12:03Z</time>
      </trkpt>
      <trkpt lat="43.99295" lon="4.14816">
        <ele>189</ele>
        <time>2019-10-27T15:12:09Z</time>
      </trkpt>
      <trkpt lat="43.99298" lon="4.14789">
        <ele>188</ele>
        <time>2019-10-27T15:12:16Z</time>
      </trkpt>
      <trkpt lat="43.993" lon="4.14762">
        <ele>188</ele>
        <time>2019-10-27T15:12:23Z</time>
      </trkpt>
      <trkpt lat="43.99301" lon="4.14737">
        <ele>187</ele>
        <time>2019-10-27T15:12:29Z</time>
      </trkpt>
      <trkpt lat="43.99303" lon="4.14707">
        <ele>186</ele>
        <time>2019-10-27T15:12:35Z</time>
      </trkpt>
      <trkpt lat="43.99304" lon="4.14685">
        <ele>186</ele>
        <time>2019-10-27T15:12:40Z</time>
      </trkpt>
      <trkpt lat="43.99306" lon="4.14658">
        <ele>185</ele>
        <time>2019-10-27T15:12:47Z</time>
      </trkpt>
      <trkpt lat="43.99306" lon="4.14638">
        <ele>185</ele>
        <time>2019-10-27T15:12:53Z</time>
      </trkpt>
      <trkpt lat="43.99306" lon="4.14619">
        <ele>185</ele>
        <time>2019-10-27T15:13:00Z</time>
      </trkpt>
      <trkpt lat="43.99306" lon="4.14593">
        <ele>185</ele>
        <time>2019-10-27T15:13:10Z</time>
      </trkpt>
      <trkpt lat="43.99305" lon="4.14568">
        <ele>184</ele>
        <time>2019-10-27T15:13:19Z</time>
      </trkpt>
      <trkpt lat="43.99306" lon="4.14546">
        <ele>184</ele>
        <time>2019-10-27T15:13:27Z</time>
      </trkpt>
      <trkpt lat="43.99307" lon="4.14521">
        <ele>183</ele>
        <time>2019-10-27T15:13:36Z</time>
      </trkpt>
      <trkpt lat="43.99307" lon="4.14503">
        <ele>184</ele>
        <time>2019-10-27T15:13:43Z</time>
      </trkpt>
      <trkpt lat="43.99309" lon="4.14477">
        <ele>185</ele>
        <time>2019-10-27T15:13:53Z</time>
      </trkpt>
      <trkpt lat="43.99311" lon="4.14456">
        <ele>186</ele>
        <time>2019-10-27T15:14:01Z</time>
      </trkpt>
      <trkpt lat="43.99317" lon="4.14431">
        <ele>187</ele>
        <time>2019-10-27T15:14:08Z</time>
      </trkpt>
      <trkpt lat="43.99325" lon="4.14405">
        <ele>188</ele>
        <time>2019-10-27T15:14:14Z</time>
      </trkpt>
      <trkpt lat="43.99328" lon="4.14377">
        <ele>189</ele>
        <time>2019-10-27T15:14:20Z</time>
      </trkpt>
      <trkpt lat="43.99326" lon="4.14352">
        <ele>189</ele>
        <time>2019-10-27T15:14:25Z</time>
      </trkpt>
      <trkpt lat="43.99318" lon="4.14324">
        <ele>190</ele>
        <time>2019-10-27T15:14:31Z</time>
      </trkpt>
      <trkpt lat="43.99311" lon="4.14306">
        <ele>191</ele>
        <time>2019-10-27T15:14:36Z</time>
      </trkpt>
      <trkpt lat="43.99309" lon="4.14291">
        <ele>191</ele>
        <time>2019-10-27T15:14:40Z</time>
      </trkpt>
      <trkpt lat="43.99315" lon="4.14268">
        <ele>191</ele>
        <time>2019-10-27T15:14:44Z</time>
      </trkpt>
      <trkpt lat="43.99326" lon="4.14245">
        <ele>191</ele>
        <time>2019-10-27T15:14:48Z</time>
      </trkpt>
      <trkpt lat="43.99338" lon="4.14219">
        <ele>191</ele>
        <time>2019-10-27T15:14:52Z</time>
      </trkpt>
      <trkpt lat="43.99351" lon="4.14191">
        <ele>191</ele>
        <time>2019-10-27T15:14:56Z</time>
      </trkpt>
      <trkpt lat="43.99363" lon="4.14168">
        <ele>191</ele>
        <time>2019-10-27T15:14:59Z</time>
      </trkpt>
      <trkpt lat="43.99374" lon="4.14146">
        <ele>191</ele>
        <time>2019-10-27T15:15:02Z</time>
      </trkpt>
      <trkpt lat="43.99384" lon="4.14121">
        <ele>191</ele>
        <time>2019-10-27T15:15:05Z</time>
      </trkpt>
      <trkpt lat="43.99388" lon="4.14113">
        <ele>191</ele>
        <time>2019-10-27T15:15:06Z</time>
      </trkpt>
      <trkpt lat="43.99402" lon="4.14084">
        <ele>190</ele>
        <time>2019-10-27T15:15:10Z</time>
      </trkpt>
      <trkpt lat="43.99411" lon="4.14062">
        <ele>189</ele>
        <time>2019-10-27T15:15:13Z</time>
      </trkpt>
      <trkpt lat="43.99414" lon="4.14055">
        <ele>189</ele>
        <time>2019-10-27T15:15:14Z</time>
      </trkpt>
      <trkpt lat="43.99426" lon="4.14024">
        <ele>188</ele>
        <time>2019-10-27T15:15:18Z</time>
      </trkpt>
      <trkpt lat="43.99429" lon="4.14017">
        <ele>188</ele>
        <time>2019-10-27T15:15:19Z</time>
      </trkpt>
      <trkpt lat="43.99439" lon="4.13994">
        <ele>187</ele>
        <time>2019-10-27T15:15:23Z</time>
      </trkpt>
      <trkpt lat="43.9945" lon="4.13959">
        <ele>186</ele>
        <time>2019-10-27T15:15:27Z</time>
      </trkpt>
      <trkpt lat="43.99456" lon="4.13938">
        <ele>186</ele>
        <time>2019-10-27T15:15:30Z</time>
      </trkpt>
      <trkpt lat="43.99457" lon="4.13933">
        <ele>185</ele>
        <time>2019-10-27T15:15:34Z</time>
      </trkpt>
      <trkpt lat="43.99459" lon="4.13928">
        <ele>186</ele>
        <time>2019-10-27T15:16:28Z</time>
      </trkpt>
      <trkpt lat="43.99459" lon="4.13927">
        <ele>186</ele>
        <time>2019-10-27T15:16:29Z</time>
      </trkpt>
      <trkpt lat="43.99459" lon="4.13915">
        <ele>186</ele>
        <time>2019-10-27T15:16:34Z</time>
      </trkpt>
      <trkpt lat="43.99458" lon="4.13886">
        <ele>187</ele>
        <time>2019-10-27T15:16:42Z</time>
      </trkpt>
      <trkpt lat="43.99459" lon="4.13861">
        <ele>187</ele>
        <time>2019-10-27T15:16:49Z</time>
      </trkpt>
      <trkpt lat="43.99461" lon="4.13833">
        <ele>185</ele>
        <time>2019-10-27T15:16:57Z</time>
      </trkpt>
      <trkpt lat="43.99456" lon="4.13814">
        <ele>185</ele>
        <time>2019-10-27T15:17:03Z</time>
      </trkpt>
      <trkpt lat="43.99443" lon="4.13795">
        <ele>184</ele>
        <time>2019-10-27T15:17:10Z</time>
      </trkpt>
      <trkpt lat="43.99432" lon="4.1378">
        <ele>183</ele>
        <time>2019-10-27T15:17:15Z</time>
      </trkpt>
      <trkpt lat="43.99418" lon="4.13762">
        <ele>183</ele>
        <time>2019-10-27T15:17:21Z</time>
      </trkpt>
      <trkpt lat="43.99409" lon="4.1375">
        <ele>183</ele>
        <time>2019-10-27T15:17:26Z</time>
      </trkpt>
      <trkpt lat="43.99401" lon="4.13731">
        <ele>183</ele>
        <time>2019-10-27T15:17:33Z</time>
      </trkpt>
      <trkpt lat="43.99397" lon="4.13711">
        <ele>183</ele>
        <time>2019-10-27T15:17:41Z</time>
      </trkpt>
      <trkpt lat="43.99389" lon="4.13696">
        <ele>183</ele>
        <time>2019-10-27T15:17:48Z</time>
      </trkpt>
      <trkpt lat="43.99376" lon="4.13683">
        <ele>182</ele>
        <time>2019-10-27T15:17:56Z</time>
      </trkpt>
      <trkpt lat="43.99364" lon="4.1367">
        <ele>182</ele>
        <time>2019-10-27T15:18:05Z</time>
      </trkpt>
      <trkpt lat="43.99357" lon="4.13665">
        <ele>182</ele>
        <time>2019-10-27T15:18:09Z</time>
      </trkpt>
      <trkpt lat="43.99351" lon="4.13657">
        <ele>182</ele>
        <time>2019-10-27T15:18:14Z</time>
      </trkpt>
      <trkpt lat="43.99339" lon="4.13646">
        <ele>182</ele>
        <time>2019-10-27T15:18:22Z</time>
      </trkpt>
      <trkpt lat="43.99338" lon="4.13644">
        <ele>182</ele>
        <time>2019-10-27T15:18:23Z</time>
      </trkpt>
      <trkpt lat="43.99333" lon="4.13632">
        <ele>182</ele>
        <time>2019-10-27T15:18:29Z</time>
      </trkpt>
      <trkpt lat="43.99333" lon="4.13625">
        <ele>182</ele>
        <time>2019-10-27T15:18:32Z</time>
      </trkpt>
      <trkpt lat="43.99337" lon="4.13618">
        <ele>182</ele>
        <time>2019-10-27T15:18:36Z</time>
      </trkpt>
      <trkpt lat="43.99347" lon="4.1361">
        <ele>182</ele>
        <time>2019-10-27T15:18:43Z</time>
      </trkpt>
      <trkpt lat="43.99355" lon="4.13604">
        <ele>182</ele>
        <time>2019-10-27T15:18:49Z</time>
      </trkpt>
      <trkpt lat="43.99359" lon="4.13601">
        <ele>182</ele>
        <time>2019-10-27T15:18:53Z</time>
      </trkpt>
      <trkpt lat="43.99367" lon="4.13594">
        <ele>182</ele>
        <time>2019-10-27T15:18:59Z</time>
      </trkpt>
      <trkpt lat="43.99369" lon="4.1358">
        <ele>183</ele>
        <time>2019-10-27T15:19:05Z</time>
      </trkpt>
      <trkpt lat="43.99371" lon="4.13567">
        <ele>184</ele>
        <time>2019-10-27T15:19:11Z</time>
      </trkpt>
      <trkpt lat="43.99386" lon="4.13562">
        <ele>186</ele>
        <time>2019-10-27T15:19:20Z</time>
      </trkpt>
      <trkpt lat="43.99404" lon="4.13555">
        <ele>188</ele>
        <time>2019-10-27T15:19:29Z</time>
      </trkpt>
      <trkpt lat="43.99416" lon="4.13542">
        <ele>189</ele>
        <time>2019-10-27T15:19:36Z</time>
      </trkpt>
      <trkpt lat="43.99427" lon="4.1353">
        <ele>190</ele>
        <time>2019-10-27T15:19:42Z</time>
      </trkpt>
      <trkpt lat="43.99439" lon="4.13514">
        <ele>190</ele>
        <time>2019-10-27T15:19:50Z</time>
      </trkpt>
      <trkpt lat="43.99449" lon="4.13502">
        <ele>191</ele>
        <time>2019-10-27T15:19:56Z</time>
      </trkpt>
      <trkpt lat="43.99463" lon="4.13483">
        <ele>191</ele>
        <time>2019-10-27T15:20:05Z</time>
      </trkpt>
      <trkpt lat="43.9947" lon="4.13476">
        <ele>191</ele>
        <time>2019-10-27T15:20:10Z</time>
      </trkpt>
      <trkpt lat="43.99477" lon="4.13467">
        <ele>191</ele>
        <time>2019-10-27T15:20:17Z</time>
      </trkpt>
      <trkpt lat="43.99491" lon="4.13457">
        <ele>192</ele>
        <time>2019-10-27T15:20:24Z</time>
      </trkpt>
      <trkpt lat="43.99507" lon="4.13436">
        <ele>192</ele>
        <time>2019-10-27T15:20:29Z</time>
      </trkpt>
      <trkpt lat="43.99522" lon="4.13418">
        <ele>193</ele>
        <time>2019-10-27T15:20:32Z</time>
      </trkpt>
      <trkpt lat="43.99538" lon="4.13397">
        <ele>193</ele>
        <time>2019-10-27T15:20:35Z</time>
      </trkpt>
      <trkpt lat="43.99554" lon="4.13378">
        <ele>193</ele>
        <time>2019-10-27T15:20:38Z</time>
      </trkpt>
      <trkpt lat="43.99572" lon="4.13358">
        <ele>193</ele>
        <time>2019-10-27T15:20:42Z</time>
      </trkpt>
      <trkpt lat="43.99586" lon="4.13341">
        <ele>193</ele>
        <time>2019-10-27T15:20:46Z</time>
      </trkpt>
      <trkpt lat="43.996" lon="4.13323">
        <ele>193</ele>
        <time>2019-10-27T15:20:52Z</time>
      </trkpt>
      <trkpt lat="43.99614" lon="4.13306">
        <ele>193</ele>
        <time>2019-10-27T15:20:59Z</time>
      </trkpt>
      <trkpt lat="43.99628" lon="4.13291">
        <ele>193</ele>
        <time>2019-10-27T15:21:06Z</time>
      </trkpt>
      <trkpt lat="43.99641" lon="4.13276">
        <ele>193</ele>
        <time>2019-10-27T15:21:13Z</time>
      </trkpt>
      <trkpt lat="43.99649" lon="4.1326">
        <ele>193</ele>
        <time>2019-10-27T15:21:19Z</time>
      </trkpt>
      <trkpt lat="43.99659" lon="4.1325">
        <ele>193</ele>
        <time>2019-10-27T15:21:24Z</time>
      </trkpt>
      <trkpt lat="43.99665" lon="4.13244">
        <ele>193</ele>
        <time>2019-10-27T15:21:29Z</time>
      </trkpt>
      <trkpt lat="43.99672" lon="4.13235">
        <ele>193</ele>
        <time>2019-10-27T15:21:35Z</time>
      </trkpt>
      <trkpt lat="43.99674" lon="4.13232">
        <ele>193</ele>
        <time>2019-10-27T15:21:39Z</time>
      </trkpt>
      <trkpt lat="43.99674" lon="4.13232">
        <ele>193</ele>
        <time>2019-10-27T15:21:40Z</time>
      </trkpt>
      <trkpt lat="43.99674" lon="4.13206">
        <ele>195</ele>
        <time>2019-10-27T15:23:14Z</time>
      </trkpt>
      <trkpt lat="43.99673" lon="4.13211">
        <ele>195</ele>
        <time>2019-10-27T15:23:17Z</time>
      </trkpt>
      <trkpt lat="43.99674" lon="4.1322">
        <ele>195</ele>
        <time>2019-10-27T15:23:21Z</time>
      </trkpt>
      <trkpt lat="43.99676" lon="4.13231">
        <ele>195</ele>
        <time>2019-10-27T15:23:27Z</time>
      </trkpt>
      <trkpt lat="43.99678" lon="4.13232">
        <ele>195</ele>
        <time>2019-10-27T15:23:29Z</time>
      </trkpt>
      <trkpt lat="43.99689" lon="4.13236">
        <ele>195</ele>
        <time>2019-10-27T15:23:36Z</time>
      </trkpt>
      <trkpt lat="43.99702" lon="4.1324">
        <ele>196</ele>
        <time>2019-10-27T15:23:44Z</time>
      </trkpt>
      <trkpt lat="43.9972" lon="4.13241">
        <ele>197</ele>
        <time>2019-10-27T15:23:54Z</time>
      </trkpt>
      <trkpt lat="43.99733" lon="4.13241">
        <ele>198</ele>
        <time>2019-10-27T15:24:02Z</time>
      </trkpt>
      <trkpt lat="43.99745" lon="4.13241">
        <ele>198</ele>
        <time>2019-10-27T15:24:10Z</time>
      </trkpt>
      <trkpt lat="43.99758" lon="4.13242">
        <ele>199</ele>
        <time>2019-10-27T15:24:19Z</time>
      </trkpt>
      <trkpt lat="43.99769" lon="4.13244">
        <ele>200</ele>
        <time>2019-10-27T15:24:27Z</time>
      </trkpt>
      <trkpt lat="43.99778" lon="4.13247">
        <ele>201</ele>
        <time>2019-10-27T15:24:34Z</time>
      </trkpt>
      <trkpt lat="43.99784" lon="4.13251">
        <ele>202</ele>
        <time>2019-10-27T15:24:40Z</time>
      </trkpt>
      <trkpt lat="43.99787" lon="4.13253">
        <ele>202</ele>
        <time>2019-10-27T15:24:43Z</time>
      </trkpt>
      <trkpt lat="43.99799" lon="4.1326">
        <ele>204</ele>
        <time>2019-10-27T15:24:52Z</time>
      </trkpt>
      <trkpt lat="43.99814" lon="4.13267">
        <ele>206</ele>
        <time>2019-10-27T15:25:02Z</time>
      </trkpt>
      <trkpt lat="43.99824" lon="4.13271">
        <ele>207</ele>
        <time>2019-10-27T15:25:09Z</time>
      </trkpt>
      <trkpt lat="43.99831" lon="4.13274">
        <ele>208</ele>
        <time>2019-10-27T15:25:15Z</time>
      </trkpt>
      <trkpt lat="43.99834" lon="4.13275">
        <ele>209</ele>
        <time>2019-10-27T15:25:17Z</time>
      </trkpt>
      <trkpt lat="43.99845" lon="4.13278">
        <ele>210</ele>
        <time>2019-10-27T15:25:24Z</time>
      </trkpt>
      <trkpt lat="43.99856" lon="4.13281">
        <ele>211</ele>
        <time>2019-10-27T15:25:31Z</time>
      </trkpt>
      <trkpt lat="43.99864" lon="4.13284">
        <ele>211</ele>
        <time>2019-10-27T15:25:36Z</time>
      </trkpt>
      <trkpt lat="43.99871" lon="4.13286">
        <ele>211</ele>
        <time>2019-10-27T15:25:40Z</time>
      </trkpt>
      <trkpt lat="43.99872" lon="4.13288">
        <ele>211</ele>
        <time>2019-10-27T15:25:43Z</time>
      </trkpt>
      <trkpt lat="43.99878" lon="4.13294">
        <ele>212</ele>
        <time>2019-10-27T15:25:48Z</time>
      </trkpt>
      <trkpt lat="43.99885" lon="4.13297">
        <ele>212</ele>
        <time>2019-10-27T15:25:51Z</time>
      </trkpt>
      <trkpt lat="43.99891" lon="4.133">
        <ele>212</ele>
        <time>2019-10-27T15:25:53Z</time>
      </trkpt>
      <trkpt lat="43.99907" lon="4.13306">
        <ele>212</ele>
        <time>2019-10-27T15:25:57Z</time>
      </trkpt>
      <trkpt lat="43.99923" lon="4.13312">
        <ele>212</ele>
        <time>2019-10-27T15:26:00Z</time>
      </trkpt>
      <trkpt lat="43.99938" lon="4.13324">
        <ele>212</ele>
        <time>2019-10-27T15:26:04Z</time>
      </trkpt>
      <trkpt lat="43.99942" lon="4.1333">
        <ele>212</ele>
        <time>2019-10-27T15:26:05Z</time>
      </trkpt>
      <trkpt lat="43.99946" lon="4.13336">
        <ele>212</ele>
        <time>2019-10-27T15:26:06Z</time>
      </trkpt>
      <trkpt lat="43.99956" lon="4.13365">
        <ele>212</ele>
        <time>2019-10-27T15:26:10Z</time>
      </trkpt>
      <trkpt lat="43.99958" lon="4.13371">
        <ele>212</ele>
        <time>2019-10-27T15:26:11Z</time>
      </trkpt>
      <trkpt lat="43.9996" lon="4.13377">
        <ele>212</ele>
        <time>2019-10-27T15:26:12Z</time>
      </trkpt>
      <trkpt lat="43.99962" lon="4.13392">
        <ele>212</ele>
        <time>2019-10-27T15:26:15Z</time>
      </trkpt>
      <trkpt lat="43.99963" lon="4.13396">
        <ele>212</ele>
        <time>2019-10-27T15:26:16Z</time>
      </trkpt>
      <trkpt lat="43.99967" lon="4.13415">
        <ele>212</ele>
        <time>2019-10-27T15:26:21Z</time>
      </trkpt>
      <trkpt lat="43.99968" lon="4.13419">
        <ele>212</ele>
        <time>2019-10-27T15:26:22Z</time>
      </trkpt>
      <trkpt lat="43.99975" lon="4.13442">
        <ele>212</ele>
        <time>2019-10-27T15:26:28Z</time>
      </trkpt>
      <trkpt lat="43.99985" lon="4.13464">
        <ele>212</ele>
        <time>2019-10-27T15:26:35Z</time>
      </trkpt>
      <trkpt lat="43.99989" lon="4.13472">
        <ele>212</ele>
        <time>2019-10-27T15:26:39Z</time>
      </trkpt>
      <trkpt lat="44.00085" lon="4.13696">
        <ele>207</ele>
        <time>2019-10-27T15:27:54Z</time>
      </trkpt>
      <trkpt lat="44.00091" lon="4.13704">
        <ele>207</ele>
        <time>2019-10-27T15:27:56Z</time>
      </trkpt>
      <trkpt lat="44.00099" lon="4.13714">
        <ele>206</ele>
        <time>2019-10-27T15:27:58Z</time>
      </trkpt>
      <trkpt lat="44.00106" lon="4.13739">
        <ele>205</ele>
        <time>2019-10-27T15:28:02Z</time>
      </trkpt>
      <trkpt lat="44.00104" lon="4.13772">
        <ele>203</ele>
        <time>2019-10-27T15:28:06Z</time>
      </trkpt>
      <trkpt lat="44.00105" lon="4.1378">
        <ele>203</ele>
        <time>2019-10-27T15:28:07Z</time>
      </trkpt>
      <trkpt lat="44.00111" lon="4.13803">
        <ele>202</ele>
        <time>2019-10-27T15:28:10Z</time>
      </trkpt>
      <trkpt lat="44.00114" lon="4.13812">
        <ele>202</ele>
        <time>2019-10-27T15:28:11Z</time>
      </trkpt>
      <trkpt lat="44.00129" lon="4.13832">
        <ele>201</ele>
        <time>2019-10-27T15:28:15Z</time>
      </trkpt>
      <trkpt lat="44.00134" lon="4.13834">
        <ele>200</ele>
        <time>2019-10-27T15:28:16Z</time>
      </trkpt>
      <trkpt lat="44.00175" lon="4.13843">
        <ele>198</ele>
        <time>2019-10-27T15:28:23Z</time>
      </trkpt>
      <trkpt lat="44.00193" lon="4.13845">
        <ele>197</ele>
        <time>2019-10-27T15:28:26Z</time>
      </trkpt>
      <trkpt lat="44.00215" lon="4.13844">
        <ele>196</ele>
        <time>2019-10-27T15:28:29Z</time>
      </trkpt>
      <trkpt lat="44.00234" lon="4.13841">
        <ele>196</ele>
        <time>2019-10-27T15:28:31Z</time>
      </trkpt>
      <trkpt lat="44.00255" lon="4.13838">
        <ele>195</ele>
        <time>2019-10-27T15:28:33Z</time>
      </trkpt>
      <trkpt lat="44.00276" lon="4.13832">
        <ele>194</ele>
        <time>2019-10-27T15:28:35Z</time>
      </trkpt>
      <trkpt lat="44.00296" lon="4.13822">
        <ele>194</ele>
        <time>2019-10-27T15:28:37Z</time>
      </trkpt>
      <trkpt lat="44.00314" lon="4.13811">
        <ele>193</ele>
        <time>2019-10-27T15:28:39Z</time>
      </trkpt>
      <trkpt lat="44.00332" lon="4.13802">
        <ele>192</ele>
        <time>2019-10-27T15:28:42Z</time>
      </trkpt>
      <trkpt lat="44.00339" lon="4.13798">
        <ele>192</ele>
        <time>2019-10-27T15:28:44Z</time>
      </trkpt>
      <trkpt lat="44.00353" lon="4.13771">
        <ele>190</ele>
        <time>2019-10-27T15:28:49Z</time>
      </trkpt>
      <trkpt lat="44.00356" lon="4.13765">
        <ele>190</ele>
        <time>2019-10-27T15:28:50Z</time>
      </trkpt>
      <trkpt lat="44.0036" lon="4.13755">
        <ele>189</ele>
        <time>2019-10-27T15:28:52Z</time>
      </trkpt>
      <trkpt lat="44.00369" lon="4.13726">
        <ele>187</ele>
        <time>2019-10-27T15:28:58Z</time>
      </trkpt>
      <trkpt lat="44.00371" lon="4.13718">
        <ele>187</ele>
        <time>2019-10-27T15:28:59Z</time>
      </trkpt>
      <trkpt lat="44.00383" lon="4.13689">
        <ele>186</ele>
        <time>2019-10-27T15:29:03Z</time>
      </trkpt>
      <trkpt lat="44.00388" lon="4.13683">
        <ele>185</ele>
        <time>2019-10-27T15:29:04Z</time>
      </trkpt>
      <trkpt lat="44.00411" lon="4.13661">
        <ele>184</ele>
        <time>2019-10-27T15:29:08Z</time>
      </trkpt>
      <trkpt lat="44.00422" lon="4.13651">
        <ele>184</ele>
        <time>2019-10-27T15:29:10Z</time>
      </trkpt>
      <trkpt lat="44.00449" lon="4.13641">
        <ele>183</ele>
        <time>2019-10-27T15:29:14Z</time>
      </trkpt>
      <trkpt lat="44.00473" lon="4.13638">
        <ele>182</ele>
        <time>2019-10-27T15:29:17Z</time>
      </trkpt>
      <trkpt lat="44.0048" lon="4.13638">
        <ele>182</ele>
        <time>2019-10-27T15:29:18Z</time>
      </trkpt>
      <trkpt lat="44.00498" lon="4.13646">
        <ele>181</ele>
        <time>2019-10-27T15:29:21Z</time>
      </trkpt>
      <trkpt lat="44.00514" lon="4.13662">
        <ele>179</ele>
        <time>2019-10-27T15:29:24Z</time>
      </trkpt>
      <trkpt lat="44.00521" lon="4.13667">
        <ele>179</ele>
        <time>2019-10-27T15:29:25Z</time>
      </trkpt>
      <trkpt lat="44.00535" lon="4.13678">
        <ele>178</ele>
        <time>2019-10-27T15:29:27Z</time>
      </trkpt>
      <trkpt lat="44.00557" lon="4.13683">
        <ele>176</ele>
        <time>2019-10-27T15:29:30Z</time>
      </trkpt>
      <trkpt lat="44.00579" lon="4.13698">
        <ele>173</ele>
        <time>2019-10-27T15:29:34Z</time>
      </trkpt>
      <trkpt lat="44.00584" lon="4.13703">
        <ele>172</ele>
        <time>2019-10-27T15:29:35Z</time>
      </trkpt>
      <trkpt lat="44.00587" lon="4.13706">
        <ele>172</ele>
        <time>2019-10-27T15:29:36Z</time>
      </trkpt>
      <trkpt lat="44.006" lon="4.13715">
        <ele>170</ele>
        <time>2019-10-27T15:29:39Z</time>
      </trkpt>
      <trkpt lat="44.00609" lon="4.13717">
        <ele>167</ele>
        <time>2019-10-27T15:29:43Z</time>
      </trkpt>
      <trkpt lat="44.00606" lon="4.13708">
        <ele>166</ele>
        <time>2019-10-27T15:29:46Z</time>
      </trkpt>
      <trkpt lat="44.006" lon="4.137">
        <ele>164</ele>
        <time>2019-10-27T15:29:49Z</time>
      </trkpt>
      <trkpt lat="44.00588" lon="4.13686">
        <ele>162</ele>
        <time>2019-10-27T15:29:54Z</time>
      </trkpt>
      <trkpt lat="44.00587" lon="4.13684">
        <ele>161</ele>
        <time>2019-10-27T15:29:55Z</time>
      </trkpt>
      <trkpt lat="44.00581" lon="4.13681">
        <ele>161</ele>
        <time>2019-10-27T15:29:57Z</time>
      </trkpt>
      <trkpt lat="44.00578" lon="4.13676">
        <ele>160</ele>
        <time>2019-10-27T15:29:59Z</time>
      </trkpt>
      <trkpt lat="44.00558" lon="4.1359">
        <ele>156</ele>
        <time>2019-10-27T15:30:08Z</time>
      </trkpt>
      <trkpt lat="44.00553" lon="4.13564">
        <ele>155</ele>
        <time>2019-10-27T15:30:12Z</time>
      </trkpt>
      <trkpt lat="44.00551" lon="4.13548">
        <ele>155</ele>
        <time>2019-10-27T15:30:15Z</time>
      </trkpt>
      <trkpt lat="44.00548" lon="4.13539">
        <ele>154</ele>
        <time>2019-10-27T15:30:17Z</time>
      </trkpt>
      <trkpt lat="44.00547" lon="4.1351">
        <ele>152</ele>
        <time>2019-10-27T15:30:24Z</time>
      </trkpt>
      <trkpt lat="44.00551" lon="4.13482">
        <ele>150</ele>
        <time>2019-10-27T15:30:31Z</time>
      </trkpt>
      <trkpt lat="44.00552" lon="4.13461">
        <ele>148</ele>
        <time>2019-10-27T15:30:37Z</time>
      </trkpt>
      <trkpt lat="44.00546" lon="4.13434">
        <ele>146</ele>
        <time>2019-10-27T15:30:44Z</time>
      </trkpt>
      <trkpt lat="44.00543" lon="4.13419">
        <ele>144</ele>
        <time>2019-10-27T15:30:49Z</time>
      </trkpt>
      <trkpt lat="44.0054" lon="4.13402">
        <ele>143</ele>
        <time>2019-10-27T15:30:54Z</time>
      </trkpt>
      <trkpt lat="44.00536" lon="4.13377">
        <ele>141</ele>
        <time>2019-10-27T15:31:01Z</time>
      </trkpt>
      <trkpt lat="44.00533" lon="4.13352">
        <ele>140</ele>
        <time>2019-10-27T15:31:08Z</time>
      </trkpt>
      <trkpt lat="44.00525" lon="4.13332">
        <ele>138</ele>
        <time>2019-10-27T15:31:14Z</time>
      </trkpt>
      <trkpt lat="44.00523" lon="4.13312">
        <ele>137</ele>
        <time>2019-10-27T15:31:21Z</time>
      </trkpt>
      <trkpt lat="44.00521" lon="4.13301">
        <ele>137</ele>
        <time>2019-10-27T15:31:25Z</time>
      </trkpt>
      <trkpt lat="44.00515" lon="4.13274">
        <ele>136</ele>
        <time>2019-10-27T15:31:31Z</time>
      </trkpt>
      <trkpt lat="44.00514" lon="4.13251">
        <ele>135</ele>
        <time>2019-10-27T15:31:35Z</time>
      </trkpt>
      <trkpt lat="44.00513" lon="4.13225">
        <ele>135</ele>
        <time>2019-10-27T15:31:39Z</time>
      </trkpt>
      <trkpt lat="44.00512" lon="4.13213">
        <ele>134</ele>
        <time>2019-10-27T15:31:41Z</time>
      </trkpt>
      <trkpt lat="44.00512" lon="4.13189">
        <ele>134</ele>
        <time>2019-10-27T15:31:49Z</time>
      </trkpt>
      <trkpt lat="44.00514" lon="4.1319">
        <ele>134</ele>
        <time>2019-10-27T15:31:52Z</time>
      </trkpt>
      <trkpt lat="44.00531" lon="4.1319">
        <ele>134</ele>
        <time>2019-10-27T15:31:57Z</time>
      </trkpt>
      <trkpt lat="44.00539" lon="4.13192">
        <ele>133</ele>
        <time>2019-10-27T15:32:00Z</time>
      </trkpt>
      <trkpt lat="44.00541" lon="4.13198">
        <ele>133</ele>
        <time>2019-10-27T15:32:05Z</time>
      </trkpt>
      <trkpt lat="44.00544" lon="4.132">
        <ele>132</ele>
        <time>2019-10-27T15:32:07Z</time>
      </trkpt>
      <trkpt lat="44.00549" lon="4.13199">
        <ele>132</ele>
        <time>2019-10-27T15:32:10Z</time>
      </trkpt>
      <trkpt lat="44.00585" lon="4.13091">
        <ele>107</ele>
        <time>2019-10-27T15:38:06Z</time>
      </trkpt>
      <trkpt lat="44.00587" lon="4.13082">
        <ele>107</ele>
        <time>2019-10-27T15:38:09Z</time>
      </trkpt>
      <trkpt lat="44.00594" lon="4.13059">
        <ele>107</ele>
        <time>2019-10-27T15:38:18Z</time>
      </trkpt>
      <trkpt lat="44.00604" lon="4.13048">
        <ele>107</ele>
        <time>2019-10-27T15:38:24Z</time>
      </trkpt>
      <trkpt lat="44.00617" lon="4.13031">
        <ele>107</ele>
        <time>2019-10-27T15:38:31Z</time>
      </trkpt>
      <trkpt lat="44.0063" lon="4.13026">
        <ele>107</ele>
        <time>2019-10-27T15:38:35Z</time>
      </trkpt>
      <trkpt lat="44.00651" lon="4.13028">
        <ele>107</ele>
        <time>2019-10-27T15:38:39Z</time>
      </trkpt>
      <trkpt lat="44.0067" lon="4.13028">
        <ele>107</ele>
        <time>2019-10-27T15:38:42Z</time>
      </trkpt>
      <trkpt lat="44.00691" lon="4.13028">
        <ele>107</ele>
        <time>2019-10-27T15:38:45Z</time>
      </trkpt>
      <trkpt lat="44.00712" lon="4.13029">
        <ele>107</ele>
        <time>2019-10-27T15:38:48Z</time>
      </trkpt>
      <trkpt lat="44.00733" lon="4.13029">
        <ele>107</ele>
        <time>2019-10-27T15:38:51Z</time>
      </trkpt>
      <trkpt lat="44.00752" lon="4.1303">
        <ele>107</ele>
        <time>2019-10-27T15:38:54Z</time>
      </trkpt>
      <trkpt lat="44.00771" lon="4.1303">
        <ele>107</ele>
        <time>2019-10-27T15:38:57Z</time>
      </trkpt>
      <trkpt lat="44.00791" lon="4.13031">
        <ele>107</ele>
        <time>2019-10-27T15:39:00Z</time>
      </trkpt>
      <trkpt lat="44.0081" lon="4.13032">
        <ele>107</ele>
        <time>2019-10-27T15:39:03Z</time>
      </trkpt>
      <trkpt lat="44.00833" lon="4.13037">
        <ele>107</ele>
        <time>2019-10-27T15:39:07Z</time>
      </trkpt>
      <trkpt lat="44.00838" lon="4.1304">
        <ele>107</ele>
        <time>2019-10-27T15:39:08Z</time>
      </trkpt>
      <trkpt lat="44.00864" lon="4.13055">
        <ele>106</ele>
        <time>2019-10-27T15:39:13Z</time>
      </trkpt>
      <trkpt lat="44.00885" lon="4.13067">
        <ele>106</ele>
        <time>2019-10-27T15:39:17Z</time>
      </trkpt>
      <trkpt lat="44.00904" lon="4.13079">
        <ele>106</ele>
        <time>2019-10-27T15:39:21Z</time>
      </trkpt>
      <trkpt lat="44.00924" lon="4.13091">
        <ele>105</ele>
        <time>2019-10-27T15:39:25Z</time>
      </trkpt>
      <trkpt lat="44.00944" lon="4.13104">
        <ele>105</ele>
        <time>2019-10-27T15:39:29Z</time>
      </trkpt>
      <trkpt lat="44.00965" lon="4.13117">
        <ele>104</ele>
        <time>2019-10-27T15:39:33Z</time>
      </trkpt>
      <trkpt lat="44.00985" lon="4.1313">
        <ele>104</ele>
        <time>2019-10-27T15:39:37Z</time>
      </trkpt>
      <trkpt lat="44.01005" lon="4.13143">
        <ele>104</ele>
        <time>2019-10-27T15:39:41Z</time>
      </trkpt>
      <trkpt lat="44.01025" lon="4.13156">
        <ele>103</ele>
        <time>2019-10-27T15:39:45Z</time>
      </trkpt>
      <trkpt lat="44.01045" lon="4.1317">
        <ele>103</ele>
        <time>2019-10-27T15:39:49Z</time>
      </trkpt>
      <trkpt lat="44.01065" lon="4.13183">
        <ele>103</ele>
        <time>2019-10-27T15:39:53Z</time>
      </trkpt>
      <trkpt lat="44.01085" lon="4.13197">
        <ele>102</ele>
        <time>2019-10-27T15:39:57Z</time>
      </trkpt>
      <trkpt lat="44.01105" lon="4.13211">
        <ele>102</ele>
        <time>2019-10-27T15:40:01Z</time>
      </trkpt>
      <trkpt lat="44.01124" lon="4.13226">
        <ele>102</ele>
        <time>2019-10-27T15:40:05Z</time>
      </trkpt>
      <trkpt lat="44.01144" lon="4.1324">
        <ele>101</ele>
        <time>2019-10-27T15:40:09Z</time>
      </trkpt>
      <trkpt lat="44.01163" lon="4.13254">
        <ele>101</ele>
        <time>2019-10-27T15:40:13Z</time>
      </trkpt>
      <trkpt lat="44.01181" lon="4.13268">
        <ele>101</ele>
        <time>2019-10-27T15:40:17Z</time>
      </trkpt>
      <trkpt lat="44.012" lon="4.13279">
        <ele>101</ele>
        <time>2019-10-27T15:40:21Z</time>
      </trkpt>
      <trkpt lat="44.01207" lon="4.13284">
        <ele>101</ele>
        <time>2019-10-27T15:40:23Z</time>
      </trkpt>
      <trkpt lat="44.01229" lon="4.13287">
        <ele>101</ele>
        <time>2019-10-27T15:40:27Z</time>
      </trkpt>
      <trkpt lat="44.01256" lon="4.13285">
        <ele>101</ele>
        <time>2019-10-27T15:40:32Z</time>
      </trkpt>
      <trkpt lat="44.01277" lon="4.13283">
        <ele>100</ele>
        <time>2019-10-27T15:40:36Z</time>
      </trkpt>
      <trkpt lat="44.01298" lon="4.13281">
        <ele>100</ele>
        <time>2019-10-27T15:40:40Z</time>
      </trkpt>
      <trkpt lat="44.01318" lon="4.13278">
        <ele>99</ele>
        <time>2019-10-27T15:40:44Z</time>
      </trkpt>
      <trkpt lat="44.01338" lon="4.13276">
        <ele>99</ele>
        <time>2019-10-27T15:40:48Z</time>
      </trkpt>
      <trkpt lat="44.01358" lon="4.13274">
        <ele>99</ele>
        <time>2019-10-27T15:40:52Z</time>
      </trkpt>
      <trkpt lat="44.01378" lon="4.13273">
        <ele>99</ele>
        <time>2019-10-27T15:40:56Z</time>
      </trkpt>
      <trkpt lat="44.01397" lon="4.13273">
        <ele>99</ele>
        <time>2019-10-27T15:41:00Z</time>
      </trkpt>
      <trkpt lat="44.01417" lon="4.13276">
        <ele>99</ele>
        <time>2019-10-27T15:41:04Z</time>
      </trkpt>
      <trkpt lat="44.01422" lon="4.13276">
        <ele>99</ele>
        <time>2019-10-27T15:41:05Z</time>
      </trkpt>
      <trkpt lat="44.01446" lon="4.13281">
        <ele>99</ele>
        <time>2019-10-27T15:41:10Z</time>
      </trkpt>
      <trkpt lat="44.01465" lon="4.13285">
        <ele>99</ele>
        <time>2019-10-27T15:41:14Z</time>
      </trkpt>
      <trkpt lat="44.01484" lon="4.13289">
        <ele>99</ele>
        <time>2019-10-27T15:41:18Z</time>
      </trkpt>
      <trkpt lat="44.01504" lon="4.13292">
        <ele>99</ele>
        <time>2019-10-27T15:41:22Z</time>
      </trkpt>
      <trkpt lat="44.01524" lon="4.13294">
        <ele>99</ele>
        <time>2019-10-27T15:41:26Z</time>
      </trkpt>
      <trkpt lat="44.01544" lon="4.13294">
        <ele>99</ele>
        <time>2019-10-27T15:41:30Z</time>
      </trkpt>
      <trkpt lat="44.01564" lon="4.13291">
        <ele>99</ele>
        <time>2019-10-27T15:41:34Z</time>
      </trkpt>
      <trkpt lat="44.01583" lon="4.13288">
        <ele>99</ele>
        <time>2019-10-27T15:41:38Z</time>
      </trkpt>
      <trkpt lat="44.01604" lon="4.13286">
        <ele>99</ele>
        <time>2019-10-27T15:41:42Z</time>
      </trkpt>
      <trkpt lat="44.01625" lon="4.13282">
        <ele>99</ele>
        <time>2019-10-27T15:41:46Z</time>
      </trkpt>
      <trkpt lat="44.01645" lon="4.13279">
        <ele>99</ele>
        <time>2019-10-27T15:41:50Z</time>
      </trkpt>
      <trkpt lat="44.01666" lon="4.13276">
        <ele>99</ele>
        <time>2019-10-27T15:41:54Z</time>
      </trkpt>
      <trkpt lat="44.01686" lon="4.13273">
        <ele>99</ele>
        <time>2019-10-27T15:41:58Z</time>
      </trkpt>
      <trkpt lat="44.01708" lon="4.1327">
        <ele>99</ele>
        <time>2019-10-27T15:42:03Z</time>
      </trkpt>
      <trkpt lat="44.01729" lon="4.13266">
        <ele>99</ele>
        <time>2019-10-27T15:42:08Z</time>
      </trkpt>
      <trkpt lat="44.0175" lon="4.13263">
        <ele>99</ele>
        <time>2019-10-27T15:42:13Z</time>
      </trkpt>
      <trkpt lat="44.0177" lon="4.13261">
        <ele>99</ele>
        <time>2019-10-27T15:42:18Z</time>
      </trkpt>
      <trkpt lat="44.0179" lon="4.13258">
        <ele>99</ele>
        <time>2019-10-27T15:42:23Z</time>
      </trkpt>
      <trkpt lat="44.0181" lon="4.13257">
        <ele>99</ele>
        <time>2019-10-27T15:42:28Z</time>
      </trkpt>
      <trkpt lat="44.0183" lon="4.13255">
        <ele>99</ele>
        <time>2019-10-27T15:42:33Z</time>
      </trkpt>
      <trkpt lat="44.0185" lon="4.13253">
        <ele>99</ele>
        <time>2019-10-27T15:42:38Z</time>
      </trkpt>
      <trkpt lat="44.01868" lon="4.13251">
        <ele>99</ele>
        <time>2019-10-27T15:42:43Z</time>
      </trkpt>
      <trkpt lat="44.01889" lon="4.13246">
        <ele>99</ele>
        <time>2019-10-27T15:42:49Z</time>
      </trkpt>
      <trkpt lat="44.01909" lon="4.13241">
        <ele>99</ele>
        <time>2019-10-27T15:42:55Z</time>
      </trkpt>
      <trkpt lat="44.0193" lon="4.13234">
        <ele>99</ele>
        <time>2019-10-27T15:43:01Z</time>
      </trkpt>
      <trkpt lat="44.01947" lon="4.13231">
        <ele>99</ele>
        <time>2019-10-27T15:43:06Z</time>
      </trkpt>
      <trkpt lat="44.01951" lon="4.13232">
        <ele>99</ele>
        <time>2019-10-27T15:43:07Z</time>
      </trkpt>
      <trkpt lat="44.01965" lon="4.13252">
        <ele>99</ele>
        <time>2019-10-27T15:43:12Z</time>
      </trkpt>
      <trkpt lat="44.01977" lon="4.13277">
        <ele>99</ele>
        <time>2019-10-27T15:43:17Z</time>
      </trkpt>
      <trkpt lat="44.01979" lon="4.13282">
        <ele>99</ele>
        <time>2019-10-27T15:43:18Z</time>
      </trkpt>
      <trkpt lat="44.01993" lon="4.13313">
        <ele>99</ele>
        <time>2019-10-27T15:43:24Z</time>
      </trkpt>
      <trkpt lat="44.02004" lon="4.13339">
        <ele>99</ele>
        <time>2019-10-27T15:43:29Z</time>
      </trkpt>
      <trkpt lat="44.02014" lon="4.1336">
        <ele>99</ele>
        <time>2019-10-27T15:43:33Z</time>
      </trkpt>
      <trkpt lat="44.02023" lon="4.13383">
        <ele>99</ele>
        <time>2019-10-27T15:43:37Z</time>
      </trkpt>
      <trkpt lat="44.02027" lon="4.13388">
        <ele>99</ele>
        <time>2019-10-27T15:43:38Z</time>
      </trkpt>
      <trkpt lat="44.0204" lon="4.13406">
        <ele>99</ele>
        <time>2019-10-27T15:43:42Z</time>
      </trkpt>
      <trkpt lat="44.02049" lon="4.13419">
        <ele>99</ele>
        <time>2019-10-27T15:43:45Z</time>
      </trkpt>
      <trkpt lat="44.02065" lon="4.13443">
        <ele>99</ele>
        <time>2019-10-27T15:43:50Z</time>
      </trkpt>
      <trkpt lat="44.02068" lon="4.13449">
        <ele>99</ele>
        <time>2019-10-27T15:43:51Z</time>
      </trkpt>
      <trkpt lat="44.02074" lon="4.13486">
        <ele>99</ele>
        <time>2019-10-27T15:43:56Z</time>
      </trkpt>
      <trkpt lat="44.02083" lon="4.13507">
        <ele>99</ele>
        <time>2019-10-27T15:43:59Z</time>
      </trkpt>
      <trkpt lat="44.02101" lon="4.13531">
        <ele>99</ele>
        <time>2019-10-27T15:44:03Z</time>
      </trkpt>
      <trkpt lat="44.02113" lon="4.13552">
        <ele>99</ele>
        <time>2019-10-27T15:44:07Z</time>
      </trkpt>
      <trkpt lat="44.02122" lon="4.13559">
        <ele>100</ele>
        <time>2019-10-27T15:44:09Z</time>
      </trkpt>
      <trkpt lat="44.02143" lon="4.13569">
        <ele>100</ele>
        <time>2019-10-27T15:44:13Z</time>
      </trkpt>
      <trkpt lat="44.02163" lon="4.13582">
        <ele>100</ele>
        <time>2019-10-27T15:44:18Z</time>
      </trkpt>
      <trkpt lat="44.02185" lon="4.13592">
        <ele>101</ele>
        <time>2019-10-27T15:44:23Z</time>
      </trkpt>
      <trkpt lat="44.02189" lon="4.13595">
        <ele>101</ele>
        <time>2019-10-27T15:44:24Z</time>
      </trkpt>
      <trkpt lat="44.02198" lon="4.13597">
        <ele>101</ele>
        <time>2019-10-27T15:44:26Z</time>
      </trkpt>
      <trkpt lat="44.02225" lon="4.13605">
        <ele>101</ele>
        <time>2019-10-27T15:44:31Z</time>
      </trkpt>
      <trkpt lat="44.02242" lon="4.13614">
        <ele>101</ele>
        <time>2019-10-27T15:44:35Z</time>
      </trkpt>
      <trkpt lat="44.0226" lon="4.13621">
        <ele>101</ele>
        <time>2019-10-27T15:44:39Z</time>
      </trkpt>
      <trkpt lat="44.02277" lon="4.13629">
        <ele>101</ele>
        <time>2019-10-27T15:44:43Z</time>
      </trkpt>
      <trkpt lat="44.02298" lon="4.13639">
        <ele>101</ele>
        <time>2019-10-27T15:44:48Z</time>
      </trkpt>
      <trkpt lat="44.02316" lon="4.13645">
        <ele>101</ele>
        <time>2019-10-27T15:44:52Z</time>
      </trkpt>
      <trkpt lat="44.02324" lon="4.13647">
        <ele>101</ele>
        <time>2019-10-27T15:44:54Z</time>
      </trkpt>
      <trkpt lat="44.02334" lon="4.13653">
        <ele>101</ele>
        <time>2019-10-27T15:44:57Z</time>
      </trkpt>
      <trkpt lat="44.02357" lon="4.13666">
        <ele>101</ele>
        <time>2019-10-27T15:45:03Z</time>
      </trkpt>
      <trkpt lat="44.02361" lon="4.13669">
        <ele>101</ele>
        <time>2019-10-27T15:45:04Z</time>
      </trkpt>
      <trkpt lat="44.02384" lon="4.13685">
        <ele>101</ele>
        <time>2019-10-27T15:45:10Z</time>
      </trkpt>
      <trkpt lat="44.02389" lon="4.13688">
        <ele>101</ele>
        <time>2019-10-27T15:45:11Z</time>
      </trkpt>
      <trkpt lat="44.02394" lon="4.1369">
        <ele>101</ele>
        <time>2019-10-27T15:45:12Z</time>
      </trkpt>
      <trkpt lat="44.02407" lon="4.137">
        <ele>101</ele>
        <time>2019-10-27T15:45:17Z</time>
      </trkpt>
      <trkpt lat="44.02423" lon="4.13711">
        <ele>101</ele>
        <time>2019-10-27T15:45:21Z</time>
      </trkpt>
      <trkpt lat="44.02438" lon="4.1372">
        <ele>101</ele>
        <time>2019-10-27T15:45:24Z</time>
      </trkpt>
      <trkpt lat="44.0246" lon="4.13734">
        <ele>101</ele>
        <time>2019-10-27T15:45:28Z</time>
      </trkpt>
      <trkpt lat="44.02465" lon="4.13738">
        <ele>101</ele>
        <time>2019-10-27T15:45:29Z</time>
      </trkpt>
      <trkpt lat="44.02492" lon="4.13755">
        <ele>101</ele>
        <time>2019-10-27T15:45:35Z</time>
      </trkpt>
      <trkpt lat="44.02496" lon="4.13758">
        <ele>101</ele>
        <time>2019-10-27T15:45:36Z</time>
      </trkpt>
      <trkpt lat="44.02503" lon="4.13764">
        <ele>101</ele>
        <time>2019-10-27T15:45:38Z</time>
      </trkpt>
      <trkpt lat="44.02532" lon="4.13774">
        <ele>101</ele>
        <time>2019-10-27T15:45:43Z</time>
      </trkpt>
      <trkpt lat="44.02553" lon="4.13779">
        <ele>101</ele>
        <time>2019-10-27T15:45:47Z</time>
      </trkpt>
      <trkpt lat="44.02574" lon="4.13785">
        <ele>101</ele>
        <time>2019-10-27T15:45:51Z</time>
      </trkpt>
      <trkpt lat="44.0258" lon="4.13786">
        <ele>101</ele>
        <time>2019-10-27T15:45:52Z</time>
      </trkpt>
      <trkpt lat="44.02602" lon="4.1379">
        <ele>101</ele>
        <time>2019-10-27T15:45:57Z</time>
      </trkpt>
      <trkpt lat="44.02613" lon="4.13794">
        <ele>100</ele>
        <time>2019-10-27T15:46:00Z</time>
      </trkpt>
      <trkpt lat="44.02632" lon="4.138">
        <ele>100</ele>
        <time>2019-10-27T15:46:05Z</time>
      </trkpt>
      <trkpt lat="44.02644" lon="4.13807">
        <ele>99</ele>
        <time>2019-10-27T15:46:09Z</time>
      </trkpt>
      <trkpt lat="44.02648" lon="4.13808">
        <ele>99</ele>
        <time>2019-10-27T15:46:10Z</time>
      </trkpt>
      <trkpt lat="44.02663" lon="4.13813">
        <ele>99</ele>
        <time>2019-10-27T15:46:13Z</time>
      </trkpt>
      <trkpt lat="44.02678" lon="4.13817">
        <ele>99</ele>
        <time>2019-10-27T15:46:16Z</time>
      </trkpt>
      <trkpt lat="44.02703" lon="4.13821">
        <ele>99</ele>
        <time>2019-10-27T15:46:21Z</time>
      </trkpt>
      <trkpt lat="44.02726" lon="4.13823">
        <ele>99</ele>
        <time>2019-10-27T15:46:25Z</time>
      </trkpt>
      <trkpt lat="44.02748" lon="4.13827">
        <ele>98</ele>
        <time>2019-10-27T15:46:29Z</time>
      </trkpt>
      <trkpt lat="44.02768" lon="4.13832">
        <ele>98</ele>
        <time>2019-10-27T15:46:33Z</time>
      </trkpt>
      <trkpt lat="44.02787" lon="4.13836">
        <ele>97</ele>
        <time>2019-10-27T15:46:37Z</time>
      </trkpt>
      <trkpt lat="44.02807" lon="4.13839">
        <ele>97</ele>
        <time>2019-10-27T15:46:41Z</time>
      </trkpt>
      <trkpt lat="44.02826" lon="4.13841">
        <ele>97</ele>
        <time>2019-10-27T15:46:45Z</time>
      </trkpt>
      <trkpt lat="44.0284" lon="4.13842">
        <ele>97</ele>
        <time>2019-10-27T15:46:48Z</time>
      </trkpt>
      <trkpt lat="44.02857" lon="4.13846">
        <ele>97</ele>
        <time>2019-10-27T15:46:52Z</time>
      </trkpt>
      <trkpt lat="44.02861" lon="4.13846">
        <ele>97</ele>
        <time>2019-10-27T15:46:53Z</time>
      </trkpt>
      <trkpt lat="44.0288" lon="4.13848">
        <ele>97</ele>
        <time>2019-10-27T15:46:57Z</time>
      </trkpt>
      <trkpt lat="44.02899" lon="4.13848">
        <ele>97</ele>
        <time>2019-10-27T15:47:01Z</time>
      </trkpt>
      <trkpt lat="44.02917" lon="4.13847">
        <ele>97</ele>
        <time>2019-10-27T15:47:05Z</time>
      </trkpt>
      <trkpt lat="44.02922" lon="4.13847">
        <ele>97</ele>
        <time>2019-10-27T15:47:06Z</time>
      </trkpt>
      <trkpt lat="44.02942" lon="4.13845">
        <ele>97</ele>
        <time>2019-10-27T15:47:11Z</time>
      </trkpt>
      <trkpt lat="44.02958" lon="4.13842">
        <ele>97</ele>
        <time>2019-10-27T15:47:15Z</time>
      </trkpt>
      <trkpt lat="44.02969" lon="4.1384">
        <ele>97</ele>
        <time>2019-10-27T15:47:18Z</time>
      </trkpt>
      <trkpt lat="44.0299" lon="4.13837">
        <ele>97</ele>
        <time>2019-10-27T15:47:23Z</time>
      </trkpt>
      <trkpt lat="44.02992" lon="4.13837">
        <ele>97</ele>
        <time>2019-10-27T15:47:24Z</time>
      </trkpt>
      <trkpt lat="44.03005" lon="4.13834">
        <ele>97</ele>
        <time>2019-10-27T15:47:29Z</time>
      </trkpt>
      <trkpt lat="44.03031" lon="4.13821">
        <ele>97</ele>
        <time>2019-10-27T15:47:34Z</time>
      </trkpt>
      <trkpt lat="44.03039" lon="4.13815">
        <ele>97</ele>
        <time>2019-10-27T15:47:36Z</time>
      </trkpt>
      <trkpt lat="44.03042" lon="4.13812">
        <ele>97</ele>
        <time>2019-10-27T15:47:36Z</time>
      </trkpt>
      <trkpt lat="44.03058" lon="4.138">
        <ele>97</ele>
        <time>2019-10-27T15:47:39Z</time>
      </trkpt>
      <trkpt lat="44.03072" lon="4.13786">
        <ele>97</ele>
        <time>2019-10-27T15:47:42Z</time>
      </trkpt>
      <trkpt lat="44.03091" lon="4.13761">
        <ele>97</ele>
        <time>2019-10-27T15:47:47Z</time>
      </trkpt>
      <trkpt lat="44.03095" lon="4.13756">
        <ele>97</ele>
        <time>2019-10-27T15:47:48Z</time>
      </trkpt>
      <trkpt lat="44.03099" lon="4.13751">
        <ele>97</ele>
        <time>2019-10-27T15:47:49Z</time>
      </trkpt>
      <trkpt lat="44.03113" lon="4.13729">
        <ele>97</ele>
        <time>2019-10-27T15:47:53Z</time>
      </trkpt>
      <trkpt lat="44.03121" lon="4.13719">
        <ele>97</ele>
        <time>2019-10-27T15:47:55Z</time>
      </trkpt>
      <trkpt lat="44.03131" lon="4.13695">
        <ele>97</ele>
        <time>2019-10-27T15:47:59Z</time>
      </trkpt>
      <trkpt lat="44.03141" lon="4.1367">
        <ele>97</ele>
        <time>2019-10-27T15:48:03Z</time>
      </trkpt>
      <trkpt lat="44.03148" lon="4.13645">
        <ele>97</ele>
        <time>2019-10-27T15:48:07Z</time>
      </trkpt>
      <trkpt lat="44.03153" lon="4.13628">
        <ele>97</ele>
        <time>2019-10-27T15:48:10Z</time>
      </trkpt>
      <trkpt lat="44.03162" lon="4.1361">
        <ele>98</ele>
        <time>2019-10-27T15:48:14Z</time>
      </trkpt>
      <trkpt lat="44.03169" lon="4.1359">
        <ele>98</ele>
        <time>2019-10-27T15:48:19Z</time>
      </trkpt>
      <trkpt lat="44.03174" lon="4.13566">
        <ele>98</ele>
        <time>2019-10-27T15:48:23Z</time>
      </trkpt>
      <trkpt lat="44.03177" lon="4.13546">
        <ele>99</ele>
        <time>2019-10-27T15:48:27Z</time>
      </trkpt>
      <trkpt lat="44.03179" lon="4.13521">
        <ele>99</ele>
        <time>2019-10-27T15:48:31Z</time>
      </trkpt>
      <trkpt lat="44.0318" lon="4.13507">
        <ele>99</ele>
        <time>2019-10-27T15:48:33Z</time>
      </trkpt>
      <trkpt lat="44.03182" lon="4.1348">
        <ele>99</ele>
        <time>2019-10-27T15:48:38Z</time>
      </trkpt>
      <trkpt lat="44.03182" lon="4.13474">
        <ele>99</ele>
        <time>2019-10-27T15:48:39Z</time>
      </trkpt>
      <trkpt lat="44.03183" lon="4.13462">
        <ele>99</ele>
        <time>2019-10-27T15:48:41Z</time>
      </trkpt>
      <trkpt lat="44.03184" lon="4.13457">
        <ele>100</ele>
        <time>2019-10-27T15:48:42Z</time>
      </trkpt>
      <trkpt lat="44.03191" lon="4.13436">
        <ele>100</ele>
        <time>2019-10-27T15:48:47Z</time>
      </trkpt>
      <trkpt lat="44.03192" lon="4.13432">
        <ele>100</ele>
        <time>2019-10-27T15:48:48Z</time>
      </trkpt>
      <trkpt lat="44.03194" lon="4.13403">
        <ele>100</ele>
        <time>2019-10-27T15:48:52Z</time>
      </trkpt>
      <trkpt lat="44.03194" lon="4.1339">
        <ele>100</ele>
        <time>2019-10-27T15:48:54Z</time>
      </trkpt>
      <trkpt lat="44.03197" lon="4.13362">
        <ele>101</ele>
        <time>2019-10-27T15:48:58Z</time>
      </trkpt>
      <trkpt lat="44.03197" lon="4.13349">
        <ele>101</ele>
        <time>2019-10-27T15:49:00Z</time>
      </trkpt>
      <trkpt lat="44.03195" lon="4.13321">
        <ele>101</ele>
        <time>2019-10-27T15:49:04Z</time>
      </trkpt>
      <trkpt lat="44.0319" lon="4.13293">
        <ele>102</ele>
        <time>2019-10-27T15:49:09Z</time>
      </trkpt>
      <trkpt lat="44.03181" lon="4.13267">
        <ele>102</ele>
        <time>2019-10-27T15:49:15Z</time>
      </trkpt>
      <trkpt lat="44.0317" lon="4.13244">
        <ele>103</ele>
        <time>2019-10-27T15:49:20Z</time>
      </trkpt>
      <trkpt lat="44.03155" lon="4.13223">
        <ele>103</ele>
        <time>2019-10-27T15:49:25Z</time>
      </trkpt>
      <trkpt lat="44.03065" lon="4.13129">
        <ele>103</ele>
        <time>2019-10-27T15:49:48Z</time>
      </trkpt>
      <trkpt lat="44.03051" lon="4.13112">
        <ele>103</ele>
        <time>2019-10-27T15:49:52Z</time>
      </trkpt>
      <trkpt lat="44.03037" lon="4.13094">
        <ele>103</ele>
        <time>2019-10-27T15:49:56Z</time>
      </trkpt>
      <trkpt lat="44.03025" lon="4.13075">
        <ele>104</ele>
        <time>2019-10-27T15:50:00Z</time>
      </trkpt>
      <trkpt lat="44.03015" lon="4.13057">
        <ele>104</ele>
        <time>2019-10-27T15:50:04Z</time>
      </trkpt>
      <trkpt lat="44.03007" lon="4.13039">
        <ele>105</ele>
        <time>2019-10-27T15:50:08Z</time>
      </trkpt>
      <trkpt lat="44.02996" lon="4.13016">
        <ele>106</ele>
        <time>2019-10-27T15:50:13Z</time>
      </trkpt>
      <trkpt lat="44.02986" lon="4.12994">
        <ele>107</ele>
        <time>2019-10-27T15:50:17Z</time>
      </trkpt>
      <trkpt lat="44.02975" lon="4.12969">
        <ele>108</ele>
        <time>2019-10-27T15:50:22Z</time>
      </trkpt>
      <trkpt lat="44.02965" lon="4.12948">
        <ele>108</ele>
        <time>2019-10-27T15:50:26Z</time>
      </trkpt>
      <trkpt lat="44.0296" lon="4.12938">
        <ele>109</ele>
        <time>2019-10-27T15:50:28Z</time>
      </trkpt>
      <trkpt lat="44.02947" lon="4.12911">
        <ele>110</ele>
        <time>2019-10-27T15:50:33Z</time>
      </trkpt>
      <trkpt lat="44.0294" lon="4.12895">
        <ele>110</ele>
        <time>2019-10-27T15:50:36Z</time>
      </trkpt>
      <trkpt lat="44.02935" lon="4.12882">
        <ele>111</ele>
        <time>2019-10-27T15:50:38Z</time>
      </trkpt>
      <trkpt lat="44.02923" lon="4.12855">
        <ele>111</ele>
        <time>2019-10-27T15:50:42Z</time>
      </trkpt>
      <trkpt lat="44.02915" lon="4.12832">
        <ele>112</ele>
        <time>2019-10-27T15:50:45Z</time>
      </trkpt>
      <trkpt lat="44.02906" lon="4.1281">
        <ele>112</ele>
        <time>2019-10-27T15:50:48Z</time>
      </trkpt>
      <trkpt lat="44.02904" lon="4.12804">
        <ele>112</ele>
        <time>2019-10-27T15:50:49Z</time>
      </trkpt>
      <trkpt lat="44.02894" lon="4.12777">
        <ele>113</ele>
        <time>2019-10-27T15:50:53Z</time>
      </trkpt>
      <trkpt lat="44.02892" lon="4.1277">
        <ele>113</ele>
        <time>2019-10-27T15:50:54Z</time>
      </trkpt>
      <trkpt lat="44.02888" lon="4.12758">
        <ele>113</ele>
        <time>2019-10-27T15:50:56Z</time>
      </trkpt>
      <trkpt lat="44.02872" lon="4.12726">
        <ele>113</ele>
        <time>2019-10-27T15:51:01Z</time>
      </trkpt>
      <trkpt lat="44.0286" lon="4.12705">
        <ele>113</ele>
        <time>2019-10-27T15:51:04Z</time>
      </trkpt>
      <trkpt lat="44.02847" lon="4.1268">
        <ele>114</ele>
        <time>2019-10-27T15:51:08Z</time>
      </trkpt>
      <trkpt lat="44.02843" lon="4.12673">
        <ele>114</ele>
        <time>2019-10-27T15:51:09Z</time>
      </trkpt>
      <trkpt lat="44.0283" lon="4.12649">
        <ele>114</ele>
        <time>2019-10-27T15:51:13Z</time>
      </trkpt>
      <trkpt lat="44.02818" lon="4.1263">
        <ele>114</ele>
        <time>2019-10-27T15:51:16Z</time>
      </trkpt>
      <trkpt lat="44.02804" lon="4.12613">
        <ele>114</ele>
        <time>2019-10-27T15:51:19Z</time>
      </trkpt>
      <trkpt lat="44.028" lon="4.12609">
        <ele>114</ele>
        <time>2019-10-27T15:51:20Z</time>
      </trkpt>
      <trkpt lat="44.02786" lon="4.12598">
        <ele>114</ele>
        <time>2019-10-27T15:51:23Z</time>
      </trkpt>
      <trkpt lat="44.02765" lon="4.12578">
        <ele>114</ele>
        <time>2019-10-27T15:51:28Z</time>
      </trkpt>
      <trkpt lat="44.02749" lon="4.12563">
        <ele>114</ele>
        <time>2019-10-27T15:51:32Z</time>
      </trkpt>
      <trkpt lat="44.02745" lon="4.1256">
        <ele>114</ele>
        <time>2019-10-27T15:51:33Z</time>
      </trkpt>
      <trkpt lat="44.0273" lon="4.12545">
        <ele>114</ele>
        <time>2019-10-27T15:51:37Z</time>
      </trkpt>
      <trkpt lat="44.02711" lon="4.12525">
        <ele>114</ele>
        <time>2019-10-27T15:51:42Z</time>
      </trkpt>
      <trkpt lat="44.02697" lon="4.12506">
        <ele>114</ele>
        <time>2019-10-27T15:51:46Z</time>
      </trkpt>
      <trkpt lat="44.02682" lon="4.12487">
        <ele>114</ele>
        <time>2019-10-27T15:51:50Z</time>
      </trkpt>
      <trkpt lat="44.02675" lon="4.12478">
        <ele>114</ele>
        <time>2019-10-27T15:51:52Z</time>
      </trkpt>
      <trkpt lat="44.0267" lon="4.12469">
        <ele>114</ele>
        <time>2019-10-27T15:51:54Z</time>
      </trkpt>
      <trkpt lat="44.02673" lon="4.12456">
        <ele>114</ele>
        <time>2019-10-27T15:51:57Z</time>
      </trkpt>
      <trkpt lat="44.02681" lon="4.12449">
        <ele>114</ele>
        <time>2019-10-27T15:51:59Z</time>
      </trkpt>
      <trkpt lat="44.0269" lon="4.12444">
        <ele>114</ele>
        <time>2019-10-27T15:52:01Z</time>
      </trkpt>
      <trkpt lat="44.02709" lon="4.12434">
        <ele>114</ele>
        <time>2019-10-27T15:52:05Z</time>
      </trkpt>
      <trkpt lat="44.02713" lon="4.12432">
        <ele>114</ele>
        <time>2019-10-27T15:52:06Z</time>
      </trkpt>
      <trkpt lat="44.02725" lon="4.12426">
        <ele>114</ele>
        <time>2019-10-27T15:52:09Z</time>
      </trkpt>
      <trkpt lat="44.02741" lon="4.12417">
        <ele>114</ele>
        <time>2019-10-27T15:52:13Z</time>
      </trkpt>
      <trkpt lat="44.02753" lon="4.12393">
        <ele>114</ele>
        <time>2019-10-27T15:52:18Z</time>
      </trkpt>
      <trkpt lat="44.02758" lon="4.12365">
        <ele>114</ele>
        <time>2019-10-27T15:52:23Z</time>
      </trkpt>
      <trkpt lat="44.02759" lon="4.1236">
        <ele>113</ele>
        <time>2019-10-27T15:52:24Z</time>
      </trkpt>
      <trkpt lat="44.02761" lon="4.12354">
        <ele>113</ele>
        <time>2019-10-27T15:52:25Z</time>
      </trkpt>
      <trkpt lat="44.02763" lon="4.12343">
        <ele>113</ele>
        <time>2019-10-27T15:52:27Z</time>
      </trkpt>
      <trkpt lat="44.02766" lon="4.12333">
        <ele>113</ele>
        <time>2019-10-27T15:52:29Z</time>
      </trkpt>
      <trkpt lat="44.02771" lon="4.12299">
        <ele>112</ele>
        <time>2019-10-27T15:52:36Z</time>
      </trkpt>
      <trkpt lat="44.02771" lon="4.12271">
        <ele>111</ele>
        <time>2019-10-27T15:52:42Z</time>
      </trkpt>
      <trkpt lat="44.02769" lon="4.12243">
        <ele>110</ele>
        <time>2019-10-27T15:52:49Z</time>
      </trkpt>
      <trkpt lat="44.02765" lon="4.12216">
        <ele>110</ele>
        <time>2019-10-27T15:52:55Z</time>
      </trkpt>
      <trkpt lat="44.02759" lon="4.12188">
        <ele>109</ele>
        <time>2019-10-27T15:53:01Z</time>
      </trkpt>
      <trkpt lat="44.02759" lon="4.12165">
        <ele>108</ele>
        <time>2019-10-27T15:53:06Z</time>
      </trkpt>
      <trkpt lat="44.02757" lon="4.12138">
        <ele>108</ele>
        <time>2019-10-27T15:53:13Z</time>
      </trkpt>
      <trkpt lat="44.02755" lon="4.12116">
        <ele>108</ele>
        <time>2019-10-27T15:53:18Z</time>
      </trkpt>
      <trkpt lat="44.02751" lon="4.12087">
        <ele>107</ele>
        <time>2019-10-27T15:53:24Z</time>
      </trkpt>
      <trkpt lat="44.02744" lon="4.1206">
        <ele>106</ele>
        <time>2019-10-27T15:53:30Z</time>
      </trkpt>
      <trkpt lat="44.02738" lon="4.12032">
        <ele>106</ele>
        <time>2019-10-27T15:53:36Z</time>
      </trkpt>
      <trkpt lat="44.02736" lon="4.12004">
        <ele>106</ele>
        <time>2019-10-27T15:53:42Z</time>
      </trkpt>
      <trkpt lat="44.02735" lon="4.11977">
        <ele>106</ele>
        <time>2019-10-27T15:53:48Z</time>
      </trkpt>
      <trkpt lat="44.02738" lon="4.11952">
        <ele>106</ele>
        <time>2019-10-27T15:53:54Z</time>
      </trkpt>
      <trkpt lat="44.02746" lon="4.11929">
        <ele>105</ele>
        <time>2019-10-27T15:54:00Z</time>
      </trkpt>
      <trkpt lat="44.02751" lon="4.11901">
        <ele>104</ele>
        <time>2019-10-27T15:54:06Z</time>
      </trkpt>
      <trkpt lat="44.02751" lon="4.11875">
        <ele>104</ele>
        <time>2019-10-27T15:54:11Z</time>
      </trkpt>
      <trkpt lat="44.02753" lon="4.11847">
        <ele>104</ele>
        <time>2019-10-27T15:54:17Z</time>
      </trkpt>
      <trkpt lat="44.02756" lon="4.11822">
        <ele>104</ele>
        <time>2019-10-27T15:54:22Z</time>
      </trkpt>
      <trkpt lat="44.02761" lon="4.11793">
        <ele>103</ele>
        <time>2019-10-27T15:54:27Z</time>
      </trkpt>
      <trkpt lat="44.02767" lon="4.11765">
        <ele>102</ele>
        <time>2019-10-27T15:54:32Z</time>
      </trkpt>
      <trkpt lat="44.02772" lon="4.1174">
        <ele>102</ele>
        <time>2019-10-27T15:54:36Z</time>
      </trkpt>
      <trkpt lat="44.02776" lon="4.11716">
        <ele>102</ele>
        <time>2019-10-27T15:54:40Z</time>
      </trkpt>
      <trkpt lat="44.02781" lon="4.11691">
        <ele>102</ele>
        <time>2019-10-27T15:54:44Z</time>
      </trkpt>
      <trkpt lat="44.02781" lon="4.11685">
        <ele>102</ele>
        <time>2019-10-27T15:54:45Z</time>
      </trkpt>
      <trkpt lat="44.02783" lon="4.11674">
        <ele>102</ele>
        <time>2019-10-27T15:54:47Z</time>
      </trkpt>
      <trkpt lat="44.02785" lon="4.11664">
        <ele>102</ele>
        <time>2019-10-27T15:54:49Z</time>
      </trkpt>
      <trkpt lat="44.02792" lon="4.11639">
        <ele>101</ele>
        <time>2019-10-27T15:54:54Z</time>
      </trkpt>
      <trkpt lat="44.02793" lon="4.11633">
        <ele>101</ele>
        <time>2019-10-27T15:54:55Z</time>
      </trkpt>
      <trkpt lat="44.02798" lon="4.11606">
        <ele>101</ele>
        <time>2019-10-27T15:55:00Z</time>
      </trkpt>
      <trkpt lat="44.02803" lon="4.11577">
        <ele>101</ele>
        <time>2019-10-27T15:55:05Z</time>
      </trkpt>
      <trkpt lat="44.02804" lon="4.11571">
        <ele>101</ele>
        <time>2019-10-27T15:55:06Z</time>
      </trkpt>
      <trkpt lat="44.02803" lon="4.11551">
        <ele>101</ele>
        <time>2019-10-27T15:55:10Z</time>
      </trkpt>
      <trkpt lat="44.02797" lon="4.11537">
        <ele>101</ele>
        <time>2019-10-27T15:55:13Z</time>
      </trkpt>
      <trkpt lat="44.0278" lon="4.11511">
        <ele>101</ele>
        <time>2019-10-27T15:55:19Z</time>
      </trkpt>
      <trkpt lat="44.02766" lon="4.11495">
        <ele>101</ele>
        <time>2019-10-27T15:55:23Z</time>
      </trkpt>
      <trkpt lat="44.02755" lon="4.11482">
        <ele>101</ele>
        <time>2019-10-27T15:55:26Z</time>
      </trkpt>
      <trkpt lat="44.0275" lon="4.11453">
        <ele>101</ele>
        <time>2019-10-27T15:55:31Z</time>
      </trkpt>
      <trkpt lat="44.02751" lon="4.11433">
        <ele>101</ele>
        <time>2019-10-27T15:55:34Z</time>
      </trkpt>
      <trkpt lat="44.0275" lon="4.11401">
        <ele>101</ele>
        <time>2019-10-27T15:55:40Z</time>
      </trkpt>
      <trkpt lat="44.0275" lon="4.11382">
        <ele>101</ele>
        <time>2019-10-27T15:55:42Z</time>
      </trkpt>
      <trkpt lat="44.02752" lon="4.1136">
        <ele>101</ele>
        <time>2019-10-27T15:55:47Z</time>
      </trkpt>
      <trkpt lat="44.02755" lon="4.11339">
        <ele>101</ele>
        <time>2019-10-27T15:55:50Z</time>
      </trkpt>
      <trkpt lat="44.02754" lon="4.11326">
        <ele>101</ele>
        <time>2019-10-27T15:55:53Z</time>
      </trkpt>
      <trkpt lat="44.02752" lon="4.11313">
        <ele>101</ele>
        <time>2019-10-27T15:55:54Z</time>
      </trkpt>
      <trkpt lat="44.02748" lon="4.11282">
        <ele>101</ele>
        <time>2019-10-27T15:56:00Z</time>
      </trkpt>
      <trkpt lat="44.02749" lon="4.11277">
        <ele>101</ele>
        <time>2019-10-27T15:56:00Z</time>
      </trkpt>
      <trkpt lat="44.02748" lon="4.1125">
        <ele>101</ele>
        <time>2019-10-27T15:56:05Z</time>
      </trkpt>
      <trkpt lat="44.02748" lon="4.11244">
        <ele>101</ele>
        <time>2019-10-27T15:56:05Z</time>
      </trkpt>
      <trkpt lat="44.02751" lon="4.11217">
        <ele>101</ele>
        <time>2019-10-27T15:56:10Z</time>
      </trkpt>
      <trkpt lat="44.02754" lon="4.11202">
        <ele>101</ele>
        <time>2019-10-27T15:56:12Z</time>
      </trkpt>
      <trkpt lat="44.02755" lon="4.11192">
        <ele>101</ele>
        <time>2019-10-27T15:56:15Z</time>
      </trkpt>
      <trkpt lat="44.02759" lon="4.11175">
        <ele>101</ele>
        <time>2019-10-27T15:56:20Z</time>
      </trkpt>
      <trkpt lat="44.02759" lon="4.11171">
        <ele>101</ele>
        <time>2019-10-27T15:56:22Z</time>
      </trkpt>
      <trkpt lat="44.02759" lon="4.11168">
        <ele>101</ele>
        <time>2019-10-27T15:56:23Z</time>
      </trkpt>
      <trkpt lat="44.02761" lon="4.11166">
        <ele>101</ele>
        <time>2019-10-27T15:56:25Z</time>
      </trkpt>
      <trkpt lat="44.02774" lon="4.11166">
        <ele>101</ele>
        <time>2019-10-27T15:56:31Z</time>
      </trkpt>
      <trkpt lat="44.02781" lon="4.11166">
        <ele>101</ele>
        <time>2019-10-27T15:56:35Z</time>
      </trkpt>
      <trkpt lat="44.02802" lon="4.11166">
        <ele>103</ele>
        <time>2019-10-27T15:56:42Z</time>
      </trkpt>
      <trkpt lat="44.02818" lon="4.11166">
        <ele>103</ele>
        <time>2019-10-27T15:56:48Z</time>
      </trkpt>
      <trkpt lat="44.02835" lon="4.11165">
        <ele>104</ele>
        <time>2019-10-27T15:56:53Z</time>
      </trkpt>
      <trkpt lat="44.02854" lon="4.11165">
        <ele>105</ele>
        <time>2019-10-27T15:56:59Z</time>
      </trkpt>
      <trkpt lat="44.02871" lon="4.11164">
        <ele>105</ele>
        <time>2019-10-27T15:57:04Z</time>
      </trkpt>
      <trkpt lat="44.02886" lon="4.11164">
        <ele>105</ele>
        <time>2019-10-27T15:57:08Z</time>
      </trkpt>
      <trkpt lat="44.02905" lon="4.11163">
        <ele>105</ele>
        <time>2019-10-27T15:57:13Z</time>
      </trkpt>
      <trkpt lat="44.02923" lon="4.11164">
        <ele>105</ele>
        <time>2019-10-27T15:57:19Z</time>
      </trkpt>
      <trkpt lat="44.02942" lon="4.11163">
        <ele>105</ele>
        <time>2019-10-27T15:57:24Z</time>
      </trkpt>
      <trkpt lat="44.02962" lon="4.11161">
        <ele>105</ele>
        <time>2019-10-27T15:57:30Z</time>
      </trkpt>
      <trkpt lat="44.02982" lon="4.11161">
        <ele>105</ele>
        <time>2019-10-27T15:57:35Z</time>
      </trkpt>
      <trkpt lat="44.03002" lon="4.11162">
        <ele>106</ele>
        <time>2019-10-27T15:57:40Z</time>
      </trkpt>
      <trkpt lat="44.03027" lon="4.11162">
        <ele>107</ele>
        <time>2019-10-27T15:57:47Z</time>
      </trkpt>
      <trkpt lat="44.03048" lon="4.1116">
        <ele>107</ele>
        <time>2019-10-27T15:57:50Z</time>
      </trkpt>
      <trkpt lat="44.03061" lon="4.11159">
        <ele>107</ele>
        <time>2019-10-27T15:57:54Z</time>
      </trkpt>
      <trkpt lat="44.03076" lon="4.11161">
        <ele>107</ele>
        <time>2019-10-27T15:57:57Z</time>
      </trkpt>
      <trkpt lat="44.03095" lon="4.11157">
        <ele>107</ele>
        <time>2019-10-27T15:58:04Z</time>
      </trkpt>
      <trkpt lat="44.03106" lon="4.11138">
        <ele>107</ele>
        <time>2019-10-27T15:58:09Z</time>
      </trkpt>
      <trkpt lat="44.03116" lon="4.11113">
        <ele>107</ele>
        <time>2019-10-27T15:58:12Z</time>
      </trkpt>
      <trkpt lat="44.03126" lon="4.11085">
        <ele>107</ele>
        <time>2019-10-27T15:58:17Z</time>
      </trkpt>
      <trkpt lat="44.03128" lon="4.11079">
        <ele>108</ele>
        <time>2019-10-27T15:58:18Z</time>
      </trkpt>
      <trkpt lat="44.03138" lon="4.11067">
        <ele>108</ele>
        <time>2019-10-27T15:58:20Z</time>
      </trkpt>
      <trkpt lat="44.03145" lon="4.11062">
        <ele>108</ele>
        <time>2019-10-27T15:58:22Z</time>
      </trkpt>
      <trkpt lat="44.0315" lon="4.11058">
        <ele>108</ele>
        <time>2019-10-27T15:58:24Z</time>
      </trkpt>
      <trkpt lat="44.0316" lon="4.11051">
        <ele>108</ele>
        <time>2019-10-27T15:58:28Z</time>
      </trkpt>
      <trkpt lat="44.0318" lon="4.11043">
        <ele>108</ele>
        <time>2019-10-27T15:58:35Z</time>
      </trkpt>
      <trkpt lat="44.03192" lon="4.11033">
        <ele>108</ele>
        <time>2019-10-27T15:58:40Z</time>
      </trkpt>
      <trkpt lat="44.03203" lon="4.11021">
        <ele>108</ele>
        <time>2019-10-27T15:58:47Z</time>
      </trkpt>
      <trkpt lat="44.03211" lon="4.11009">
        <ele>108</ele>
        <time>2019-10-27T15:58:53Z</time>
      </trkpt>
      <trkpt lat="44.03224" lon="4.1099">
        <ele>108</ele>
        <time>2019-10-27T15:59:01Z</time>
      </trkpt>
      <trkpt lat="44.03234" lon="4.10978">
        <ele>108</ele>
        <time>2019-10-27T15:59:09Z</time>
      </trkpt>
      <trkpt lat="44.03244" lon="4.10964">
        <ele>108</ele>
        <time>2019-10-27T15:59:15Z</time>
      </trkpt>
      <trkpt lat="44.03254" lon="4.10948">
        <ele>108</ele>
        <time>2019-10-27T15:59:24Z</time>
      </trkpt>
      <trkpt lat="44.03261" lon="4.10936">
        <ele>108</ele>
        <time>2019-10-27T15:59:30Z</time>
      </trkpt>
      <trkpt lat="44.03264" lon="4.1093">
        <ele>108</ele>
        <time>2019-10-27T15:59:34Z</time>
      </trkpt>
      <trkpt lat="44.03268" lon="4.10924">
        <ele>108</ele>
        <time>2019-10-27T15:59:39Z</time>
      </trkpt>
      <trkpt lat="44.03273" lon="4.10917">
        <ele>108</ele>
        <time>2019-10-27T15:59:44Z</time>
      </trkpt>
      <trkpt lat="44.03276" lon="4.10913">
        <ele>108</ele>
        <time>2019-10-27T15:59:47Z</time>
      </trkpt>
      <trkpt lat="44.03278" lon="4.10912">
        <ele>108</ele>
        <time>2019-10-27T15:59:48Z</time>
      </trkpt>
      <trkpt lat="44.03287" lon="4.10904">
        <ele>108</ele>
        <time>2019-10-27T15:59:54Z</time>
      </trkpt>
      <trkpt lat="44.03297" lon="4.10896">
        <ele>108</ele>
        <time>2019-10-27T15:59:59Z</time>
      </trkpt>
      <trkpt lat="44.03313" lon="4.10887">
        <ele>108</ele>
        <time>2019-10-27T16:00:05Z</time>
      </trkpt>
      <trkpt lat="44.03324" lon="4.10877">
        <ele>108</ele>
        <time>2019-10-27T16:00:12Z</time>
      </trkpt>
      <trkpt lat="44.03333" lon="4.1087">
        <ele>109</ele>
        <time>2019-10-27T16:00:17Z</time>
      </trkpt>
      <trkpt lat="44.03342" lon="4.10862">
        <ele>109</ele>
        <time>2019-10-27T16:00:23Z</time>
      </trkpt>
      <trkpt lat="44.03355" lon="4.10854">
        <ele>109</ele>
        <time>2019-10-27T16:00:30Z</time>
      </trkpt>
      <trkpt lat="44.03365" lon="4.10848">
        <ele>109</ele>
        <time>2019-10-27T16:00:35Z</time>
      </trkpt>
      <trkpt lat="44.03373" lon="4.10845">
        <ele>110</ele>
        <time>2019-10-27T16:00:40Z</time>
      </trkpt>
      <trkpt lat="44.03385" lon="4.10837">
        <ele>111</ele>
        <time>2019-10-27T16:00:45Z</time>
      </trkpt>
      <trkpt lat="44.03396" lon="4.10826">
        <ele>111</ele>
        <time>2019-10-27T16:00:50Z</time>
      </trkpt>
      <trkpt lat="44.03405" lon="4.10815">
        <ele>111</ele>
        <time>2019-10-27T16:00:55Z</time>
      </trkpt>
      <trkpt lat="44.03417" lon="4.10802">
        <ele>111</ele>
        <time>2019-10-27T16:01:01Z</time>
      </trkpt>
      <trkpt lat="44.03426" lon="4.10788">
        <ele>112</ele>
        <time>2019-10-27T16:01:07Z</time>
      </trkpt>
      <trkpt lat="44.03436" lon="4.10771">
        <ele>113</ele>
        <time>2019-10-27T16:01:15Z</time>
      </trkpt>
      <trkpt lat="44.03444" lon="4.10754">
        <ele>113</ele>
        <time>2019-10-27T16:01:22Z</time>
      </trkpt>
      <trkpt lat="44.03454" lon="4.10739">
        <ele>114</ele>
        <time>2019-10-27T16:01:29Z</time>
      </trkpt>
      <trkpt lat="44.03464" lon="4.10721">
        <ele>114</ele>
        <time>2019-10-27T16:01:36Z</time>
      </trkpt>
      <trkpt lat="44.03474" lon="4.10704">
        <ele>114</ele>
        <time>2019-10-27T16:01:45Z</time>
      </trkpt>
      <trkpt lat="44.03483" lon="4.10694">
        <ele>114</ele>
        <time>2019-10-27T16:01:49Z</time>
      </trkpt>
      <trkpt lat="44.03494" lon="4.10683">
        <ele>114</ele>
        <time>2019-10-27T16:01:55Z</time>
      </trkpt>
      <trkpt lat="44.03503" lon="4.10675">
        <ele>115</ele>
        <time>2019-10-27T16:02:01Z</time>
      </trkpt>
      <trkpt lat="44.03518" lon="4.10664">
        <ele>116</ele>
        <time>2019-10-27T16:02:09Z</time>
      </trkpt>
      <trkpt lat="44.03532" lon="4.10652">
        <ele>118</ele>
        <time>2019-10-27T16:02:15Z</time>
      </trkpt>
      <trkpt lat="44.0355" lon="4.10635">
        <ele>119</ele>
        <time>2019-10-27T16:02:24Z</time>
      </trkpt>
      <trkpt lat="44.03555" lon="4.10631">
        <ele>120</ele>
        <time>2019-10-27T16:02:26Z</time>
      </trkpt>
      <trkpt lat="44.0356" lon="4.10631">
        <ele>121</ele>
        <time>2019-10-27T16:02:31Z</time>
      </trkpt>
      <trkpt lat="44.03577" lon="4.10637">
        <ele>121</ele>
        <time>2019-10-27T16:02:36Z</time>
      </trkpt>
      <trkpt lat="44.0359" lon="4.10637">
        <ele>121</ele>
        <time>2019-10-27T16:02:40Z</time>
      </trkpt>
      <trkpt lat="44.03604" lon="4.10624">
        <ele>122</ele>
        <time>2019-10-27T16:02:43Z</time>
      </trkpt>
      <trkpt lat="44.0362" lon="4.1061">
        <ele>122</ele>
        <time>2019-10-27T16:02:47Z</time>
      </trkpt>
      <trkpt lat="44.03625" lon="4.10605">
        <ele>122</ele>
        <time>2019-10-27T16:02:48Z</time>
      </trkpt>
      <trkpt lat="44.03635" lon="4.10588">
        <ele>122</ele>
        <time>2019-10-27T16:02:50Z</time>
      </trkpt>
      <trkpt lat="44.03655" lon="4.10574">
        <ele>122</ele>
        <time>2019-10-27T16:02:55Z</time>
      </trkpt>
      <trkpt lat="44.03666" lon="4.10587">
        <ele>122</ele>
        <time>2019-10-27T16:03:00Z</time>
      </trkpt>
      <trkpt lat="44.03667" lon="4.10604">
        <ele>122</ele>
        <time>2019-10-27T16:03:03Z</time>
      </trkpt>
      <trkpt lat="44.03667" lon="4.10609">
        <ele>122</ele>
        <time>2019-10-27T16:03:04Z</time>
      </trkpt>
      <trkpt lat="44.03669" lon="4.10634">
        <ele>122</ele>
        <time>2019-10-27T16:03:07Z</time>
      </trkpt>
      <trkpt lat="44.03671" lon="4.10661">
        <ele>122</ele>
        <time>2019-10-27T16:03:12Z</time>
      </trkpt>
      <trkpt lat="44.03673" lon="4.10668">
        <ele>122</ele>
        <time>2019-10-27T16:03:13Z</time>
      </trkpt>
      <trkpt lat="44.03678" lon="4.10694">
        <ele>121</ele>
        <time>2019-10-27T16:03:17Z</time>
      </trkpt>
      <trkpt lat="44.03681" lon="4.10706">
        <ele>121</ele>
        <time>2019-10-27T16:03:19Z</time>
      </trkpt>
      <trkpt lat="44.03682" lon="4.10738">
        <ele>121</ele>
        <time>2019-10-27T16:03:24Z</time>
      </trkpt>
      <trkpt lat="44.03684" lon="4.10767">
        <ele>120</ele>
        <time>2019-10-27T16:03:29Z</time>
      </trkpt>
      <trkpt lat="44.03686" lon="4.10783">
        <ele>120</ele>
        <time>2019-10-27T16:03:31Z</time>
      </trkpt>
      <trkpt lat="44.0369" lon="4.10818">
        <ele>119</ele>
        <time>2019-10-27T16:03:37Z</time>
      </trkpt>
      <trkpt lat="44.03691" lon="4.10824">
        <ele>119</ele>
        <time>2019-10-27T16:03:39Z</time>
      </trkpt>
      <trkpt lat="44.03698" lon="4.10851">
        <ele>119</ele>
        <time>2019-10-27T16:03:43Z</time>
      </trkpt>
      <trkpt lat="44.03699" lon="4.10855">
        <ele>118</ele>
        <time>2019-10-27T16:03:45Z</time>
      </trkpt>
      <trkpt lat="44.037" lon="4.1086">
        <ele>118</ele>
        <time>2019-10-27T16:03:45Z</time>
      </trkpt>
      <trkpt lat="44.03697" lon="4.10893">
        <ele>118</ele>
        <time>2019-10-27T16:03:50Z</time>
      </trkpt>
      <trkpt lat="44.03695" lon="4.10903">
        <ele>118</ele>
        <time>2019-10-27T16:03:52Z</time>
      </trkpt>
      <trkpt lat="44.03702" lon="4.10957">
        <ele>117</ele>
        <time>2019-10-27T16:03:57Z</time>
      </trkpt>
      <trkpt lat="44.03699" lon="4.11">
        <ele>117</ele>
        <time>2019-10-27T16:04:00Z</time>
      </trkpt>
      <trkpt lat="44.03698" lon="4.11028">
        <ele>116</ele>
        <time>2019-10-27T16:04:05Z</time>
      </trkpt>
      <trkpt lat="44.03698" lon="4.11032">
        <ele>116</ele>
        <time>2019-10-27T16:04:05Z</time>
      </trkpt>
      <trkpt lat="44.03704" lon="4.11035">
        <ele>116</ele>
        <time>2019-10-27T16:04:06Z</time>
      </trkpt>
      <trkpt lat="44.03719" lon="4.11034">
        <ele>115</ele>
        <time>2019-10-27T16:04:10Z</time>
      </trkpt>
      <trkpt lat="44.03726" lon="4.11032">
        <ele>115</ele>
        <time>2019-10-27T16:04:10Z</time>
      </trkpt>
      <trkpt lat="44.03729" lon="4.1103">
        <ele>115</ele>
        <time>2019-10-27T16:04:12Z</time>
      </trkpt>
      <trkpt lat="44.03743" lon="4.11024">
        <ele>114</ele>
        <time>2019-10-27T16:04:15Z</time>
      </trkpt>
      <trkpt lat="44.03764" lon="4.11025">
        <ele>113</ele>
        <time>2019-10-27T16:04:20Z</time>
      </trkpt>
      <trkpt lat="44.03777" lon="4.11042">
        <ele>112</ele>
        <time>2019-10-27T16:04:24Z</time>
      </trkpt>
      <trkpt lat="44.03779" lon="4.11047">
        <ele>112</ele>
        <time>2019-10-27T16:04:25Z</time>
      </trkpt>
      <trkpt lat="44.0378" lon="4.11051">
        <ele>112</ele>
        <time>2019-10-27T16:04:25Z</time>
      </trkpt>
      <trkpt lat="44.03792" lon="4.11074">
        <ele>111</ele>
        <time>2019-10-27T16:04:31Z</time>
      </trkpt>
      <trkpt lat="44.03793" lon="4.1109">
        <ele>110</ele>
        <time>2019-10-27T16:04:35Z</time>
      </trkpt>
      <trkpt lat="44.03794" lon="4.11096">
        <ele>110</ele>
        <time>2019-10-27T16:04:35Z</time>
      </trkpt>
      <trkpt lat="44.03795" lon="4.1112">
        <ele>110</ele>
        <time>2019-10-27T16:04:40Z</time>
      </trkpt>
      <trkpt lat="44.03791" lon="4.11145">
        <ele>110</ele>
        <time>2019-10-27T16:04:47Z</time>
      </trkpt>
      <trkpt lat="44.03786" lon="4.11169">
        <ele>110</ele>
        <time>2019-10-27T16:04:52Z</time>
      </trkpt>
      <trkpt lat="44.03783" lon="4.11194">
        <ele>109</ele>
        <time>2019-10-27T16:04:57Z</time>
      </trkpt>
      <trkpt lat="44.0379" lon="4.1121">
        <ele>108</ele>
        <time>2019-10-27T16:05:00Z</time>
      </trkpt>
      <trkpt lat="44.03804" lon="4.11216">
        <ele>108</ele>
        <time>2019-10-27T16:05:05Z</time>
      </trkpt>
      <trkpt lat="44.03821" lon="4.11218">
        <ele>108</ele>
        <time>2019-10-27T16:05:10Z</time>
      </trkpt>
      <trkpt lat="44.03841" lon="4.1122">
        <ele>108</ele>
        <time>2019-10-27T16:05:16Z</time>
      </trkpt>
      <trkpt lat="44.03861" lon="4.11218">
        <ele>107</ele>
        <time>2019-10-27T16:05:22Z</time>
      </trkpt>
      <trkpt lat="44.03862" lon="4.11218">
        <ele>107</ele>
        <time>2019-10-27T16:05:23Z</time>
      </trkpt>
      <trkpt lat="44.03881" lon="4.11225">
        <ele>107</ele>
        <time>2019-10-27T16:05:28Z</time>
      </trkpt>
      <trkpt lat="44.03894" lon="4.1124">
        <ele>107</ele>
        <time>2019-10-27T16:05:33Z</time>
      </trkpt>
      <trkpt lat="44.03907" lon="4.11253">
        <ele>107</ele>
        <time>2019-10-27T16:05:38Z</time>
      </trkpt>
      <trkpt lat="44.03911" lon="4.11274">
        <ele>107</ele>
        <time>2019-10-27T16:05:43Z</time>
      </trkpt>
      <trkpt lat="44.03912" lon="4.11279">
        <ele>107</ele>
        <time>2019-10-27T16:05:44Z</time>
      </trkpt>
      <trkpt lat="44.0392" lon="4.11282">
        <ele>107</ele>
        <time>2019-10-27T16:05:48Z</time>
      </trkpt>
      <trkpt lat="44.03927" lon="4.1128">
        <ele>107</ele>
        <time>2019-10-27T16:05:52Z</time>
      </trkpt>
      <trkpt lat="44.03928" lon="4.1128">
        <ele>107</ele>
        <time>2019-10-27T16:05:53Z</time>
      </trkpt>
      <trkpt lat="44.03947" lon="4.11273">
        <ele>107</ele>
        <time>2019-10-27T16:06:04Z</time>
      </trkpt>
      <trkpt lat="44.03953" lon="4.11271">
        <ele>107</ele>
        <time>2019-10-27T16:06:08Z</time>
      </trkpt>
      <trkpt lat="44.03964" lon="4.11265">
        <ele>107</ele>
        <time>2019-10-27T16:06:13Z</time>
      </trkpt>
      <trkpt lat="44.03971" lon="4.11263">
        <ele>107</ele>
        <time>2019-10-27T16:06:18Z</time>
      </trkpt>
      <trkpt lat="44.03974" lon="4.11264">
        <ele>107</ele>
        <time>2019-10-27T16:06:20Z</time>
      </trkpt>
      <trkpt lat="44.0398" lon="4.11266">
        <ele>107</ele>
        <time>2019-10-27T16:06:25Z</time>
      </trkpt>
      <trkpt lat="44.03991" lon="4.11266">
        <ele>107</ele>
        <time>2019-10-27T16:06:29Z</time>
      </trkpt>
      <trkpt lat="44.03993" lon="4.11267">
        <ele>107</ele>
        <time>2019-10-27T16:06:29Z</time>
      </trkpt>
      <trkpt lat="44.0401" lon="4.11267">
        <ele>107</ele>
        <time>2019-10-27T16:06:35Z</time>
      </trkpt>
      <trkpt lat="44.04029" lon="4.11266">
        <ele>107</ele>
        <time>2019-10-27T16:06:40Z</time>
      </trkpt>
      <trkpt lat="44.04044" lon="4.11262">
        <ele>107</ele>
        <time>2019-10-27T16:06:43Z</time>
      </trkpt>
      <trkpt lat="44.04063" lon="4.11261">
        <ele>107</ele>
        <time>2019-10-27T16:06:47Z</time>
      </trkpt>
      <trkpt lat="44.04089" lon="4.11262">
        <ele>107</ele>
        <time>2019-10-27T16:06:52Z</time>
      </trkpt>
      <trkpt lat="44.04099" lon="4.11255">
        <ele>107</ele>
        <time>2019-10-27T16:06:55Z</time>
      </trkpt>
      <trkpt lat="44.04109" lon="4.11244">
        <ele>107</ele>
        <time>2019-10-27T16:07:00Z</time>
      </trkpt>
      <trkpt lat="44.04119" lon="4.11232">
        <ele>107</ele>
        <time>2019-10-27T16:07:04Z</time>
      </trkpt>
      <trkpt lat="44.04124" lon="4.11227">
        <ele>107</ele>
        <time>2019-10-27T16:07:05Z</time>
      </trkpt>
      <trkpt lat="44.04141" lon="4.11209">
        <ele>106</ele>
        <time>2019-10-27T16:07:10Z</time>
      </trkpt>
      <trkpt lat="44.04158" lon="4.11191">
        <ele>106</ele>
        <time>2019-10-27T16:07:15Z</time>
      </trkpt>
      <trkpt lat="44.04169" lon="4.11176">
        <ele>106</ele>
        <time>2019-10-27T16:07:19Z</time>
      </trkpt>
      <trkpt lat="44.04185" lon="4.1116">
        <ele>106</ele>
        <time>2019-10-27T16:07:24Z</time>
      </trkpt>
      <trkpt lat="44.04203" lon="4.11143">
        <ele>105</ele>
        <time>2019-10-27T16:07:30Z</time>
      </trkpt>
      <trkpt lat="44.04218" lon="4.11125">
        <ele>104</ele>
        <time>2019-10-27T16:07:36Z</time>
      </trkpt>
      <trkpt lat="44.04234" lon="4.1111">
        <ele>104</ele>
        <time>2019-10-27T16:07:42Z</time>
      </trkpt>
      <trkpt lat="44.04247" lon="4.11097">
        <ele>103</ele>
        <time>2019-10-27T16:07:47Z</time>
      </trkpt>
      <trkpt lat="44.04256" lon="4.11087">
        <ele>103</ele>
        <time>2019-10-27T16:07:50Z</time>
      </trkpt>
      <trkpt lat="44.04269" lon="4.11073">
        <ele>103</ele>
        <time>2019-10-27T16:07:57Z</time>
      </trkpt>
      <trkpt lat="44.04275" lon="4.11065">
        <ele>103</ele>
        <time>2019-10-27T16:08:00Z</time>
      </trkpt>
      <trkpt lat="44.04288" lon="4.11051">
        <ele>103</ele>
        <time>2019-10-27T16:08:06Z</time>
      </trkpt>
      <trkpt lat="44.04291" lon="4.11048">
        <ele>103</ele>
        <time>2019-10-27T16:08:07Z</time>
      </trkpt>
      <trkpt lat="44.04299" lon="4.11029">
        <ele>103</ele>
        <time>2019-10-27T16:08:12Z</time>
      </trkpt>
      <trkpt lat="44.04305" lon="4.11016">
        <ele>103</ele>
        <time>2019-10-27T16:08:16Z</time>
      </trkpt>
      <trkpt lat="44.04315" lon="4.11001">
        <ele>103</ele>
        <time>2019-10-27T16:08:21Z</time>
      </trkpt>
      <trkpt lat="44.04318" lon="4.11">
        <ele>103</ele>
        <time>2019-10-27T16:08:22Z</time>
      </trkpt>
      <trkpt lat="44.04333" lon="4.10999">
        <ele>103</ele>
        <time>2019-10-27T16:08:25Z</time>
      </trkpt>
      <trkpt lat="44.04348" lon="4.10997">
        <ele>103</ele>
        <time>2019-10-27T16:08:29Z</time>
      </trkpt>
      <trkpt lat="44.04363" lon="4.10994">
        <ele>103</ele>
        <time>2019-10-27T16:08:34Z</time>
      </trkpt>
      <trkpt lat="44.04377" lon="4.10984">
        <ele>103</ele>
        <time>2019-10-27T16:08:39Z</time>
      </trkpt>
      <trkpt lat="44.04388" lon="4.1097">
        <ele>103</ele>
        <time>2019-10-27T16:08:43Z</time>
      </trkpt>
      <trkpt lat="44.04396" lon="4.10957">
        <ele>103</ele>
        <time>2019-10-27T16:08:47Z</time>
      </trkpt>
      <trkpt lat="44.04399" lon="4.10953">
        <ele>103</ele>
        <time>2019-10-27T16:08:49Z</time>
      </trkpt>
      <trkpt lat="44.04404" lon="4.10945">
        <ele>103</ele>
        <time>2019-10-27T16:08:54Z</time>
      </trkpt>
      <trkpt lat="44.04407" lon="4.10943">
        <ele>103</ele>
        <time>2019-10-27T16:08:55Z</time>
      </trkpt>
      <trkpt lat="44.04423" lon="4.10936">
        <ele>103</ele>
        <time>2019-10-27T16:08:59Z</time>
      </trkpt>
      <trkpt lat="44.04437" lon="4.10926">
        <ele>103</ele>
        <time>2019-10-27T16:09:02Z</time>
      </trkpt>
      <trkpt lat="44.04455" lon="4.10913">
        <ele>103</ele>
        <time>2019-10-27T16:09:08Z</time>
      </trkpt>
      <trkpt lat="44.0447" lon="4.10902">
        <ele>103</ele>
        <time>2019-10-27T16:09:13Z</time>
      </trkpt>
      <trkpt lat="44.04481" lon="4.10897">
        <ele>103</ele>
        <time>2019-10-27T16:09:16Z</time>
      </trkpt>
      <trkpt lat="44.04487" lon="4.10896">
        <ele>103</ele>
        <time>2019-10-27T16:09:18Z</time>
      </trkpt>
      <trkpt lat="44.04504" lon="4.10885">
        <ele>103</ele>
        <time>2019-10-27T16:09:23Z</time>
      </trkpt>
      <trkpt lat="44.04519" lon="4.10873">
        <ele>103</ele>
        <time>2019-10-27T16:09:28Z</time>
      </trkpt>
      <trkpt lat="44.0452" lon="4.10872">
        <ele>103</ele>
        <time>2019-10-27T16:09:29Z</time>
      </trkpt>
      <trkpt lat="44.04526" lon="4.10872">
        <ele>103</ele>
        <time>2019-10-27T16:09:32Z</time>
      </trkpt>
      <trkpt lat="44.04538" lon="4.10873">
        <ele>103</ele>
        <time>2019-10-27T16:09:37Z</time>
      </trkpt>
      <trkpt lat="44.04547" lon="4.10875">
        <ele>103</ele>
        <time>2019-10-27T16:09:40Z</time>
      </trkpt>
      <trkpt lat="44.04557" lon="4.10882">
        <ele>103</ele>
        <time>2019-10-27T16:09:45Z</time>
      </trkpt>
      <trkpt lat="44.04561" lon="4.10884">
        <ele>103</ele>
        <time>2019-10-27T16:09:45Z</time>
      </trkpt>
      <trkpt lat="44.04569" lon="4.10885">
        <ele>103</ele>
        <time>2019-10-27T16:09:48Z</time>
      </trkpt>
      <trkpt lat="44.04579" lon="4.10889">
        <ele>103</ele>
        <time>2019-10-27T16:09:50Z</time>
      </trkpt>
      <trkpt lat="44.04595" lon="4.1089">
        <ele>103</ele>
        <time>2019-10-27T16:09:55Z</time>
      </trkpt>
      <trkpt lat="44.046" lon="4.1089">
        <ele>103</ele>
        <time>2019-10-27T16:09:57Z</time>
      </trkpt>
      <trkpt lat="44.0462" lon="4.10891">
        <ele>103</ele>
        <time>2019-10-27T16:10:00Z</time>
      </trkpt>
      <trkpt lat="44.0463" lon="4.1089">
        <ele>103</ele>
        <time>2019-10-27T16:10:04Z</time>
      </trkpt>
      <trkpt lat="44.04638" lon="4.1089">
        <ele>103</ele>
        <time>2019-10-27T16:10:05Z</time>
      </trkpt>
      <trkpt lat="44.04654" lon="4.10882">
        <ele>103</ele>
        <time>2019-10-27T16:10:10Z</time>
      </trkpt>
      <trkpt lat="44.04657" lon="4.10883">
        <ele>103</ele>
        <time>2019-10-27T16:10:12Z</time>
      </trkpt>
      <trkpt lat="44.04664" lon="4.10885">
        <ele>103</ele>
        <time>2019-10-27T16:10:15Z</time>
      </trkpt>
      <trkpt lat="44.04671" lon="4.10886">
        <ele>103</ele>
        <time>2019-10-27T16:10:17Z</time>
      </trkpt>
      <trkpt lat="44.04686" lon="4.10887">
        <ele>103</ele>
        <time>2019-10-27T16:10:20Z</time>
      </trkpt>
      <trkpt lat="44.04694" lon="4.10887">
        <ele>103</ele>
        <time>2019-10-27T16:10:22Z</time>
      </trkpt>
      <trkpt lat="44.04707" lon="4.10888">
        <ele>103</ele>
        <time>2019-10-27T16:10:25Z</time>
      </trkpt>
      <trkpt lat="44.04725" lon="4.10892">
        <ele>103</ele>
        <time>2019-10-27T16:10:30Z</time>
      </trkpt>
      <trkpt lat="44.04736" lon="4.10898">
        <ele>102</ele>
        <time>2019-10-27T16:10:34Z</time>
      </trkpt>
      <trkpt lat="44.04745" lon="4.10903">
        <ele>102</ele>
        <time>2019-10-27T16:10:38Z</time>
      </trkpt>
      <trkpt lat="44.04767" lon="4.109">
        <ele>102</ele>
        <time>2019-10-27T16:10:43Z</time>
      </trkpt>
      <trkpt lat="44.04788" lon="4.10901">
        <ele>101</ele>
        <time>2019-10-27T16:10:47Z</time>
      </trkpt>
      <trkpt lat="44.04791" lon="4.10903">
        <ele>101</ele>
        <time>2019-10-27T16:10:48Z</time>
      </trkpt>
      <trkpt lat="44.04798" lon="4.10902">
        <ele>101</ele>
        <time>2019-10-27T16:10:52Z</time>
      </trkpt>
      <trkpt lat="44.04798" lon="4.10904">
        <ele>101</ele>
        <time>2019-10-27T16:10:54Z</time>
      </trkpt>
      <trkpt lat="44.04799" lon="4.10905">
        <ele>101</ele>
        <time>2019-10-27T16:10:55Z</time>
      </trkpt>
      <trkpt lat="44.04809" lon="4.10909">
        <ele>101</ele>
        <time>2019-10-27T16:11:00Z</time>
      </trkpt>
      <trkpt lat="44.04811" lon="4.10908">
        <ele>101</ele>
        <time>2019-10-27T16:11:02Z</time>
      </trkpt>
      <trkpt lat="44.04815" lon="4.10911">
        <ele>101</ele>
        <time>2019-10-27T16:11:05Z</time>
      </trkpt>
      <trkpt lat="44.04825" lon="4.10912">
        <ele>101</ele>
        <time>2019-10-27T16:11:15Z</time>
      </trkpt>
      <trkpt lat="44.04827" lon="4.10914">
        <ele>101</ele>
        <time>2019-10-27T16:11:17Z</time>
      </trkpt>
      <trkpt lat="44.04831" lon="4.10914">
        <ele>101</ele>
        <time>2019-10-27T16:11:20Z</time>
      </trkpt>
      <trkpt lat="44.04837" lon="4.10912">
        <ele>101</ele>
        <time>2019-10-27T16:11:24Z</time>
      </trkpt>
      <trkpt lat="44.04861" lon="4.10901">
        <ele>102</ele>
        <time>2019-10-27T16:11:28Z</time>
      </trkpt>
      <trkpt lat="44.04878" lon="4.10893">
        <ele>102</ele>
        <time>2019-10-27T16:11:30Z</time>
      </trkpt>
      <trkpt lat="44.04889" lon="4.1089">
        <ele>103</ele>
        <time>2019-10-27T16:11:36Z</time>
      </trkpt>
      <trkpt lat="44.04894" lon="4.10891">
        <ele>103</ele>
        <time>2019-10-27T16:11:40Z</time>
      </trkpt>
      <trkpt lat="44.04895" lon="4.10898">
        <ele>103</ele>
        <time>2019-10-27T16:11:45Z</time>
      </trkpt>
      <trkpt lat="44.04899" lon="4.109">
        <ele>103</ele>
        <time>2019-10-27T16:11:48Z</time>
      </trkpt>
      <trkpt lat="44.04902" lon="4.109">
        <ele>103</ele>
        <time>2019-10-27T16:11:49Z</time>
      </trkpt>
      <trkpt lat="44.04925" lon="4.10889">
        <ele>103</ele>
        <time>2019-10-27T16:11:53Z</time>
      </trkpt>
      <trkpt lat="44.04946" lon="4.10879">
        <ele>103</ele>
        <time>2019-10-27T16:11:55Z</time>
      </trkpt>
      <trkpt lat="44.04956" lon="4.10879">
        <ele>103</ele>
        <time>2019-10-27T16:11:58Z</time>
      </trkpt>
      <trkpt lat="44.04965" lon="4.10879">
        <ele>103</ele>
        <time>2019-10-27T16:12:00Z</time>
      </trkpt>
      <trkpt lat="44.0497" lon="4.10879">
        <ele>103</ele>
        <time>2019-10-27T16:12:00Z</time>
      </trkpt>
      <trkpt lat="44.04986" lon="4.1088">
        <ele>102</ele>
        <time>2019-10-27T16:12:05Z</time>
      </trkpt>
      <trkpt lat="44.0499" lon="4.1088">
        <ele>102</ele>
        <time>2019-10-27T16:12:07Z</time>
      </trkpt>
      <trkpt lat="44.05004" lon="4.10878">
        <ele>102</ele>
        <time>2019-10-27T16:12:10Z</time>
      </trkpt>
      <trkpt lat="44.05007" lon="4.1088">
        <ele>102</ele>
        <time>2019-10-27T16:12:12Z</time>
      </trkpt>
      <trkpt lat="44.05023" lon="4.10884">
        <ele>101</ele>
        <time>2019-10-27T16:12:18Z</time>
      </trkpt>
      <trkpt lat="44.05026" lon="4.10883">
        <ele>100</ele>
        <time>2019-10-27T16:12:19Z</time>
      </trkpt>
      <trkpt lat="44.05047" lon="4.10886">
        <ele>100</ele>
        <time>2019-10-27T16:12:25Z</time>
      </trkpt>
      <trkpt lat="44.05066" lon="4.10888">
        <ele>100</ele>
        <time>2019-10-27T16:12:30Z</time>
      </trkpt>
      <trkpt lat="44.05079" lon="4.10886">
        <ele>100</ele>
        <time>2019-10-27T16:12:34Z</time>
      </trkpt>
      <trkpt lat="44.05097" lon="4.10884">
        <ele>99</ele>
        <time>2019-10-27T16:12:39Z</time>
      </trkpt>
      <trkpt lat="44.05111" lon="4.10875">
        <ele>99</ele>
        <time>2019-10-27T16:12:43Z</time>
      </trkpt>
      <trkpt lat="44.05128" lon="4.10867">
        <ele>99</ele>
        <time>2019-10-27T16:12:48Z</time>
      </trkpt>
      <trkpt lat="44.05146" lon="4.1086">
        <ele>100</ele>
        <time>2019-10-27T16:12:53Z</time>
      </trkpt>
      <trkpt lat="44.05164" lon="4.10853">
        <ele>100</ele>
        <time>2019-10-27T16:12:58Z</time>
      </trkpt>
      <trkpt lat="44.05184" lon="4.10845">
        <ele>101</ele>
        <time>2019-10-27T16:13:04Z</time>
      </trkpt>
      <trkpt lat="44.05203" lon="4.10836">
        <ele>102</ele>
        <time>2019-10-27T16:13:10Z</time>
      </trkpt>
      <trkpt lat="44.0522" lon="4.10824">
        <ele>102</ele>
        <time>2019-10-27T16:13:16Z</time>
      </trkpt>
      <trkpt lat="44.0523" lon="4.1081">
        <ele>103</ele>
        <time>2019-10-27T16:13:20Z</time>
      </trkpt>
      <trkpt lat="44.05237" lon="4.10797">
        <ele>103</ele>
        <time>2019-10-27T16:13:25Z</time>
      </trkpt>
      <trkpt lat="44.05248" lon="4.10782">
        <ele>104</ele>
        <time>2019-10-27T16:13:30Z</time>
      </trkpt>
      <trkpt lat="44.05264" lon="4.10763">
        <ele>104</ele>
        <time>2019-10-27T16:13:36Z</time>
      </trkpt>
      <trkpt lat="44.05266" lon="4.10761">
        <ele>104</ele>
        <time>2019-10-27T16:13:37Z</time>
      </trkpt>
      <trkpt lat="44.05281" lon="4.10747">
        <ele>105</ele>
        <time>2019-10-27T16:13:42Z</time>
      </trkpt>
      <trkpt lat="44.05284" lon="4.10744">
        <ele>105</ele>
        <time>2019-10-27T16:13:43Z</time>
      </trkpt>
      <trkpt lat="44.05303" lon="4.10727">
        <ele>105</ele>
        <time>2019-10-27T16:13:49Z</time>
      </trkpt>
      <trkpt lat="44.0532" lon="4.10714">
        <ele>106</ele>
        <time>2019-10-27T16:13:54Z</time>
      </trkpt>
      <trkpt lat="44.05335" lon="4.10707">
        <ele>107</ele>
        <time>2019-10-27T16:13:59Z</time>
      </trkpt>
      <trkpt lat="44.05355" lon="4.10696">
        <ele>107</ele>
        <time>2019-10-27T16:14:05Z</time>
      </trkpt>
      <trkpt lat="44.05374" lon="4.10687">
        <ele>107</ele>
        <time>2019-10-27T16:14:10Z</time>
      </trkpt>
      <trkpt lat="44.05394" lon="4.10681">
        <ele>108</ele>
        <time>2019-10-27T16:14:17Z</time>
      </trkpt>
      <trkpt lat="44.05409" lon="4.10672">
        <ele>108</ele>
        <time>2019-10-27T16:14:22Z</time>
      </trkpt>
      <trkpt lat="44.0542" lon="4.10663">
        <ele>109</ele>
        <time>2019-10-27T16:14:25Z</time>
      </trkpt>
      <trkpt lat="44.05438" lon="4.10651">
        <ele>109</ele>
        <time>2019-10-27T16:14:32Z</time>
      </trkpt>
      <trkpt lat="44.05457" lon="4.10641">
        <ele>109</ele>
        <time>2019-10-27T16:14:38Z</time>
      </trkpt>
      <trkpt lat="44.05476" lon="4.10632">
        <ele>109</ele>
        <time>2019-10-27T16:14:44Z</time>
      </trkpt>
      <trkpt lat="44.05497" lon="4.10622">
        <ele>110</ele>
        <time>2019-10-27T16:14:50Z</time>
      </trkpt>
      <trkpt lat="44.05517" lon="4.10613">
        <ele>110</ele>
        <time>2019-10-27T16:14:56Z</time>
      </trkpt>
      <trkpt lat="44.05537" lon="4.10605">
        <ele>110</ele>
        <time>2019-10-27T16:15:02Z</time>
      </trkpt>
      <trkpt lat="44.05557" lon="4.106">
        <ele>110</ele>
        <time>2019-10-27T16:15:08Z</time>
      </trkpt>
      <trkpt lat="44.05576" lon="4.10594">
        <ele>110</ele>
        <time>2019-10-27T16:15:13Z</time>
      </trkpt>
      <trkpt lat="44.05597" lon="4.10586">
        <ele>111</ele>
        <time>2019-10-27T16:15:18Z</time>
      </trkpt>
      <trkpt lat="44.056" lon="4.10585">
        <ele>111</ele>
        <time>2019-10-27T16:15:19Z</time>
      </trkpt>
      <trkpt lat="44.05619" lon="4.10583">
        <ele>111</ele>
        <time>2019-10-27T16:15:24Z</time>
      </trkpt>
      <trkpt lat="44.05625" lon="4.10579">
        <ele>111</ele>
        <time>2019-10-27T16:15:28Z</time>
      </trkpt>
      <trkpt lat="44.05627" lon="4.10578">
        <ele>111</ele>
        <time>2019-10-27T16:15:29Z</time>
      </trkpt>
      <trkpt lat="44.05638" lon="4.10569">
        <ele>111</ele>
        <time>2019-10-27T16:15:33Z</time>
      </trkpt>
      <trkpt lat="44.05655" lon="4.10562">
        <ele>112</ele>
        <time>2019-10-27T16:15:38Z</time>
      </trkpt>
      <trkpt lat="44.05671" lon="4.10553">
        <ele>112</ele>
        <time>2019-10-27T16:15:43Z</time>
      </trkpt>
      <trkpt lat="44.05688" lon="4.10544">
        <ele>112</ele>
        <time>2019-10-27T16:15:49Z</time>
      </trkpt>
      <trkpt lat="44.05707" lon="4.10536">
        <ele>112</ele>
        <time>2019-10-27T16:15:55Z</time>
      </trkpt>
      <trkpt lat="44.05727" lon="4.10529">
        <ele>112</ele>
        <time>2019-10-27T16:16:00Z</time>
      </trkpt>
      <trkpt lat="44.05745" lon="4.10526">
        <ele>112</ele>
        <time>2019-10-27T16:16:06Z</time>
      </trkpt>
      <trkpt lat="44.05749" lon="4.10524">
        <ele>112</ele>
        <time>2019-10-27T16:16:07Z</time>
      </trkpt>
      <trkpt lat="44.05762" lon="4.10511">
        <ele>112</ele>
        <time>2019-10-27T16:16:12Z</time>
      </trkpt>
      <trkpt lat="44.05765" lon="4.1051">
        <ele>112</ele>
        <time>2019-10-27T16:16:13Z</time>
      </trkpt>
      <trkpt lat="44.05782" lon="4.10503">
        <ele>112</ele>
        <time>2019-10-27T16:16:19Z</time>
      </trkpt>
      <trkpt lat="44.05794" lon="4.10499">
        <ele>112</ele>
        <time>2019-10-27T16:16:23Z</time>
      </trkpt>
      <trkpt lat="44.05802" lon="4.10495">
        <ele>112</ele>
        <time>2019-10-27T16:16:25Z</time>
      </trkpt>
      <trkpt lat="44.0581" lon="4.10493">
        <ele>112</ele>
        <time>2019-10-27T16:16:30Z</time>
      </trkpt>
      <trkpt lat="44.05824" lon="4.10489">
        <ele>112</ele>
        <time>2019-10-27T16:16:34Z</time>
      </trkpt>
      <trkpt lat="44.05826" lon="4.10489">
        <ele>112</ele>
        <time>2019-10-27T16:16:35Z</time>
      </trkpt>
      <trkpt lat="44.05831" lon="4.10499">
        <ele>112</ele>
        <time>2019-10-27T16:16:39Z</time>
      </trkpt>
      <trkpt lat="44.05833" lon="4.10506">
        <ele>112</ele>
        <time>2019-10-27T16:16:42Z</time>
      </trkpt>
      <trkpt lat="44.05839" lon="4.10506">
        <ele>112</ele>
        <time>2019-10-27T16:16:45Z</time>
      </trkpt>
      <trkpt lat="44.05859" lon="4.10497">
        <ele>112</ele>
        <time>2019-10-27T16:16:50Z</time>
      </trkpt>
      <trkpt lat="44.05882" lon="4.10496">
        <ele>112</ele>
        <time>2019-10-27T16:16:56Z</time>
      </trkpt>
      <trkpt lat="44.05901" lon="4.10494">
        <ele>112</ele>
        <time>2019-10-27T16:17:00Z</time>
      </trkpt>
      <trkpt lat="44.05919" lon="4.10488">
        <ele>112</ele>
        <time>2019-10-27T16:17:06Z</time>
      </trkpt>
      <trkpt lat="44.05936" lon="4.10479">
        <ele>112</ele>
        <time>2019-10-27T16:17:11Z</time>
      </trkpt>
      <trkpt lat="44.0595" lon="4.10478">
        <ele>112</ele>
        <time>2019-10-27T16:17:16Z</time>
      </trkpt>
      <trkpt lat="44.05964" lon="4.10476">
        <ele>112</ele>
        <time>2019-10-27T16:17:21Z</time>
      </trkpt>
      <trkpt lat="44.05974" lon="4.1048">
        <ele>112</ele>
        <time>2019-10-27T16:17:25Z</time>
      </trkpt>
      <trkpt lat="44.0598" lon="4.10487">
        <ele>112</ele>
        <time>2019-10-27T16:17:29Z</time>
      </trkpt>
      <trkpt lat="44.05994" lon="4.10489">
        <ele>112</ele>
        <time>2019-10-27T16:17:34Z</time>
      </trkpt>
      <trkpt lat="44.06006" lon="4.1049">
        <ele>113</ele>
        <time>2019-10-27T16:17:37Z</time>
      </trkpt>
      <trkpt lat="44.06018" lon="4.10495">
        <ele>113</ele>
        <time>2019-10-27T16:17:42Z</time>
      </trkpt>
      <trkpt lat="44.06026" lon="4.10495">
        <ele>113</ele>
        <time>2019-10-27T16:17:45Z</time>
      </trkpt>
      <trkpt lat="44.0604" lon="4.10503">
        <ele>113</ele>
        <time>2019-10-27T16:17:51Z</time>
      </trkpt>
      <trkpt lat="44.06047" lon="4.10512">
        <ele>114</ele>
        <time>2019-10-27T16:17:56Z</time>
      </trkpt>
      <trkpt lat="44.06048" lon="4.10514">
        <ele>114</ele>
        <time>2019-10-27T16:17:57Z</time>
      </trkpt>
      <trkpt lat="44.06061" lon="4.10524">
        <ele>114</ele>
        <time>2019-10-27T16:18:02Z</time>
      </trkpt>
      <trkpt lat="44.06064" lon="4.10526">
        <ele>114</ele>
        <time>2019-10-27T16:18:03Z</time>
      </trkpt>
      <trkpt lat="44.06081" lon="4.10533">
        <ele>114</ele>
        <time>2019-10-27T16:18:08Z</time>
      </trkpt>
      <trkpt lat="44.06085" lon="4.10534">
        <ele>114</ele>
        <time>2019-10-27T16:18:09Z</time>
      </trkpt>
      <trkpt lat="44.06102" lon="4.10534">
        <ele>113</ele>
        <time>2019-10-27T16:18:14Z</time>
      </trkpt>
      <trkpt lat="44.06121" lon="4.10533">
        <ele>112</ele>
        <time>2019-10-27T16:18:19Z</time>
      </trkpt>
      <trkpt lat="44.06136" lon="4.10531">
        <ele>112</ele>
        <time>2019-10-27T16:18:24Z</time>
      </trkpt>
      <trkpt lat="44.06138" lon="4.10529">
        <ele>112</ele>
        <time>2019-10-27T16:18:25Z</time>
      </trkpt>
      <trkpt lat="44.06141" lon="4.10515">
        <ele>112</ele>
        <time>2019-10-27T16:18:29Z</time>
      </trkpt>
      <trkpt lat="44.06143" lon="4.10489">
        <ele>112</ele>
        <time>2019-10-27T16:18:35Z</time>
      </trkpt>
      <trkpt lat="44.06147" lon="4.10468">
        <ele>112</ele>
        <time>2019-10-27T16:18:42Z</time>
      </trkpt>
      <trkpt lat="44.06147" lon="4.10444">
        <ele>112</ele>
        <time>2019-10-27T16:18:49Z</time>
      </trkpt>
      <trkpt lat="44.06151" lon="4.10426">
        <ele>112</ele>
        <time>2019-10-27T16:18:54Z</time>
      </trkpt>
      <trkpt lat="44.06156" lon="4.10409">
        <ele>112</ele>
        <time>2019-10-27T16:18:59Z</time>
      </trkpt>
      <trkpt lat="44.06154" lon="4.10389">
        <ele>112</ele>
        <time>2019-10-27T16:19:04Z</time>
      </trkpt>
      <trkpt lat="44.06147" lon="4.10371">
        <ele>112</ele>
        <time>2019-10-27T16:19:09Z</time>
      </trkpt>
      <trkpt lat="44.06138" lon="4.10347">
        <ele>112</ele>
        <time>2019-10-27T16:19:15Z</time>
      </trkpt>
      <trkpt lat="44.0613" lon="4.10325">
        <ele>112</ele>
        <time>2019-10-27T16:19:21Z</time>
      </trkpt>
      <trkpt lat="44.06123" lon="4.10305">
        <ele>112</ele>
        <time>2019-10-27T16:19:25Z</time>
      </trkpt>
      <trkpt lat="44.06114" lon="4.10289">
        <ele>112</ele>
        <time>2019-10-27T16:19:30Z</time>
      </trkpt>
      <trkpt lat="44.06102" lon="4.10269">
        <ele>112</ele>
        <time>2019-10-27T16:19:36Z</time>
      </trkpt>
      <trkpt lat="44.06091" lon="4.10247">
        <ele>112</ele>
        <time>2019-10-27T16:19:42Z</time>
      </trkpt>
      <trkpt lat="44.06082" lon="4.10221">
        <ele>112</ele>
        <time>2019-10-27T16:19:49Z</time>
      </trkpt>
      <trkpt lat="44.06073" lon="4.10195">
        <ele>112</ele>
        <time>2019-10-27T16:19:55Z</time>
      </trkpt>
      <trkpt lat="44.0607" lon="4.10169">
        <ele>112</ele>
        <time>2019-10-27T16:20:00Z</time>
      </trkpt>
      <trkpt lat="44.06071" lon="4.10143">
        <ele>112</ele>
        <time>2019-10-27T16:20:09Z</time>
      </trkpt>
      <trkpt lat="44.06072" lon="4.10117">
        <ele>112</ele>
        <time>2019-10-27T16:20:17Z</time>
      </trkpt>
      <trkpt lat="44.06072" lon="4.1009">
        <ele>112</ele>
        <time>2019-10-27T16:20:25Z</time>
      </trkpt>
      <trkpt lat="44.06072" lon="4.10065">
        <ele>112</ele>
        <time>2019-10-27T16:20:32Z</time>
      </trkpt>
      <trkpt lat="44.0607" lon="4.10043">
        <ele>111</ele>
        <time>2019-10-27T16:20:38Z</time>
      </trkpt>
      <trkpt lat="44.06064" lon="4.10017">
        <ele>110</ele>
        <time>2019-10-27T16:20:45Z</time>
      </trkpt>
      <trkpt lat="44.06058" lon="4.09994">
        <ele>110</ele>
        <time>2019-10-27T16:20:52Z</time>
      </trkpt>
      <trkpt lat="44.06054" lon="4.09967">
        <ele>110</ele>
        <time>2019-10-27T16:20:59Z</time>
      </trkpt>
      <trkpt lat="44.06053" lon="4.09942">
        <ele>110</ele>
        <time>2019-10-27T16:21:06Z</time>
      </trkpt>
      <trkpt lat="44.06049" lon="4.09916">
        <ele>110</ele>
        <time>2019-10-27T16:21:13Z</time>
      </trkpt>
      <trkpt lat="44.06045" lon="4.09891">
        <ele>109</ele>
        <time>2019-10-27T16:21:20Z</time>
      </trkpt>
      <trkpt lat="44.06042" lon="4.09865">
        <ele>109</ele>
        <time>2019-10-27T16:21:27Z</time>
      </trkpt>
      <trkpt lat="44.06041" lon="4.0984">
        <ele>109</ele>
        <time>2019-10-27T16:21:34Z</time>
      </trkpt>
      <trkpt lat="44.06041" lon="4.0982">
        <ele>109</ele>
        <time>2019-10-27T16:21:40Z</time>
      </trkpt>
      <trkpt lat="44.06043" lon="4.098">
        <ele>109</ele>
        <time>2019-10-27T16:21:46Z</time>
      </trkpt>
      <trkpt lat="44.06048" lon="4.09781">
        <ele>109</ele>
        <time>2019-10-27T16:21:52Z</time>
      </trkpt>
      <trkpt lat="44.06054" lon="4.09765">
        <ele>109</ele>
        <time>2019-10-27T16:21:58Z</time>
      </trkpt>
      <trkpt lat="44.06064" lon="4.09743">
        <ele>109</ele>
        <time>2019-10-27T16:22:07Z</time>
      </trkpt>
      <trkpt lat="44.06074" lon="4.09722">
        <ele>109</ele>
        <time>2019-10-27T16:22:16Z</time>
      </trkpt>
      <trkpt lat="44.06079" lon="4.09712">
        <ele>109</ele>
        <time>2019-10-27T16:22:21Z</time>
      </trkpt>
      <trkpt lat="44.06087" lon="4.09698">
        <ele>109</ele>
        <time>2019-10-27T16:22:28Z</time>
      </trkpt>
      <trkpt lat="44.06094" lon="4.09685">
        <ele>109</ele>
        <time>2019-10-27T16:22:34Z</time>
      </trkpt>
      <trkpt lat="44.06105" lon="4.09666">
        <ele>111</ele>
        <time>2019-10-27T16:22:43Z</time>
      </trkpt>
      <trkpt lat="44.06112" lon="4.09652">
        <ele>111</ele>
        <time>2019-10-27T16:22:50Z</time>
      </trkpt>
      <trkpt lat="44.06117" lon="4.09642">
        <ele>111</ele>
        <time>2019-10-27T16:22:56Z</time>
      </trkpt>
      <trkpt lat="44.06123" lon="4.0963">
        <ele>112</ele>
        <time>2019-10-27T16:23:02Z</time>
      </trkpt>
      <trkpt lat="44.06131" lon="4.09615">
        <ele>113</ele>
        <time>2019-10-27T16:23:09Z</time>
      </trkpt>
      <trkpt lat="44.0614" lon="4.09597">
        <ele>114</ele>
        <time>2019-10-27T16:23:17Z</time>
      </trkpt>
      <trkpt lat="44.06145" lon="4.0959">
        <ele>115</ele>
        <time>2019-10-27T16:23:22Z</time>
      </trkpt>
      <trkpt lat="44.06151" lon="4.0958">
        <ele>115</ele>
        <time>2019-10-27T16:23:27Z</time>
      </trkpt>
      <trkpt lat="44.06157" lon="4.09566">
        <ele>117</ele>
        <time>2019-10-27T16:23:33Z</time>
      </trkpt>
      <trkpt lat="44.06158" lon="4.09563">
        <ele>117</ele>
        <time>2019-10-27T16:23:34Z</time>
      </trkpt>
      <trkpt lat="44.06157" lon="4.09551">
        <ele>117</ele>
        <time>2019-10-27T16:23:39Z</time>
      </trkpt>
      <trkpt lat="44.06148" lon="4.09536">
        <ele>118</ele>
        <time>2019-10-27T16:23:42Z</time>
      </trkpt>
      <trkpt lat="44.06142" lon="4.09521">
        <ele>118</ele>
        <time>2019-10-27T16:23:44Z</time>
      </trkpt>
      <trkpt lat="44.06126" lon="4.09488">
        <ele>119</ele>
        <time>2019-10-27T16:23:48Z</time>
      </trkpt>
      <trkpt lat="44.06097" lon="4.09419">
        <ele>119</ele>
        <time>2019-10-27T16:23:55Z</time>
      </trkpt>
      <trkpt lat="44.06074" lon="4.0936">
        <ele>120</ele>
        <time>2019-10-27T16:24:01Z</time>
      </trkpt>
      <trkpt lat="44.06071" lon="4.09351">
        <ele>120</ele>
        <time>2019-10-27T16:24:02Z</time>
      </trkpt>
      <trkpt lat="44.06075" lon="4.09322">
        <ele>119</ele>
        <time>2019-10-27T16:24:06Z</time>
      </trkpt>
      <trkpt lat="44.06085" lon="4.09314">
        <ele>119</ele>
        <time>2019-10-27T16:24:08Z</time>
      </trkpt>
      <trkpt lat="44.06106" lon="4.09303">
        <ele>119</ele>
        <time>2019-10-27T16:24:13Z</time>
      </trkpt>
      <trkpt lat="44.06125" lon="4.09293">
        <ele>118</ele>
        <time>2019-10-27T16:24:18Z</time>
      </trkpt>
      <trkpt lat="44.06144" lon="4.09284">
        <ele>118</ele>
        <time>2019-10-27T16:24:23Z</time>
      </trkpt>
      <trkpt lat="44.06163" lon="4.09274">
        <ele>117</ele>
        <time>2019-10-27T16:24:28Z</time>
      </trkpt>
      <trkpt lat="44.06181" lon="4.09266">
        <ele>117</ele>
        <time>2019-10-27T16:24:33Z</time>
      </trkpt>
      <trkpt lat="44.06193" lon="4.09272">
        <ele>116</ele>
        <time>2019-10-27T16:24:37Z</time>
      </trkpt>
      <trkpt lat="44.06194" lon="4.09275">
        <ele>116</ele>
        <time>2019-10-27T16:24:38Z</time>
      </trkpt>
      <trkpt lat="44.06198" lon="4.09289">
        <ele>116</ele>
        <time>2019-10-27T16:24:43Z</time>
      </trkpt>
      <trkpt lat="44.06198" lon="4.0929">
        <ele>116</ele>
        <time>2019-10-27T16:24:44Z</time>
      </trkpt>
      <trkpt lat="44.06196" lon="4.09291">
        <ele>116</ele>
        <time>2019-10-27T16:24:45Z</time>
      </trkpt>
      <trkpt lat="44.06197" lon="4.09291">
        <ele>116</ele>
        <time>2019-10-27T16:24:48Z</time>
      </trkpt>
    </trkseg>
  </trk>
</gpx>